LiveATC.Net - Listen to live air traffic control over the Internet!

Find LiveATC Audio Streams


Airport/ARTCC Code

Frequency Search
(e.g., 124.400, 128.75)
Site-wide search
 


Browse LiveATC Feeds
Top 50 LiveATC Feeds
Bad Weather Areas

LiveATC FAQ
Offer a LiveATC Feed
Contact LiveATC.net
Press Inquiries

LiveATC on iPhone
LiveATC on Android

Windows Phone
Windows 8/10

LiveATC Mobile
(Mobile browser)

ATC Audio Archives
Interesting Recordings

LiveATC Forums

Home Page
About LiveATC.net
Make a Donation
Terms of Use
Privacy Policy

Canadian Air Freqs

AIRMETs/SIGMETs

FAA Airport Status
Nat'l Airspace Status
Arrival Demand Charts


Server Software By:
Icecast.org
Liquidsoap

Select an area of interest:
U.S. Feeds: Class B Airports | Class C Airports | Class D/Other Airports | ARTCC (Centers)
International Feeds: Canada | Europe | Oceania | Asia | South America | North/Central America | Africa
Misc Feeds: HF Feeds
Search by ICAO/IATA airport code:   (e.g., kbos, kjfk, lax, eham, etc.)


Currently Available Live Feeds: 2305
Status Updated: Tue Dec 11 2018 01:28:01 UTC


NOTICE

Unauthorized use prohibited. See LiveATC.net Terms of Service

International Airport Feeds

 

HF CWP1/2
Cairns, Queensland, Australia

Feed Status: DOWN
Offline since: 2018-11-13 13:25:02 UTC

CWP: 11.384
CWP: 8.903
CWP: 4.666
CWP/SP: 13.261
CWP/SP: 17.904
CWP/SP: 21.985

Notes:
HF CWP1/2 (Central West Pacific) Japan to Honolulu and Australia to New Zealand

Frequencies Monitored:
3467, 4666, 5643, 5655, 6556, 8867, 8879, 8903, 11384, 13261, 13300, 13306, 17904, 21985

Stations:
San Francisco, Tokyo, Manila, Singapore, Brisbane, Auckland, Nadi and Tahiti.

Frequency Schedule: hfcwp.yolasite.com

EFKK Tower (Archives)
Kronoby, Finland

Feed Status: UP
Listen in your browser - HTML5 player(in browser, HTML5)
Listen right in your browser(in browser, requires Flash)
Click here to listen with your own player(launches your MP3 player)

EFKK 110050Z AUTO 01006KT 9999 OVC002 00/M00 Q1011

EFKK Flight Activity (Flightaware)

Listeners: 1 out of 1200 total

Kronoby Tower: 120.100

EFKU Tower/Approach (Archives)
Siilinjarvi, Finland

Feed Status: UP
Listen in your browser - HTML5 player(in browser, HTML5)
Listen right in your browser(in browser, requires Flash)
Click here to listen with your own player(launches your MP3 player)

EFKU 110050Z AUTO 04003KT 9999 FEW005 OVC073 M02/M03 Q1010

EFKU Flight Activity (Flightaware)

Listeners: 0 out of 1200 total

Kuopio Approach: 130.600
Kuopio Tower: 120.150

Dutch Mil Radar (Archives)
Amsterdam, Netherlands

Feed Status: UP
Listen in your browser - HTML5 player(in browser, HTML5)
Listen right in your browser(in browser, requires Flash)
Click here to listen with your own player(launches your MP3 player)

EHLE Flight Activity (Flightaware)

Listeners: 0 out of 1200 total

Dutch Mil Flight Info: 264.325
Dutch Mil Radar: 128.355
Dutch Mil Radar: 132.350

EHAA Radar ARTIP (Archives)
Amsterdam, Netherlands

Feed Status: UP
Listen in your browser - HTML5 player(in browser, HTML5)
Listen right in your browser(in browser, requires Flash)
Click here to listen with your own player(launches your MP3 player)

EHAM 110055Z 32008KT 9999 FEW028 05/02 Q1023 NOSIG

EHAM Flight Activity (Flightaware)

Listeners: 0 out of 1200 total

EHAA Radar Sector 1 ARTIP: 120.550

EHAA Radar East Inbound (Archives)
Amsterdam, Netherlands

Feed Status: UP
Listen in your browser - HTML5 player(in browser, HTML5)
Listen right in your browser(in browser, requires Flash)
Click here to listen with your own player(launches your MP3 player)

EHAM 110055Z 32008KT 9999 FEW028 05/02 Q1023 NOSIG

EHAM Flight Activity (Flightaware)

Listeners: 0 out of 1200 total

EHAA Radar Sector 2 East Inbound: 128.575

EHAA Radar East Outbound (Archives)
Amsterdam, Netherlands

Feed Status: UP
Listen in your browser - HTML5 player(in browser, HTML5)
Listen right in your browser(in browser, requires Flash)
Click here to listen with your own player(launches your MP3 player)

EHAM 110055Z 32008KT 9999 FEW028 05/02 Q1023 NOSIG

EHAM Flight Activity (Flightaware)

Listeners: 0 out of 1200 total

EHAA Radar Sector 2 East Outbound: 124.875

EHAA Radar North (Archives)
Amsterdam, Netherlands

Feed Status: UP
Listen in your browser - HTML5 player(in browser, HTML5)
Listen right in your browser(in browser, requires Flash)
Click here to listen with your own player(launches your MP3 player)

EHAM 110055Z 32008KT 9999 FEW028 05/02 Q1023 NOSIG

EHAM Flight Activity (Flightaware)

Listeners: 0 out of 1200 total

EHAA Radar Sector 1 North: 134.375

EHAA Radar Northwest (Archives)
Amsterdam, Netherlands

Feed Status: UP
Listen in your browser - HTML5 player(in browser, HTML5)
Listen right in your browser(in browser, requires Flash)
Click here to listen with your own player(launches your MP3 player)

EHAM 110055Z 32008KT 9999 FEW028 05/02 Q1023 NOSIG

EHAM Flight Activity (Flightaware)

Listeners: 1 out of 1200 total

EHAA Radar Sector 5 Northwest: 123.7000

EHAA Radar RIVER (Archives)
Amsterdam, Netherlands

Feed Status: UP
Listen in your browser - HTML5 player(in browser, HTML5)
Listen right in your browser(in browser, requires Flash)
Click here to listen with your own player(launches your MP3 player)

EHAM 110055Z 32008KT 9999 FEW028 05/02 Q1023 NOSIG

EHAM Flight Activity (Flightaware)

Listeners: 0 out of 1200 total

EHAA Radar Sector 3 RIVER: 130.950

EHAA Radar South (Archives)
Amsterdam, Netherlands

Feed Status: UP
Listen in your browser - HTML5 player(in browser, HTML5)
Listen right in your browser(in browser, requires Flash)
Click here to listen with your own player(launches your MP3 player)

EHAM 110055Z 32008KT 9999 FEW028 05/02 Q1023 NOSIG

EHAM Flight Activity (Flightaware)

Listeners: 1 out of 1200 total

EHAA Radar Sector 3 South: 123.850

EHAA Radar South (Backup) (Archives)
Amsterdam, Netherlands

Feed Status: UP
Listen in your browser - HTML5 player(in browser, HTML5)
Listen right in your browser(in browser, requires Flash)
Click here to listen with your own player(launches your MP3 player)

EHAM 110055Z 32008KT 9999 FEW028 05/02 Q1023 NOSIG

EHAM Flight Activity (Flightaware)

Listeners: 0 out of 1200 total

EHAA Radar Sector 3 South Backup : 127.775

EHAA Radar Southwest (Archives)
Amsterdam, Netherlands

Feed Status: UP
Listen in your browser - HTML5 player(in browser, HTML5)
Listen right in your browser(in browser, requires Flash)
Click here to listen with your own player(launches your MP3 player)

EHAM 110055Z 32008KT 9999 FEW028 05/02 Q1023 NOSIG

EHAM Flight Activity (Flightaware)

Listeners: 0 out of 1200 total

EHAA Radar Sector 4 Southwest: 125.750

EHAA Radar SUGOL (Archives)
Amsterdam, Netherlands

Feed Status: UP
Listen in your browser - HTML5 player(in browser, HTML5)
Listen right in your browser(in browser, requires Flash)
Click here to listen with your own player(launches your MP3 player)

EHAM 110055Z 32008KT 9999 FEW028 05/02 Q1023 NOSIG

EHAM Flight Activity (Flightaware)

Listeners: 0 out of 1200 total

EHAA Radar Sector 5 SUGOL: 118.800

EHAM Airside Ops Mgr (AOM) (Archives)
Amsterdam, Netherlands

Feed Status: UP
Listen in your browser - HTML5 player(in browser, HTML5)
Listen right in your browser(in browser, requires Flash)
Click here to listen with your own player(launches your MP3 player)

EHAM 110055Z 32008KT 9999 FEW028 05/02 Q1023 NOSIG

EHAM Flight Activity (Flightaware)

Listeners: 0 out of 1200 total

Schiphol Airside Operations Manager: 130.475

EHAM App/Dep Backup (Archives)
Amsterdam, Netherlands

Feed Status: UP
Listen in your browser - HTML5 player(in browser, HTML5)
Listen right in your browser(in browser, requires Flash)
Click here to listen with your own player(launches your MP3 player)

EHAM 110055Z 32008KT 9999 FEW028 05/02 Q1023 NOSIG

EHAM Flight Activity (Flightaware)

Listeners: 0 out of 1200 total

Schiphol App/Dep Backup: 118.075

EHAM App/Dep TMA East (Archives)
Amsterdam, Netherlands

Feed Status: UP
Listen in your browser - HTML5 player(in browser, HTML5)
Listen right in your browser(in browser, requires Flash)
Click here to listen with your own player(launches your MP3 player)

EHAM 110055Z 32008KT 9999 FEW028 05/02 Q1023 NOSIG

EHAM Flight Activity (Flightaware)

Listeners: 1 out of 1200 total

Amsterdam Approach/Departure TMA East: 119.055

EHAM App/Dep TMA West (Archives)
Amsterdam, Netherlands

Feed Status: UP
Listen in your browser - HTML5 player(in browser, HTML5)
Listen right in your browser(in browser, requires Flash)
Click here to listen with your own player(launches your MP3 player)

EHAM 110055Z 32008KT 9999 FEW028 05/02 Q1023 NOSIG

EHAM Flight Activity (Flightaware)

Listeners: 2 out of 1200 total

Amsterdam Approach/Departure TMA West: 121.200

EHAM Apron (North) (Archives)
Amsterdam, Netherlands

Feed Status: UP
Listen in your browser - HTML5 player(in browser, HTML5)
Listen right in your browser(in browser, requires Flash)
Click here to listen with your own player(launches your MP3 player)

EHAM 110055Z 32008KT 9999 FEW028 05/02 Q1023 NOSIG

EHAM Flight Activity (Flightaware)

Listeners: 0 out of 1200 total

Schiphol Apron (North): 121.880

EHAM Apron (South) (Archives)
Amsterdam, Netherlands

Feed Status: UP
Listen in your browser - HTML5 player(in browser, HTML5)
Listen right in your browser(in browser, requires Flash)
Click here to listen with your own player(launches your MP3 player)

EHAM 110055Z 32008KT 9999 FEW028 05/02 Q1023 NOSIG

EHAM Flight Activity (Flightaware)

Listeners: 1 out of 1200 total

Schiphol Apron (South): 121.780

EHAM Arrival (Primary) (Archives)
Amsterdam, Netherlands

Feed Status: UP
Listen in your browser - HTML5 player(in browser, HTML5)
Listen right in your browser(in browser, requires Flash)
Click here to listen with your own player(launches your MP3 player)

EHAM 110055Z 32008KT 9999 FEW028 05/02 Q1023 NOSIG

EHAM Flight Activity (Flightaware)

Listeners: 0 out of 1200 total

Amsterdam Arrival : 118.400

EHAM Arrival (Secondary) (Archives)
Amsterdam, Netherlands

Feed Status: UP
Listen in your browser - HTML5 player(in browser, HTML5)
Listen right in your browser(in browser, requires Flash)
Click here to listen with your own player(launches your MP3 player)

EHAM 110055Z 32008KT 9999 FEW028 05/02 Q1023 NOSIG

EHAM Flight Activity (Flightaware)

Listeners: 0 out of 1200 total

Amsterdam Arrival (Secondary): 131.150

EHAM Arrival (Secondary/Backup) (Archives)
Amsterdam, Netherlands

Feed Status: UP
Listen in your browser - HTML5 player(in browser, HTML5)
Listen right in your browser(in browser, requires Flash)
Click here to listen with your own player(launches your MP3 player)

EHAM 110055Z 32008KT 9999 FEW028 05/02 Q1023 NOSIG

EHAM Flight Activity (Flightaware)

Listeners: 0 out of 1200 total

Amsterdam Arrival (Secondary Backup): 131.275

EHAM Arrival Backup/Discrete (Archives)
Amsterdam, Netherlands

Feed Status: UP
Listen in your browser - HTML5 player(in browser, HTML5)
Listen right in your browser(in browser, requires Flash)
Click here to listen with your own player(launches your MP3 player)

EHAM 110055Z 32008KT 9999 FEW028 05/02 Q1023 NOSIG

EHAM Flight Activity (Flightaware)

Listeners: 0 out of 1200 total

Schiphol Arrival Backup: 126.675

EHAM Clearance Delivery (Archives)
Amsterdam, Netherlands

Feed Status: UP
Listen in your browser - HTML5 player(in browser, HTML5)
Listen right in your browser(in browser, requires Flash)
Click here to listen with your own player(launches your MP3 player)

EHAM 110055Z 32008KT 9999 FEW028 05/02 Q1023 NOSIG

EHAM Flight Activity (Flightaware)

Listeners: 1 out of 1200 total

Schiphol Clearance Delivery: 121.980

EHAM Ground (Backup) (Archives)
Amsterdam, Netherlands

Feed Status: UP
Listen in your browser - HTML5 player(in browser, HTML5)
Listen right in your browser(in browser, requires Flash)
Click here to listen with your own player(launches your MP3 player)

EHAM 110055Z 32008KT 9999 FEW028 05/02 Q1023 NOSIG

EHAM Flight Activity (Flightaware)

Listeners: 0 out of 1200 total

Schiphol Ground (Backup): 122.425

EHAM Ground (North) (Archives)
Amsterdam, Netherlands

Feed Status: UP
Listen in your browser - HTML5 player(in browser, HTML5)
Listen right in your browser(in browser, requires Flash)
Click here to listen with your own player(launches your MP3 player)

EHAM 110055Z 32008KT 9999 FEW028 05/02 Q1023 NOSIG

EHAM Flight Activity (Flightaware)

Listeners: 0 out of 1200 total

Schiphol Ground (North): 121.805

EHAM Ground (South) (Archives)
Amsterdam, Netherlands

Feed Status: UP
Listen in your browser - HTML5 player(in browser, HTML5)
Listen right in your browser(in browser, requires Flash)
Click here to listen with your own player(launches your MP3 player)

EHAM 110055Z 32008KT 9999 FEW028 05/02 Q1023 NOSIG

EHAM Flight Activity (Flightaware)

Listeners: 0 out of 1200 total

Schiphol Ground (South): 121.705

EHAM Ground (West) (Archives)
Amsterdam, Netherlands

Feed Status: UP
Listen in your browser - HTML5 player(in browser, HTML5)
Listen right in your browser(in browser, requires Flash)
Click here to listen with your own player(launches your MP3 player)

EHAM 110055Z 32008KT 9999 FEW028 05/02 Q1023 NOSIG

EHAM Flight Activity (Flightaware)

Listeners: 0 out of 1200 total

Schiphol Ground (West): 121.560

EHAM Info North Sea (North) (Archives)
Amsterdam, Netherlands

Feed Status: UP
Listen in your browser - HTML5 player(in browser, HTML5)
Listen right in your browser(in browser, requires Flash)
Click here to listen with your own player(launches your MP3 player)

EHAM 110055Z 32008KT 9999 FEW028 05/02 Q1023 NOSIG

EHAM Flight Activity (Flightaware)

Listeners: 0 out of 1200 total

Amsterdam Info North Sea (North): 119.175

EHAM Info North Sea (Over Land) (Archives)
Amsterdam, Netherlands

Feed Status: UP
Listen in your browser - HTML5 player(in browser, HTML5)
Listen right in your browser(in browser, requires Flash)
Click here to listen with your own player(launches your MP3 player)

EHAM 110055Z 32008KT 9999 FEW028 05/02 Q1023 NOSIG

EHAM Flight Activity (Flightaware)

Listeners: 1 out of 1200 total

Amsterdam Info North Sea (Over Land): 124.300

EHAM Info North Sea (South) (Archives)
Amsterdam, Netherlands

Feed Status: UP
Listen in your browser - HTML5 player(in browser, HTML5)
Listen right in your browser(in browser, requires Flash)
Click here to listen with your own player(launches your MP3 player)

EHAM 110055Z 32008KT 9999 FEW028 05/02 Q1023 NOSIG

EHAM Flight Activity (Flightaware)

Listeners: 0 out of 1200 total

Amsterdam Info North Sea (South): 136.650

EHAM Ops (Archives)
Amsterdam, Netherlands

Feed Status: UP
Listen in your browser - HTML5 player(in browser, HTML5)
Listen right in your browser(in browser, requires Flash)
Click here to listen with your own player(launches your MP3 player)

EHAM 110055Z 32008KT 9999 FEW028 05/02 Q1023 NOSIG

EHAM Flight Activity (Flightaware)

Listeners: 0 out of 1200 total

Schiphol Ops 1: 465.770
Schiphol Ops 2: 466.470
Schiphol Runway Ops: 447.175

EHAM Schiphol Outbound Planner (Archives)
Amsterdam, Netherlands

Feed Status: UP
Listen in your browser - HTML5 player(in browser, HTML5)
Listen right in your browser(in browser, requires Flash)
Click here to listen with your own player(launches your MP3 player)

EHAM 110055Z 32008KT 9999 FEW028 05/02 Q1023 NOSIG

EHAM Flight Activity (Flightaware)

Listeners: 0 out of 1200 total

Schiphol Outbound Planner: 121.655

EHAM Tow Traffic (Archives)
Amsterdam, Netherlands

Feed Status: UP
Listen in your browser - HTML5 player(in browser, HTML5)
Listen right in your browser(in browser, requires Flash)
Click here to listen with your own player(launches your MP3 player)

EHAM 110055Z 32008KT 9999 FEW028 05/02 Q1023 NOSIG

EHAM Flight Activity (Flightaware)

Listeners: 0 out of 1200 total

Schiphol Tow Traffic: 134.875

EHAM Tower (06/24) (Archives)
Amsterdam, Netherlands

Feed Status: UP
Listen in your browser - HTML5 player(in browser, HTML5)
Listen right in your browser(in browser, requires Flash)
Click here to listen with your own player(launches your MP3 player)

EHAM 110055Z 32008KT 9999 FEW028 05/02 Q1023 NOSIG

EHAM Flight Activity (Flightaware)

Listeners: 0 out of 1200 total

Schiphol Tower Main 06/24: 118.950

EHAM Tower (18C/36C-27/09) (Archives)
Amsterdam, Netherlands

Feed Status: UP
Listen in your browser - HTML5 player(in browser, HTML5)
Listen right in your browser(in browser, requires Flash)
Click here to listen with your own player(launches your MP3 player)

EHAM 110055Z 32008KT 9999 FEW028 05/02 Q1023 NOSIG

EHAM Flight Activity (Flightaware)

Listeners: 2 out of 1200 total

Schiphol Tower Main 18C/36C - 27/09: 118.100

EHAM Tower (18L/36R-22/04) (Archives)
Amsterdam, Netherlands

Feed Status: UP
Listen in your browser - HTML5 player(in browser, HTML5)
Listen right in your browser(in browser, requires Flash)
Click here to listen with your own player(launches your MP3 player)

EHAM 110055Z 32008KT 9999 FEW028 05/02 Q1023 NOSIG

EHAM Flight Activity (Flightaware)

Listeners: 1 out of 1200 total

Schiphol Tower Main 18L/36R - 22/04: 119.225

EHAM Tower Backup (Archives)
Amsterdam, Netherlands

Feed Status: UP
Listen in your browser - HTML5 player(in browser, HTML5)
Listen right in your browser(in browser, requires Flash)
Click here to listen with your own player(launches your MP3 player)

EHAM 110055Z 32008KT 9999 FEW028 05/02 Q1023 NOSIG

EHAM Flight Activity (Flightaware)

Listeners: 0 out of 1200 total

Schiphol Tower Backup: 119.905

EHAM Tower West (18R/36L) (Archives)
Amsterdam, Netherlands

Feed Status: UP
Listen in your browser - HTML5 player(in browser, HTML5)
Listen right in your browser(in browser, requires Flash)
Click here to listen with your own player(launches your MP3 player)

EHAM 110055Z 32008KT 9999 FEW028 05/02 Q1023 NOSIG

EHAM Flight Activity (Flightaware)

Listeners: 0 out of 1200 total

Schiphol Tower West 18R/36L: 118.280

EHBK Gnd/Twr/App (Archives)
Beek, Netherlands

Feed Status: UP
Listen in your browser - HTML5 player(in browser, HTML5)
Listen right in your browser(in browser, requires Flash)
Click here to listen with your own player(launches your MP3 player)

EHBK 110055Z AUTO 24005KT 210V290 9999 BKN034 OVC038 03/02 Q1024

EHBK Flight Activity (Flightaware)

Listeners: 0 out of 1200 total

Beek Approach: 120.200
Beek Approach: 123.975
Beek Ground: 121.825
Beek Tower: 119.475
Beek Tower: 119.700

MUAC/Eurocontrol Delta High (Archives)
Beek, Netherlands

Feed Status: UP
Listen in your browser - HTML5 player(in browser, HTML5)
Listen right in your browser(in browser, requires Flash)
Click here to listen with your own player(launches your MP3 player)

EHBK 110055Z AUTO 24005KT 210V290 9999 BKN034 OVC038 03/02 Q1024

EHBK Flight Activity (Flightaware)

Listeners: 0 out of 1200 total

MUAC Delta High Sector: 132.085

MUAC/Eurocontrol Koksy (Archives)
Beek, Netherlands

Feed Status: UP
Listen in your browser - HTML5 player(in browser, HTML5)
Listen right in your browser(in browser, requires Flash)
Click here to listen with your own player(launches your MP3 player)

EHBK 110055Z AUTO 24005KT 210V290 9999 BKN034 OVC038 03/02 Q1024

EHBK Flight Activity (Flightaware)

Listeners: 1 out of 1200 total

MUAC Koksy Sector: 132.205

MUAC/Eurocontrol Koksy High (Archives)
Beek, Netherlands

Feed Status: UP
Listen in your browser - HTML5 player(in browser, HTML5)
Listen right in your browser(in browser, requires Flash)
Click here to listen with your own player(launches your MP3 player)

EHBK 110055Z AUTO 24005KT 210V290 9999 BKN034 OVC038 03/02 Q1024

EHBK Flight Activity (Flightaware)

Listeners: 1 out of 1200 total

MUAC Koksy High Sector: 132.755

MUAC/Eurocontrol Lux High (Archives)
Beek, Netherlands

Feed Status: UP
Listen in your browser - HTML5 player(in browser, HTML5)
Listen right in your browser(in browser, requires Flash)
Click here to listen with your own player(launches your MP3 player)

EHBK 110055Z AUTO 24005KT 210V290 9999 BKN034 OVC038 03/02 Q1024

EHBK Flight Activity (Flightaware)

Listeners: 0 out of 1200 total

MUAC Lux High Sector: 132.315

MUAC/Eurocontrol Lux Low (Archives)
Beek, Netherlands

Feed Status: UP
Listen in your browser - HTML5 player(in browser, HTML5)
Listen right in your browser(in browser, requires Flash)
Click here to listen with your own player(launches your MP3 player)

EHBK 110055Z AUTO 24005KT 210V290 9999 BKN034 OVC038 03/02 Q1024

EHBK Flight Activity (Flightaware)

Listeners: 1 out of 1200 total

MUAC Lux Low Sector: 133.355

MUAC/Eurocontrol Olno Low (Archives)
Beek, Netherlands

Feed Status: UP
Listen in your browser - HTML5 player(in browser, HTML5)
Listen right in your browser(in browser, requires Flash)
Click here to listen with your own player(launches your MP3 player)

EHBK 110055Z AUTO 24005KT 210V290 9999 BKN034 OVC038 03/02 Q1024

EHBK Flight Activity (Flightaware)

Listeners: 1 out of 1200 total

MUAC Olno Low Sector: 132.855

MUAC/Eurocontrol Ruhr (Archives)
Beek, Netherlands

Feed Status: UP
Listen in your browser - HTML5 player(in browser, HTML5)
Listen right in your browser(in browser, requires Flash)
Click here to listen with your own player(launches your MP3 player)

EHBK 110055Z AUTO 24005KT 210V290 9999 BKN034 OVC038 03/02 Q1024

EHBK Flight Activity (Flightaware)

Listeners: 4 out of 1200 total

MUAC Ruhr Sector: 132.515

MUAC/Eurocontrol Sollingen High (Archives)
Beek, Netherlands

Feed Status: UP
Listen in your browser - HTML5 player(in browser, HTML5)
Listen right in your browser(in browser, requires Flash)
Click here to listen with your own player(launches your MP3 player)

EHBK 110055Z AUTO 24005KT 210V290 9999 BKN034 OVC038 03/02 Q1024

EHBK Flight Activity (Flightaware)

Listeners: 0 out of 1200 total

MUAC Sollingen High Sector: 131.380

EHEH Approach #1 (Archives)
Eindhoven, Netherlands

Feed Status: UP
Listen in your browser - HTML5 player(in browser, HTML5)
Listen right in your browser(in browser, requires Flash)
Click here to listen with your own player(launches your MP3 player)

EHEH 110055Z AUTO 25004KT 9999 BKN037 02/01 Q1024 BLU

EHEH Flight Activity (Flightaware)

Listeners: 0 out of 1200 total

Eindhoven Approach: 132.525
Eindhoven Arrival/Director: 124.525
Emergency/Guard: 121.500

EHEH Approach #2 (Archives)
Eindhoven, Netherlands

Feed Status: UP
Listen in your browser - HTML5 player(in browser, HTML5)
Listen right in your browser(in browser, requires Flash)
Click here to listen with your own player(launches your MP3 player)

EHEH 110055Z AUTO 25004KT 9999 BKN037 02/01 Q1024 BLU

EHEH Flight Activity (Flightaware)

Listeners: 0 out of 1200 total

Eindhoven Approach/Arrival: 124.530
Eindhoven Approach/Arrival: 132.530
Eindhoven Approach/Arrival: 278.050

EHEH Ground (Archives)
Eindhoven, Netherlands

Feed Status: UP
Listen in your browser - HTML5 player(in browser, HTML5)
Listen right in your browser(in browser, requires Flash)
Click here to listen with your own player(launches your MP3 player)

EHEH 110055Z AUTO 25004KT 9999 BKN037 02/01 Q1024 BLU

EHEH Flight Activity (Flightaware)

Listeners: 0 out of 1200 total

Eindhoven Ground: 121.930
Eindhoven Ground: 369.250

EHEH Tower #1 (Archives)
Eindhoven, Netherlands

Feed Status: UP
Listen in your browser - HTML5 player(in browser, HTML5)
Listen right in your browser(in browser, requires Flash)
Click here to listen with your own player(launches your MP3 player)

EHEH 110055Z AUTO 25004KT 9999 BKN037 02/01 Q1024 BLU

EHEH Flight Activity (Flightaware)

Listeners: 0 out of 1200 total

Budel Tower: 122.150
Eindhoven Tower: 131.005
Emergency/Guard: 121.500
Generic Tower: 122.100
Volkel Tower: 136.075

EHEH Tower #2 (Archives)
Eindhoven, Netherlands

Feed Status: UP
Listen in your browser - HTML5 player(in browser, HTML5)
Listen right in your browser(in browser, requires Flash)
Click here to listen with your own player(launches your MP3 player)

EHEH 110055Z AUTO 25004KT 9999 BKN037 02/01 Q1024 BLU

EHEH Flight Activity (Flightaware)

Listeners: 0 out of 1200 total

Eindhoven Tower: 122.100
Eindhoven Tower: 131.005
Eindhoven Tower: 281.150

EHGG Approach (Archives)
Groningen, Netherlands

Feed Status: UP
Listen in your browser - HTML5 player(in browser, HTML5)
Listen right in your browser(in browser, requires Flash)
Click here to listen with your own player(launches your MP3 player)

EHGG 110055Z AUTO 32007KT 9999 NCD 04/01 Q1020

EHGG Flight Activity (Flightaware)

Listeners: 0 out of 1200 total

Eelde Approach: 120.305

EHGG ATIS (Archives)
Groningen, Netherlands

Feed Status: UP
Listen in your browser - HTML5 player(in browser, HTML5)
Listen right in your browser(in browser, requires Flash)
Click here to listen with your own player(launches your MP3 player)

EHGG 110055Z AUTO 32007KT 9999 NCD 04/01 Q1020

EHGG Flight Activity (Flightaware)

Listeners: 0 out of 1200 total

Groningen ATIS: 133.555

EHGG Ground (Archives)
Groningen, Netherlands

Feed Status: UP
Listen in your browser - HTML5 player(in browser, HTML5)
Listen right in your browser(in browser, requires Flash)
Click here to listen with your own player(launches your MP3 player)

EHGG 110055Z AUTO 32007KT 9999 NCD 04/01 Q1020

EHGG Flight Activity (Flightaware)

Listeners: 0 out of 1200 total

Eelde Clearance Delivery/Ground: 121.705

EHGG Guard/Emergency (Archives)
Groningen, Netherlands

Feed Status: UP
Listen in your browser - HTML5 player(in browser, HTML5)
Listen right in your browser(in browser, requires Flash)
Click here to listen with your own player(launches your MP3 player)

EHGG 110055Z AUTO 32007KT 9999 NCD 04/01 Q1020

EHGG Flight Activity (Flightaware)

Listeners: 0 out of 1200 total

Emergency/Guard: 121.500

EHGG Tower (Archives)
Groningen, Netherlands

Feed Status: UP
Listen in your browser - HTML5 player(in browser, HTML5)
Listen right in your browser(in browser, requires Flash)
Click here to listen with your own player(launches your MP3 player)

EHGG 110055Z AUTO 32007KT 9999 NCD 04/01 Q1020

EHGG Flight Activity (Flightaware)

Listeners: 0 out of 1200 total

Eelde Tower: 118.705

MUAC/Eurocontrol (EHGG Area) (Archives)
Groningen, Netherlands

Feed Status: UP
Listen in your browser - HTML5 player(in browser, HTML5)
Listen right in your browser(in browser, requires Flash)
Click here to listen with your own player(launches your MP3 player)

EHGG 110055Z AUTO 32007KT 9999 NCD 04/01 Q1020

EHGG Flight Activity (Flightaware)

Listeners: 0 out of 1200 total

MUAC Holstein High Sector: 132.775
MUAC Holstein Sector: 120.9333
MUAC Javer High Sector: 134.700
MUAC Jever Sector: 136.4666

EHGR Twr/TMA/App (Archives)
Breda, Netherlands

Feed Status: UP
Listen in your browser - HTML5 player(in browser, HTML5)
Listen right in your browser(in browser, requires Flash)
Click here to listen with your own player(launches your MP3 player)

EHGR 110055Z AUTO 24004KT 230V290 9999 FEW040 02/01 Q1024 BLU

EHGR Flight Activity (Flightaware)

Listeners: 0 out of 1200 total

Gilze Rijen Arrival U09 (UHF): 373.375
Gilze Rijen TMA D U16 (UHF) : 371.525
Gilze Rijen Tower U12 (UHF): 369.500

EHGR Mode-S Tracking
EHEH Mode-S Tracking

EHHV CTAF (Archives)
Hilversum, Netherlands

Feed Status: UP
Listen in your browser - HTML5 player(in browser, HTML5)
Listen right in your browser(in browser, requires Flash)
Click here to listen with your own player(launches your MP3 player)

EHHV Flight Activity (Flightaware)

Listeners: 0 out of 1200 total

Hilversum Radio: 131.025

Dutch Mil Radar (Archives)
Lelystad, Netherlands

Feed Status: UP
Listen in your browser - HTML5 player(in browser, HTML5)
Listen right in your browser(in browser, requires Flash)
Click here to listen with your own player(launches your MP3 player)

EHLE Flight Activity (Flightaware)

Listeners: 0 out of 1200 total

Dutch Mil Flight Info: 264.325
Dutch Mil Radar: 128.355
Dutch Mil Radar: 132.350

EHLE Air to Air (Archives)
Lelystad, Netherlands

Feed Status: UP
Listen in your browser - HTML5 player(in browser, HTML5)
Listen right in your browser(in browser, requires Flash)
Click here to listen with your own player(launches your MP3 player)

EHLE Flight Activity (Flightaware)

Listeners: 0 out of 1200 total

Lelystad Air to Air: 123.450

EHLE Fokker Four (Archives)
Lelystad, Netherlands

Feed Status: UP
Listen in your browser - HTML5 player(in browser, HTML5)
Listen right in your browser(in browser, requires Flash)
Click here to listen with your own player(launches your MP3 player)

EHLE Flight Activity (Flightaware)

Listeners: 0 out of 1200 total

Lelystad Fokker Four: 123.525

EHLE Microlight Aircraft (Archives)
Lelystad, Netherlands

Feed Status: UP
Listen in your browser - HTML5 player(in browser, HTML5)
Listen right in your browser(in browser, requires Flash)
Click here to listen with your own player(launches your MP3 player)

EHLE Flight Activity (Flightaware)

Listeners: 0 out of 1200 total

Lelystad Microlight Aircraft: 123.825

EHLE Radio (Archives)
Lelystad, Netherlands

Feed Status: UP
Listen in your browser - HTML5 player(in browser, HTML5)
Listen right in your browser(in browser, requires Flash)
Click here to listen with your own player(launches your MP3 player)

EHLE Flight Activity (Flightaware)

Listeners: 0 out of 1200 total

Lelystad Radio: 123.675

EHMC/EHML Military/Radar
Nieuw-Milligen, Netherlands

Feed Status: DOWN
Offline since: 2018-12-11 01:27:02 UTC

AMCC: 234.000
Belga Radar: 129.325
Command Post: 313.550
Dutch Military Radar: 120.825
Dutch Military Radar: 125.925
Dutch Military Radar: 128.350
GCI: 363.100
Lippe Radar: 131.075
London Mil: 135.275
Meteo: 284.425

Military Mode-S Logs
REACH Flights Europe Mode-S Logs
NOTE: Due to receiver distance only aircraft can be heard

EHMC/EHML Military/Radar (Archives)
Nieuw-Milligen, Netherlands

Feed Status: UP
Listen in your browser - HTML5 player(in browser, HTML5)
Listen right in your browser(in browser, requires Flash)
Click here to listen with your own player(launches your MP3 player)

EHMC Flight Activity (Flightaware)

Listeners: 0 out of 1200 total

AMCC: 234.000
Belga Radar: 129.325
Command Post: 313.550
Dutch Military Radar: 120.825
Dutch Military Radar: 125.925
Dutch Military Radar: 128.350
GCI: 363.100
Lippe Radar: 131.075
London Mil: 135.275
Meteo: 284.425

Military Mode-S Logs
REACH Flights Europe Mode-S Logs
NOTE: Due to receiver distance only aircraft can be heard

EHMM CTAF (Archives)
Middenmeer, Netherlands

Feed Status: UP
Listen in your browser - HTML5 player(in browser, HTML5)
Listen right in your browser(in browser, requires Flash)
Click here to listen with your own player(launches your MP3 player)

EHMM Flight Activity (Flightaware)

Listeners: 0 out of 1200 total

Middenmeer CTAF: 123.425

EHRD Approach (Archives)
Rotterdam, Netherlands

Feed Status: UP
Listen in your browser - HTML5 player(in browser, HTML5)
Listen right in your browser(in browser, requires Flash)
Click here to listen with your own player(launches your MP3 player)

EHRD 110055Z AUTO 30008KT 9999 SCT043 05/01 Q1024 NOSIG

EHRD Flight Activity (Flightaware)

Listeners: 0 out of 1200 total

Rotterdam Approach: 124.535
Rotterdam Approach: 281.050

EHRD Clearance Delivery (Archives)
Rotterdam, Netherlands

Feed Status: UP
Listen in your browser - HTML5 player(in browser, HTML5)
Listen right in your browser(in browser, requires Flash)
Click here to listen with your own player(launches your MP3 player)

EHRD 110055Z AUTO 30008KT 9999 SCT043 05/01 Q1024 NOSIG

EHRD Flight Activity (Flightaware)

Listeners: 0 out of 1200 total

Rotterdam Del/Gnd: 122.180

EHRD Del/Twr (Archives)
Rotterdam, Netherlands

Feed Status: UP
Listen in your browser - HTML5 player(in browser, HTML5)
Listen right in your browser(in browser, requires Flash)
Click here to listen with your own player(launches your MP3 player)

EHRD 110055Z AUTO 30008KT 9999 SCT043 05/01 Q1024 NOSIG

EHRD Flight Activity (Flightaware)

Listeners: 0 out of 1200 total

Rotterdam Del/Gnd: 122.180
Rotterdam Tower: 118.205

EHRD Gnd/Twr/App (Archives)
Rotterdam, Netherlands

Feed Status: UP
Listen in your browser - HTML5 player(in browser, HTML5)
Listen right in your browser(in browser, requires Flash)
Click here to listen with your own player(launches your MP3 player)

EHRD 110055Z AUTO 30008KT 9999 SCT043 05/01 Q1024 NOSIG

EHRD Flight Activity (Flightaware)

Listeners: 1 out of 1200 total

Adam Info: 124.300
Regional Guard: 119.705
Rotterdam Approach: 127.025
Rotterdam Del/Gnd: 122.180
Rotterdam Tower: 118.205
SAR: 123.100
SAR: 282.800

EHRD Tower (Archives)
Rotterdam, Netherlands

Feed Status: UP
Listen in your browser - HTML5 player(in browser, HTML5)
Listen right in your browser(in browser, requires Flash)
Click here to listen with your own player(launches your MP3 player)

EHRD 110055Z AUTO 30008KT 9999 SCT043 05/01 Q1024 NOSIG

EHRD Flight Activity (Flightaware)

Listeners: 0 out of 1200 total

Rotterdam Tower: 118.205
Rotterdam Tower: 362.300

EHRD Twr/App
Rotterdam, Netherlands

Feed Status: DOWN
Offline since: 2018-12-10 20:15:02 UTC

EHRD 110055Z AUTO 30008KT 9999 SCT043 05/01 Q1024 NOSIG

Rotterdam Approach: 127.025
Rotterdam Tower: 118.205

EHRD ADS-B Logs

EHTX Gnd/Twr (Archives)
Texel, Netherlands

Feed Status: UP
Listen in your browser - HTML5 player(in browser, HTML5)
Listen right in your browser(in browser, requires Flash)
Click here to listen with your own player(launches your MP3 player)

EHTX Flight Activity (Flightaware)

Listeners: 0 out of 1200 total

Texel Radio (Ground/Tower): 119.300

EHVL CTAF/Range Control (Archives)
Vlieland, Netherlands

Feed Status: UP
Listen in your browser - HTML5 player(in browser, HTML5)
Listen right in your browser(in browser, requires Flash)
Click here to listen with your own player(launches your MP3 player)

EHVL 110055Z AUTO 32024KT 7000 -RA FEW015CB SCT025 BKN031 07/04 Q1022 WHT

EHVL Flight Activity (Flightaware)

Listeners: 0 out of 1200 total

Cornfield VHF (CTAF): 122.100
Range Controller (Primary): 279.000
Range Controller (Secondary): 369.200
Range Controller VHF: 138.075

EICK Approach/Departure (Archives)
Cork, Ireland

Feed Status: UP
Listen in your browser - HTML5 player(in browser, HTML5)
Listen right in your browser(in browser, requires Flash)
Click here to listen with your own player(launches your MP3 player)

EICK 110030Z 17009KT 1500 R16/P2000 R34/P2000 -DZ FEW001 BKN002 BKN003 09/09 Q1022 TEMPO 0800 FG BKN001

EICK Flight Activity (Flightaware)

Listeners: 0 out of 1200 total

Cork Approach: 119.900

EICK Gnd/Twr/App/Dep (Archives)
Cork, Ireland

Feed Status: UP
Listen in your browser - HTML5 player(in browser, HTML5)
Listen right in your browser(in browser, requires Flash)
Click here to listen with your own player(launches your MP3 player)

EICK 110030Z 17009KT 1500 R16/P2000 R34/P2000 -DZ FEW001 BKN002 BKN003 09/09 Q1022 TEMPO 0800 FG BKN001

EICK Flight Activity (Flightaware)

Listeners: 0 out of 1200 total

Cork Approach: 119.900
Cork Ground: 121.850
Cork Tower: 119.300

EICK Ground/Tower (Archives)
Cork, Ireland

Feed Status: UP
Listen in your browser - HTML5 player(in browser, HTML5)
Listen right in your browser(in browser, requires Flash)
Click here to listen with your own player(launches your MP3 player)

EICK 110030Z 17009KT 1500 R16/P2000 R34/P2000 -DZ FEW001 BKN002 BKN003 09/09 Q1022 TEMPO 0800 FG BKN001

EICK Flight Activity (Flightaware)

Listeners: 0 out of 1200 total

Cork Ground: 121.850
Cork Tower: 119.300

EIDW Approach (Archives)
Dublin, Ireland

Feed Status: UP
Listen in your browser - HTML5 player(in browser, HTML5)
Listen right in your browser(in browser, requires Flash)
Click here to listen with your own player(launches your MP3 player)

EIDW 110030Z VRB02KT CAVOK 03/02 Q1022 NOSIG

EIDW Flight Activity (Flightaware)

Listeners: 0 out of 1200 total

Dublin Approach: 121.100

EIDW Approach (Final) (Archives)
Dublin, Ireland

Feed Status: UP
Listen in your browser - HTML5 player(in browser, HTML5)
Listen right in your browser(in browser, requires Flash)
Click here to listen with your own player(launches your MP3 player)

EIDW 110030Z VRB02KT CAVOK 03/02 Q1022 NOSIG

EIDW Flight Activity (Flightaware)

Listeners: 0 out of 1200 total

Dublin Approach (Final): 119.925

EIDW Clearance Delivery (Archives)
Dublin, Ireland

Feed Status: UP
Listen in your browser - HTML5 player(in browser, HTML5)
Listen right in your browser(in browser, requires Flash)
Click here to listen with your own player(launches your MP3 player)

EIDW 110030Z VRB02KT CAVOK 03/02 Q1022 NOSIG

EIDW Flight Activity (Flightaware)

Listeners: 0 out of 1200 total

Dublin Clearance Delivery: 121.875

EIDW Del/Gnd/Twr/App/Center (Archives)
Dublin, Ireland

Feed Status: UP
Listen in your browser - HTML5 player(in browser, HTML5)
Listen right in your browser(in browser, requires Flash)
Click here to listen with your own player(launches your MP3 player)

EIDW 110030Z VRB02KT CAVOK 03/02 Q1022 NOSIG

EIDW Flight Activity (Flightaware)

Listeners: 10 out of 1200 total

Dublin Approach: 121.100
Dublin Approach (backup): 119.550
Dublin Centre North: 129.175
Dublin Centre South: 126.250
Dublin Clearance Delivery: 121.875
Dublin FIS: 118.500
Dublin Ground: 121.800
Dublin Tower: 118.600

EIDW Ground (Archives)
Dublin, Ireland

Feed Status: UP
Listen in your browser - HTML5 player(in browser, HTML5)
Listen right in your browser(in browser, requires Flash)
Click here to listen with your own player(launches your MP3 player)

EIDW 110030Z VRB02KT CAVOK 03/02 Q1022 NOSIG

EIDW Flight Activity (Flightaware)

Listeners: 0 out of 1200 total

Dublin Ground: 121.800

EIDW Ground (North) (Archives)
Dublin, Ireland

Feed Status: UP
Listen in your browser - HTML5 player(in browser, HTML5)
Listen right in your browser(in browser, requires Flash)
Click here to listen with your own player(launches your MP3 player)

EIDW 110030Z VRB02KT CAVOK 03/02 Q1022 NOSIG

EIDW Flight Activity (Flightaware)

Listeners: 0 out of 1200 total

Dublin Ground (North): 118.750

EIDW Ops
Dublin, Ireland

Feed Status: DOWN
Offline since: 2018-12-10 23:09:01 UTC

EIDW 110030Z VRB02KT CAVOK 03/02 Q1022 NOSIG

Misc:

EIDW Tower (Archives)
Dublin, Ireland

Feed Status: UP
Listen in your browser - HTML5 player(in browser, HTML5)
Listen right in your browser(in browser, requires Flash)
Click here to listen with your own player(launches your MP3 player)

EIDW 110030Z VRB02KT CAVOK 03/02 Q1022 NOSIG

EIDW Flight Activity (Flightaware)

Listeners: 0 out of 1200 total

Dublin Tower: 118.600

EIKN Gnd/Twr/App (Archives)
Charlestown, Ireland

Feed Status: UP
Listen in your browser - HTML5 player(in browser, HTML5)
Listen right in your browser(in browser, requires Flash)
Click here to listen with your own player(launches your MP3 player)

EIKN 101930Z 17008KT 140V210 0800 -DZ FG OVC002 09/09 Q1021 NOSIG

EIKN Flight Activity (Flightaware)

Listeners: 0 out of 1200 total

Connaught Ground: 121.900
Connaught Tower: 130.700
Shannon Low Level: 119.075

Special Note: Sponsored by CAC

EINN Approach/Departure
Shannon, Ireland

Feed Status: DOWN
Offline since: 2018-12-05 08:43:03 UTC

EINN 110030Z 13012KT 9999 BKN011 10/08 Q1021 NOSIG

Shannon Approach Radar: 121.400
Shannon Low: 124.700

EINN Gnd/Twr/Ops
Shannon, Ireland

Feed Status: DOWN
Offline since: 2018-12-05 08:43:03 UTC

EINN 110030Z 13012KT 9999 BKN011 10/08 Q1021 NOSIG

Aer Lingus Ops: 131.500
Service Air Ops: 131.450
Shannon Ground: 121.800
Shannon Tower: 118.700
Sig Ops (Pre-Clearance): 131.590

EINN Shannon Control High #1
Shannon, Ireland

Feed Status: DOWN
Offline since: 2018-12-05 08:43:03 UTC

EINN 110030Z 13012KT 9999 BKN011 10/08 Q1021 NOSIG

Shannon Clearance (Oceanic only): 121.700
Shannon Control: 134.630
Shannon Control: 134.260
Shannon Control: 119.075
Shannon Control (BABAN/DEVOL Sector): 132.150
Shannon Control (Cork Sector): 131.150
Shannon Control (Shannon Sector): 134.280
Shannon Control (SOTA Sector): 135.600
Shannon Control NOTA: 125.875
Shannon Control NOTA: 122.980
Shannon High Level (SOTA Sector): 135.230
Shanwick Radio: 127.650
Track Information: 133.800

EINN Twr/App #1 (Archives)
Shannon, Ireland

Feed Status: UP
Listen in your browser - HTML5 player(in browser, HTML5)
Listen right in your browser(in browser, requires Flash)
Click here to listen with your own player(launches your MP3 player)

EINN 110030Z 13012KT 9999 BKN011 10/08 Q1021 NOSIG

EINN Flight Activity (Flightaware)

Listeners: 1 out of 1200 total

Aer Lingus Ops: 131.500
Service Air Ops: 131.450
Shannon Approach Radar: 121.400
Shannon Control: Misc
Shannon Ground: 121.800
Shannon Tower: 118.700
Sig Ops (Pre-Clearance): 131.590

EKBI/EKVD Approach
Vamdrup, Denmark

Feed Status: DOWN
Offline since: 2016-05-10 18:24:04 UTC

EKBI 110050Z AUTO 31008KT 9999 NCD 03/M00 Q1013

Billund Approach: 127.575
Skrydstrup Approach: 127.475
Vamdrup AFIS: 120.500

ENAT Twr/App/Control (Archives)
Alta, Norway

Feed Status: UP
Listen in your browser - HTML5 player(in browser, HTML5)
Listen right in your browser(in browser, requires Flash)
Click here to listen with your own player(launches your MP3 player)

ENAT 110050Z AUTO 19003KT 9999 OVC015/// M07/M08 Q1019 RMK WIND 700FT 19003KT

ENAT Flight Activity (Flightaware)

Listeners: 0 out of 1200 total

Alta Tower (to boat, Harbour Channel 12): 156.600
Alta Tower (to vehicle): 462.400
Alta Tower/Approach: 120.400
Norway Control: 126.700

ENBO Approach (Archives)
Bodo, Norway

Feed Status: UP
Listen in your browser - HTML5 player(in browser, HTML5)
Listen right in your browser(in browser, requires Flash)
Click here to listen with your own player(launches your MP3 player)

ENBO 110050Z 06006KT 9999 FEW008 BKN060 00/M01 Q1017

ENBO Flight Activity (Flightaware)

Listeners: 0 out of 1200 total

Bodo Approach: 119.700

ENBO Tower (Archives)
Bodo, Norway

Feed Status: UP
Listen in your browser - HTML5 player(in browser, HTML5)
Listen right in your browser(in browser, requires Flash)
Click here to listen with your own player(launches your MP3 player)

ENBO 110050Z 06006KT 9999 FEW008 BKN060 00/M01 Q1017

ENBO Flight Activity (Flightaware)

Listeners: 0 out of 1200 total

Bodo Tower: 118.100

ENCN Tower/Approach (Archives)
Kristiansand, Norway

Feed Status: UP
Listen in your browser - HTML5 player(in browser, HTML5)
Listen right in your browser(in browser, requires Flash)
Click here to listen with your own player(launches your MP3 player)

ENCN 110050Z AUTO 33011KT 9999 NCD 04/M06 Q1015

ENCN Flight Activity (Flightaware)

Listeners: 0 out of 1200 total

Kjevik Tower: 118.100
Kjevik Tower/Approach: 119.950

ENEV Twr/App/ACC (Archives)
Evenes, Norway

Feed Status: UP
Listen in your browser - HTML5 player(in browser, HTML5)
Listen right in your browser(in browser, requires Flash)
Click here to listen with your own player(launches your MP3 player)

ENEV 110050Z AUTO 00000KT 9999 FEW057/// M06/M07 Q1018 RMK WIND 1400FT 05008KT

ENEV Flight Activity (Flightaware)

Listeners: 0 out of 1200 total

Evenes Approach: 120.100
Evenes Tower: 118.000
Norway ACC (Bodo Sector 25): 126.450

ENGM Approach (Archives)
Oslo, Norway

Feed Status: UP
Listen in your browser - HTML5 player(in browser, HTML5)
Listen right in your browser(in browser, requires Flash)
Click here to listen with your own player(launches your MP3 player)

ENGM 110050Z 36012KT CAVOK 04/M03 Q1013

ENGM Flight Activity (Flightaware)

Listeners: 1 out of 1200 total

Oslo Approach: 118.475
Oslo Approach: 120.450

ENKJ RDO (Archives)
Kjeller, Norway

Feed Status: UP
Listen in your browser - HTML5 player(in browser, HTML5)
Listen right in your browser(in browser, requires Flash)
Click here to listen with your own player(launches your MP3 player)

ENKJ Flight Activity (Flightaware)

Listeners: 0 out of 1200 total

Kjeller RDO: 119.100

ENLI CTAF (Archives)
Farsund, Norway

Feed Status: UP
Listen in your browser - HTML5 player(in browser, HTML5)
Listen right in your browser(in browser, requires Flash)
Click here to listen with your own player(launches your MP3 player)

ENLI Flight Activity (Flightaware)

Listeners: 0 out of 1200 total

Lista Traffic/Lista Radio: 126.450

ENRK CTAF
Astorp, Norway

Feed Status: DOWN
Offline since: 2018-12-10 15:31:03 UTC

Rakkestad CTAF: 122.950

ENOR Sector 8 (Archives)
Moss, Norway

Feed Status: UP
Listen in your browser - HTML5 player(in browser, HTML5)
Listen right in your browser(in browser, requires Flash)
Click here to listen with your own player(launches your MP3 player)

ENOR Flight Activity (Flightaware)

Listeners: 0 out of 1200 total

Norway Center (FIR) Sector 8: 118.875

ENRY Tower (Archives)
Moss, Norway

Feed Status: UP
Listen in your browser - HTML5 player(in browser, HTML5)
Listen right in your browser(in browser, requires Flash)
Click here to listen with your own player(launches your MP3 player)

ENRY 110050Z AUTO 34009KT 9999NDV OVC053/// 04/M03 Q1013

ENRY Flight Activity (Flightaware)

Listeners: 0 out of 1200 total

Rygge Tower: 119.500

ENSO AFIS (Archives)
Stord, Norway

Feed Status: UP
Listen in your browser - HTML5 player(in browser, HTML5)
Listen right in your browser(in browser, requires Flash)
Click here to listen with your own player(launches your MP3 player)

ENSO 101750Z 34014KT 9999 FEW035 05/01 Q1016

ENSO Flight Activity (Flightaware)

Listeners: 0 out of 1200 total

Stord AFIS: 120.200

Feed sponsored by:

ENTC Tower/App (Archives)
Langnes, Norway

Feed Status: UP
Listen in your browser - HTML5 player(in browser, HTML5)
Listen right in your browser(in browser, requires Flash)
Click here to listen with your own player(launches your MP3 player)

ENTC 110020Z 11003KT 9999 NSC M05/M06 Q1018 RMK WIND 2600FT VRB02KT

ENTC Flight Activity (Flightaware)

Listeners: 0 out of 1200 total

Langnes Tower: 118.300
Langnes VDF (Approach): 123.750

ENTO Tower/App (Archives)
Sandefjord, Norway

Feed Status: UP
Listen in your browser - HTML5 player(in browser, HTML5)
Listen right in your browser(in browser, requires Flash)
Click here to listen with your own player(launches your MP3 player)

ENTO 110050Z AUTO 36015KT 9999 OVC049/// 04/M04 Q1013

ENTO Flight Activity (Flightaware)

Listeners: 2 out of 1200 total

ENJB Tonsberg Airport - Jarlsberg - CTAF: 122.300
Farris Approach (TCA): 134.050
Sandefjord Tower: 118.650

ENVA Gnd/Twr/App (Archives)
Trondheim, Norway

Feed Status: UP
Listen in your browser - HTML5 player(in browser, HTML5)
Listen right in your browser(in browser, requires Flash)
Click here to listen with your own player(launches your MP3 player)

ENVA 110050Z 31010KT 9999 SCT026 BKN043 03/01 Q1018 RMK WIND 670FT 31014KT

ENVA Flight Activity (Flightaware)

Listeners: 0 out of 1200 total

Trondheim Approach: 118.600
Trondheim Ground: 121.600
Trondheim Tower: 119.400

EPCD Radio
Lublin, Poland

Feed Status: DOWN
Offline since: 2018-12-01 13:09:03 UTC

Depultycze Radio: 119.575

EPGD Tower/Approach (Archives)
Gdansk, Poland

Feed Status: UP
Listen in your browser - HTML5 player(in browser, HTML5)
Listen right in your browser(in browser, requires Flash)
Click here to listen with your own player(launches your MP3 player)

EPGD 110030Z 23009KT 9999 -SHRA FEW006 BKN009 02/01 Q1002

EPGD Flight Activity (Flightaware)

Listeners: 95 out of 1200 total

Gdansk Approach: 127.275
Gdansk Tower: 118.100

EPKK Tower/App (Archives)
Krakow, Poland

Feed Status: UP
Listen in your browser - HTML5 player(in browser, HTML5)
Listen right in your browser(in browser, requires Flash)
Click here to listen with your own player(launches your MP3 player)

EPKK 110030Z 23007KT 9999 FEW020TCU BKN033 01/M00 Q1010 R25/51//95

EPKK Flight Activity (Flightaware)

Listeners: 1 out of 1200 total

Krakow Approach: 121.075
Krakow Approach: 123.258
Krakow Tower: 123.250

EPKR CTAF (Archives)
Krosno, Poland

Feed Status: UP
Listen in your browser - HTML5 player(in browser, HTML5)
Listen right in your browser(in browser, requires Flash)
Click here to listen with your own player(launches your MP3 player)

EPKR Flight Activity (Flightaware)

Listeners: 0 out of 1200 total

Krosno CTAF: 122.400

EPKT Del/Twr/App (Archives)
Katowice, Poland

Feed Status: UP
Listen in your browser - HTML5 player(in browser, HTML5)
Listen right in your browser(in browser, requires Flash)
Click here to listen with your own player(launches your MP3 player)

EPKT 110030Z 23009KT 9999 SCT008 BKN010 01/M01 Q1009

EPKT Flight Activity (Flightaware)

Listeners: 0 out of 1200 total

Katowice Delivery: 121.800
Katowice Tower: 129.250
Krakow Approach: 135.400
Krakow Approach: 121.075

EPKT Delivery/Approach (Archives)
Katowice, Poland

Feed Status: UP
Listen in your browser - HTML5 player(in browser, HTML5)
Listen right in your browser(in browser, requires Flash)
Click here to listen with your own player(launches your MP3 player)

EPKT 110030Z 23009KT 9999 SCT008 BKN010 01/M01 Q1009

EPKT Flight Activity (Flightaware)

Listeners: 0 out of 1200 total

Katowice Delivery: 121.800
Krakow Approach: 121.075

EPKT Tower/Approach (Archives)
Katowice, Poland

Feed Status: UP
Listen in your browser - HTML5 player(in browser, HTML5)
Listen right in your browser(in browser, requires Flash)
Click here to listen with your own player(launches your MP3 player)

EPKT 110030Z 23009KT 9999 SCT008 BKN010 01/M01 Q1009

EPKT Flight Activity (Flightaware)

Listeners: 1 out of 1200 total

Katowice Tower: 129.250
Krakow Approach: 135.400

EPLL Tower (Archives)
Lodz, Poland

Feed Status: UP
Listen in your browser - HTML5 player(in browser, HTML5)
Listen right in your browser(in browser, requires Flash)
Click here to listen with your own player(launches your MP3 player)

EPLL 110030Z 24007KT 9999 BKN012 02/00 Q1007

EPLL Flight Activity (Flightaware)

Listeners: 0 out of 1200 total

Lodz Tower: 124.225

EPPO Twr/App/FIS (Archives)
Poznan, Poland

Feed Status: UP
Listen in your browser - HTML5 player(in browser, HTML5)
Listen right in your browser(in browser, requires Flash)
Click here to listen with your own player(launches your MP3 player)

EPPO 110030Z 26008KT 9999 -SHRA BKN007 BKN010CB 03/02 Q1006 R10/290095

EPPO Flight Activity (Flightaware)

Listeners: 1 out of 1200 total

Poznan Approach: 129.025
Poznan Approach: 127.225
Poznan FIS: 126.300
Poznan Tower: 119.975

Sponsored by: GearUp!

EPRZ Del/Twr/EPWW Radar (Archives)
Jasionka, Poland

Feed Status: UP
Listen in your browser - HTML5 player(in browser, HTML5)
Listen right in your browser(in browser, requires Flash)
Click here to listen with your own player(launches your MP3 player)

EPRZ 110030Z 25009KT 9999 SCT012 BKN030 01/M00 Q1009

EPRZ Flight Activity (Flightaware)

Listeners: 0 out of 1200 total

EPWW Radar: 134.175
EPWW Radar: 120.950
Rzeszow Delivery: 121.800
Rzeszow Tower: 126.800

EPWA Approach #1 (Archives)
Warsaw, Poland

Feed Status: UP
Listen in your browser - HTML5 player(in browser, HTML5)
Listen right in your browser(in browser, requires Flash)
Click here to listen with your own player(launches your MP3 player)

EPWA 110030Z 26007KT 230V290 9999 BKN015 03/01 Q1007 NOSIG

EPWA Flight Activity (Flightaware)

Listeners: 3 out of 1200 total

Warsaw Approach: 128.800

EPWA Approach #2 (Archives)
Warsaw, Poland

Feed Status: UP
Listen in your browser - HTML5 player(in browser, HTML5)
Listen right in your browser(in browser, requires Flash)
Click here to listen with your own player(launches your MP3 player)

EPWA 110030Z 26007KT 230V290 9999 BKN015 03/01 Q1007 NOSIG

EPWA Flight Activity (Flightaware)

Listeners: 1 out of 1200 total

Warsaw Approach: 125.050

EPWA Clearance Delivery (Archives)
Warsaw, Poland

Feed Status: UP
Listen in your browser - HTML5 player(in browser, HTML5)
Listen right in your browser(in browser, requires Flash)
Click here to listen with your own player(launches your MP3 player)

EPWA 110030Z 26007KT 230V290 9999 BKN015 03/01 Q1007 NOSIG

EPWA Flight Activity (Flightaware)

Listeners: 0 out of 1200 total

Warsaw Clearance Delivery: 121.600

EPWA Director (Archives)
Warsaw, Poland

Feed Status: UP
Listen in your browser - HTML5 player(in browser, HTML5)
Listen right in your browser(in browser, requires Flash)
Click here to listen with your own player(launches your MP3 player)

EPWA 110030Z 26007KT 230V290 9999 BKN015 03/01 Q1007 NOSIG

EPWA Flight Activity (Flightaware)

Listeners: 0 out of 1200 total

Warsaw Director: 129.375

EPWA Ground (Archives)
Warsaw, Poland

Feed Status: UP
Listen in your browser - HTML5 player(in browser, HTML5)
Listen right in your browser(in browser, requires Flash)
Click here to listen with your own player(launches your MP3 player)

EPWA 110030Z 26007KT 230V290 9999 BKN015 03/01 Q1007 NOSIG

EPWA Flight Activity (Flightaware)

Listeners: 0 out of 1200 total

Warsaw Ground: 121.900

EPWA Tower #1 (Archives)
Warsaw, Poland

Feed Status: UP
Listen in your browser - HTML5 player(in browser, HTML5)
Listen right in your browser(in browser, requires Flash)
Click here to listen with your own player(launches your MP3 player)

EPWA 110030Z 26007KT 230V290 9999 BKN015 03/01 Q1007 NOSIG

EPWA Flight Activity (Flightaware)

Listeners: 0 out of 1200 total

Warsaw Tower: 118.300

EPWA Tower #2 (Archives)
Warsaw, Poland

Feed Status: UP
Listen in your browser - HTML5 player(in browser, HTML5)
Listen right in your browser(in browser, requires Flash)
Click here to listen with your own player(launches your MP3 player)

EPWA 110030Z 26007KT 230V290 9999 BKN015 03/01 Q1007 NOSIG

EPWA Flight Activity (Flightaware)

Listeners: 0 out of 1200 total

Warsaw Tower: 118.300

Audio provided by: datahouse.pl

EPWR Tower (Archives)
Wroclaw, Poland

Feed Status: UP
Listen in your browser - HTML5 player(in browser, HTML5)
Listen right in your browser(in browser, requires Flash)
Click here to listen with your own player(launches your MP3 player)

EPWR 110030Z 27011KT 9999 -SHRA FEW005 SCT007 BKN016CB 02/01 Q1009

EPWR Flight Activity (Flightaware)

Listeners: 0 out of 1200 total

Wroclaw Tower: 120.250

EPWR Twr/App (Archives)
Wroclaw, Poland

Feed Status: UP
Listen in your browser - HTML5 player(in browser, HTML5)
Listen right in your browser(in browser, requires Flash)
Click here to listen with your own player(launches your MP3 player)

EPPO 110030Z 26008KT 9999 -SHRA BKN007 BKN010CB 03/02 Q1006 R10/290095

EPPO Flight Activity (Flightaware)

Listeners: 0 out of 1200 total

Poznan Approach (South): 127.225

EPWS AFIS (Archives)
Wroclaw, Poland

Feed Status: UP
Listen in your browser - HTML5 player(in browser, HTML5)
Listen right in your browser(in browser, requires Flash)
Click here to listen with your own player(launches your MP3 player)

EPWS Flight Activity (Flightaware)

Listeners: 0 out of 1200 total

Szymanow Radio AFIS: 122.800

EPRZ Del/Twr/EPWW Radar (Archives)
Jasionka, Poland

Feed Status: UP
Listen in your browser - HTML5 player(in browser, HTML5)
Listen right in your browser(in browser, requires Flash)
Click here to listen with your own player(launches your MP3 player)

EPRZ 110030Z 25009KT 9999 SCT012 BKN030 01/M00 Q1009

EPRZ Flight Activity (Flightaware)

Listeners: 0 out of 1200 total

EPWW Radar: 134.175
EPWW Radar: 120.950
Rzeszow Delivery: 121.800
Rzeszow Tower: 126.800

ESDF Twr/Control/Misc
Ronneby, Sweden

Feed Status: DOWN
Offline since: 2018-11-30 17:23:02 UTC

ESDF 110050Z AUTO 01007KT 9999 FEW013/// BKN035/// OVC042/// 01/M00 Q1004

Cooperative Emergency Channel: 123.100
Emergency/Guard: 121.500
Marine Channel 16 (Emergency): 156.800
Ronneby Control: 128.450
Ronneby Tower: 119.200

ESGG Gnd/Twr/Control (Archives)
Gothenburg, Sweden

Feed Status: UP
Listen in your browser - HTML5 player(in browser, HTML5)
Listen right in your browser(in browser, requires Flash)
Click here to listen with your own player(launches your MP3 player)

ESGG 110050Z 36012KT 9999 OVC009 01/M01 Q1008 R03/19//95

ESGG Flight Activity (Flightaware)

Listeners: 0 out of 1200 total

City Airport Ops: 130.850
City Airport Tower: 119.050
Emergency/Guard: 121.500
Goteborg Arrival: 120.125
Goteborg Control: 124.675
Goteborg Control: 124.200
Landvetter Ground: 121.900
Landvetter Tower: 118.600

ESML CTAF
Landskrona, Sweden

Feed Status: DOWN
Offline since: 2018-10-12 08:32:02 UTC

Landskrona CTAF: 123.350
Sweden Control: 134.975

ESML Webcam
ESML Weather

ESMS Tower (Archives)
Svedala, Sweden

Feed Status: UP
Listen in your browser - HTML5 player(in browser, HTML5)
Listen right in your browser(in browser, requires Flash)
Click here to listen with your own player(launches your MP3 player)

ESMS 110050Z 34014KT 9999 BKN015 BKN019 OVC024 03/01 Q1005 R17/25//95

ESMS Flight Activity (Flightaware)

Listeners: 0 out of 1200 total

Malmo Tower: 118.800

ESPA Twr/Control (Archives)
Lulea, Sweden

Feed Status: UP
Listen in your browser - HTML5 player(in browser, HTML5)
Listen right in your browser(in browser, requires Flash)
Click here to listen with your own player(launches your MP3 player)

ESPA 110050Z AUTO 36007KT 9999 FEW011/// OVC120/// M02/M03 Q1014

ESPA Flight Activity (Flightaware)

Listeners: 0 out of 1200 total

Emergency/Guard: 121.500
Kallax Control: 125.450
Kallax Tower: 128.200
Sweden Control North: 131.050

ESSB Del/Gnd/Twr/App
Stockholm, Sweden

Feed Status: DOWN
Offline since: 2018-12-04 18:44:02 UTC

ESSB 110050Z AUTO 01007KT 9999 OVC009/// 03/02 Q1006

Arlanda Approach: 120.150
Arlanda Approach: 123.750
Arlanda Approach: 124.100
Arlanda Approach: 126.650
Bromma Clearance/Ground: 121.600
Bromma Tower: 118.100
Grafair: 131.750

ESSG Misc (Archives)
Ludvika, Sweden

Feed Status: UP
Listen in your browser - HTML5 player(in browser, HTML5)
Listen right in your browser(in browser, requires Flash)
Click here to listen with your own player(launches your MP3 player)

ESSG Flight Activity (Flightaware)

Listeners: 0 out of 1200 total

Avesta, Gagnef, Siljansnas: 123.550
Borlange Tower: 127.300
Dala-Jarna: 123.350
Emergency/Guard: 121.500
Karlstad: 119.450
Koping, Arboga, Borberg: 123.150
Ludvika CTAF: 122.100
Mora: 129.850
Orebro: 120.275
Orsa: 123.400
Soaring Freq: 123.500
Sweden Control: 131.125
Sweden Control: 129.175
Sweden Control: 118.200
Sweden Control: 132.150

ESSL Twr/App/Control (Archives)
Linkoping, Sweden

Feed Status: UP
Listen in your browser - HTML5 player(in browser, HTML5)
Listen right in your browser(in browser, requires Flash)
Click here to listen with your own player(launches your MP3 player)

ESSL 110050Z AUTO 36008KT 9999 OVC004/// 02/02 Q1006

ESSL Flight Activity (Flightaware)

Listeners: 0 out of 1200 total

Emergency/Guard: 121.500
Linkoping Tower: 118.800
Linkoping Tower (Secondary): 123.400
Ostgota Control: 127.350
Ostgota Control: 126.400
Ostgota Control: 135.850
Ostgota Control: 132.950
Ostgota Control: 128.700
Ostgota Control (Malmen Sector): 133.100
Ostgota Control/Sweden Control: 118.400

ESVQ CTAF (Archives)
Koping, Sweden

Feed Status: UP
Listen in your browser - HTML5 player(in browser, HTML5)
Listen right in your browser(in browser, requires Flash)
Click here to listen with your own player(launches your MP3 player)

ESVQ Flight Activity (Flightaware)

Listeners: 0 out of 1200 total

Koping CTAF: 123.150

EVRA Approach (Archives)
Riga, Latvia

Feed Status: UP
Listen in your browser - HTML5 player(in browser, HTML5)
Listen right in your browser(in browser, requires Flash)
Click here to listen with your own player(launches your MP3 player)

EVRA 110050Z 15003KT 0500 R18/0600N FZFG VV001 M02/M02 Q1004 R18/320195 NOSIG

EVRA Flight Activity (Flightaware)

Listeners: 0 out of 1200 total

Riga Approach: 129.925

EVRA CTAF (Archives)
Riga, Latvia

Feed Status: UP
Listen in your browser - HTML5 player(in browser, HTML5)
Listen right in your browser(in browser, requires Flash)
Click here to listen with your own player(launches your MP3 player)

EVRA 110050Z 15003KT 0500 R18/0600N FZFG VV001 M02/M02 Q1004 R18/320195 NOSIG

EVRA Flight Activity (Flightaware)

Listeners: 0 out of 1200 total

Riga Approach (evenings): 134.850
Riga CTAF: 123.950

EVRA FIC (Archives)
Riga, Latvia

Feed Status: UP
Listen in your browser - HTML5 player(in browser, HTML5)
Listen right in your browser(in browser, requires Flash)
Click here to listen with your own player(launches your MP3 player)

EVRA 110050Z 15003KT 0500 R18/0600N FZFG VV001 M02/M02 Q1004 R18/320195 NOSIG

EVRA Flight Activity (Flightaware)

Listeners: 0 out of 1200 total

Riga FIC: 120.225

EVRA Tower/Guard (Archives)
Riga, Latvia

Feed Status: UP
Listen in your browser - HTML5 player(in browser, HTML5)
Listen right in your browser(in browser, requires Flash)
Click here to listen with your own player(launches your MP3 player)

EVRA 110050Z 15003KT 0500 R18/0600N FZFG VV001 M02/M02 Q1004 R18/320195 NOSIG

EVRA Flight Activity (Flightaware)

Listeners: 0 out of 1200 total

Emergency/Guard: 121.500
Riga Tower: 118.100

EYKA Gnd/Twr/FIS (Archives)
Kaunas, Lithuania

Feed Status: UP
Listen in your browser - HTML5 player(in browser, HTML5)
Listen right in your browser(in browser, requires Flash)
Click here to listen with your own player(launches your MP3 player)

EYKA 110050Z AUTO VRB01KT 0200 R26/0700D FG OVC002/// M01/M02 Q1004

EYKA Flight Activity (Flightaware)

Listeners: 1 out of 1200 total

EYKS (ALEKSOTAS) Info: 135.500
Kaunas Approach: 124.200
Kaunas Info: 124.600
Kaunas Tower: 118.500

EYVI Twr/App/Misc (Archives)
Vilnius, Lithuania

Feed Status: UP
Listen in your browser - HTML5 player(in browser, HTML5)
Listen right in your browser(in browser, requires Flash)
Click here to listen with your own player(launches your MP3 player)

EYVI 110050Z 29004KT 260V320 9000 OVC003 01/01 Q1004 R01/2/0195 TEMPO 0600 FG

EYVI Flight Activity (Flightaware)

Listeners: 0 out of 1200 total

Emergency / GUARD: 121.500
FlyLAL, AirBaltic transit services: 131.900
FlyLAL, AirBaltic transit services: 131.600
FlyLAL, AirBaltic transit services: 131.500
Kaunas Approach (EYKA): 124.200
Vilnius Approach: 120.700
Vilnius Control: 132.275
Vilnius Control: 133.425
Vilnius Control: 133.300
Vilnius FIS: 123.850
Vilnius Tower: 118.200
Zokniai A/G (mil): 122.775

EYVP CTAF (Archives)
Paluknys, Lithuania

Feed Status: UP
Listen in your browser - HTML5 player(in browser, HTML5)
Listen right in your browser(in browser, requires Flash)
Click here to listen with your own player(launches your MP3 player)

EYVP Flight Activity (Flightaware)

Listeners: 0 out of 1200 total

EYVP Paluknis CTAF: 119.100

FIMP Twr/App/Ctr #1
Plaine Magnien, Mauritius

Feed Status: DOWN
Offline since: 2018-12-10 20:12:01 UTC

FIMP 110000Z 00000KT 9999 FEW015 SCT050 23/22 Q1015

FIMP Approach: 119.100
FIMP Tower: 118.100
FMEE Approach/Departure: 127.200
Mauritius Centre: 129.300

FIMP Twr/App/Ctr #2 (Archives)
Plaine Magnien, Mauritius

Feed Status: UP
Listen in your browser - HTML5 player(in browser, HTML5)
Listen right in your browser(in browser, requires Flash)
Click here to listen with your own player(launches your MP3 player)

FIMP 110000Z 00000KT 9999 FEW015 SCT050 23/22 Q1015


Listeners: 0 out of 1200 total

FIMP Approach: 119.100
FIMP Tower: 118.100
Mauritius Centre: 129.300

FMEE Tower
Sainte-Marie, Reunion

Feed Status: DOWN
Offline since: 2018-12-06 10:16:02 UTC

FMEE 110030Z AUTO 17007KT 9999 ///CB 24/18 Q1014 TEMPO 4500 SHRA

Gillot Tower: 118.400

FMEP Info (Archives)
Saint-Pierre, Reunion

Feed Status: UP
Listen in your browser - HTML5 player(in browser, HTML5)
Listen right in your browser(in browser, requires Flash)
Click here to listen with your own player(launches your MP3 player)

FMEP 110030Z AUTO 04006KT CAVOK 25/18 Q1014


Listeners: 0 out of 1200 total

Saint-Pierre Info: 122.400

FMMI Twr/App/Center (Archives)
Antananarivo, Madagascar

Feed Status: UP
Listen in your browser - HTML5 player(in browser, HTML5)
Listen right in your browser(in browser, requires Flash)
Click here to listen with your own player(launches your MP3 player)

FMMI 110030Z VRB01KT 9999 FEW017 18/17 Q1019 NOSIG


Listeners: 0 out of 1200 total

Ivato Approach: 125.700
Ivato Tower: 120.100
Tana Control: 128.900

HKJK Gnd/Twr/Radar (Archives)
Nairobi, Kenya

Feed Status: UP
Listen in your browser - HTML5 player(in browser, HTML5)
Listen right in your browser(in browser, requires Flash)
Click here to listen with your own player(launches your MP3 player)

HKJK 110030Z 02009KT 9999 -RA BKN006 OVC080 16/15 Q1023 TEMPO -RA SCT010 OVC080


Listeners: 0 out of 1200 total

Nairobi Ground: 121.600
Nairobi Radar: 122.300
Nairobi Tower: 118.700
Wilson Airport Tower: 118.100

LATI Twr/App/ACC (Archives)
Tirana, Albania

Feed Status: UP
Listen in your browser - HTML5 player(in browser, HTML5)
Listen right in your browser(in browser, requires Flash)
Click here to listen with your own player(launches your MP3 player)

LATI 110050Z 13003KT CAVOK 01/M00 Q1012 NOSIG

LATI Flight Activity (Flightaware)

Listeners: 0 out of 1200 total

Tirana Approach/Departure: 133.150
Tirana Approach/Departure: 131.075
Tirana Tower: 122.500
Tirana Tower: 123.500

LBBG Twr/App (Archives)
Burgas, Bulgaria

Feed Status: UP
Listen in your browser - HTML5 player(in browser, HTML5)
Listen right in your browser(in browser, requires Flash)
Click here to listen with your own player(launches your MP3 player)

LBBG 110030Z 25004KT 9999 OVC044 07/03 Q1007 NOSIG

LBBG Flight Activity (Flightaware)

Listeners: 0 out of 1200 total

Burgas Approach: 125.100
Burgas Tower: 118.000

LBSF Sofia Control East (Archives)
Sofia, Bulgaria

Feed Status: UP
Listen in your browser - HTML5 player(in browser, HTML5)
Listen right in your browser(in browser, requires Flash)
Click here to listen with your own player(launches your MP3 player)

LBSF 110030Z 27009KT 9999 SCT060 01/M03 Q1011 R99/29//95 NOSIG

LBSF Flight Activity (Flightaware)

Listeners: 2 out of 1200 total

Sofia Control (East/Middle Sector): 129.100
Sofia Control (Varna Sector): 134.700

LBSF Twr/App #1 (Archives)
Sofia, Bulgaria

Feed Status: UP
Listen in your browser - HTML5 player(in browser, HTML5)
Listen right in your browser(in browser, requires Flash)
Click here to listen with your own player(launches your MP3 player)

LBSF 110030Z 27009KT 9999 SCT060 01/M03 Q1011 R99/29//95 NOSIG

LBSF Flight Activity (Flightaware)

Listeners: 1 out of 1200 total

Sofia Approach: 123.700
Sofia Approach: 129.900
Sofia Tower: 118.100
Sofia Tower: 120.200

LBSF Twr/App #2 (Archives)
Sofia, Bulgaria

Feed Status: UP
Listen in your browser - HTML5 player(in browser, HTML5)
Listen right in your browser(in browser, requires Flash)
Click here to listen with your own player(launches your MP3 player)

LBSF 110030Z 27009KT 9999 SCT060 01/M03 Q1011 R99/29//95 NOSIG

LBSF Flight Activity (Flightaware)

Listeners: 1 out of 1200 total

Sofia Approach: 123.700
Sofia Tower: 118.100

LBWN Tower/Approach (Archives)
Varna, Bulgaria

Feed Status: UP
Listen in your browser - HTML5 player(in browser, HTML5)
Listen right in your browser(in browser, requires Flash)
Click here to listen with your own player(launches your MP3 player)

LBWN 110030Z 28008KT 240V340 9999 FEW016 SCT043 05/02 Q1006 R99/19//95 NOSIG

LBWN Flight Activity (Flightaware)

Listeners: 0 out of 1200 total

Varna Approach: 121.000
Varna Tower: 119.500

Bordeaux Control (Archives)
Bordeaux, France

Feed Status: UP
Listen in your browser - HTML5 player(in browser, HTML5)
Listen right in your browser(in browser, requires Flash)
Click here to listen with your own player(launches your MP3 player)

LFBD 110030Z AUTO 00000KT 9000 0800 R23/P2300 R05/1000U R29/P2300 BCFG NSC 03/02 Q1028 TEMPO 0500 BCFG

LFBD Flight Activity (Flightaware)

Listeners: 4 out of 1200 total

Air to Air: 123.450
Bordeaux Control BN FL<300: 127.675
Bordeaux Control L3 FL>300: 134.250
Bordeaux Control R2 FL>300: 133.575
Emergency/Guard: 121.500

NOTE: In case of garbled sound, please refresh the player.

LFBU/LFBL Tower
Limoges, France

Feed Status: DOWN
Offline since: 2018-11-19 20:05:05 UTC

LFBU 110030Z AUTO 00000KT 5000 BR NSC 03/03 Q1028

LFBL Limoges Tower: 124.055
LFBU Angouleme Tower: 123.150
Medoc: 124.325

Bordeaux Control (Archives)
Angouleme, France

Feed Status: UP
Listen in your browser - HTML5 player(in browser, HTML5)
Listen right in your browser(in browser, requires Flash)
Click here to listen with your own player(launches your MP3 player)

LFBD 110030Z AUTO 00000KT 9000 0800 R23/P2300 R05/1000U R29/P2300 BCFG NSC 03/02 Q1028 TEMPO 0500 BCFG

LFBD Flight Activity (Flightaware)

Listeners: 4 out of 1200 total

Air to Air: 123.450
Bordeaux Control BN FL<300: 127.675
Bordeaux Control L3 FL>300: 134.250
Bordeaux Control R2 FL>300: 133.575
Emergency/Guard: 121.500

NOTE: In case of garbled sound, please refresh the player.

LFBZ Tower (Archives)
Biarritz, France

Feed Status: UP
Listen in your browser - HTML5 player(in browser, HTML5)
Listen right in your browser(in browser, requires Flash)
Click here to listen with your own player(launches your MP3 player)

LFBZ 110030Z AUTO 06003KT CAVOK 07/06 Q1027 TEMPO 4000 BR

LFBZ Flight Activity (Flightaware)

Listeners: 0 out of 1200 total


LFLL Tower
Lyon, France

Feed Status: DOWN
Offline since: 2018-11-14 09:19:03 UTC

LFLL 110030Z 34004KT 9999 FEW033 BKN040 BKN076 05/03 Q1026 NOSIG

Lyon Tower: 120.450

Lyon FIS
Lyon, France

Feed Status: DOWN
Offline since: 2018-11-14 09:19:03 UTC

LFLL 110030Z 34004KT 9999 FEW033 BKN040 BKN076 05/03 Q1026 NOSIG

Lyon FIS: 135.200

LFLP Twr/LFLB App
Annecy, France

Feed Status: DOWN
Offline since: 2018-12-09 16:24:02 UTC

LFLP 110030Z AUTO VRB02KT 8000 BKN017 BKN043 OVC064 03/03 Q1025

Annecy Tower: 118.200
Chambery Approach: 121.200
Chambery Info: 123.700

NOTE: Reception might be deteriorated due to terrain surrounding feed

LFLY Tower
Bron, France

Feed Status: DOWN
Offline since: 2018-11-14 09:19:03 UTC

LFLY 110030Z AUTO 07003KT 9999 FEW050 BKN072 04/02 Q1026 NOSIG

Lyon-Bron Tower: 118.100

Lyon FIS
Bron, France

Feed Status: DOWN
Offline since: 2018-11-14 09:19:03 UTC

LFLL 110030Z 34004KT 9999 FEW033 BKN040 BKN076 05/03 Q1026 NOSIG

Lyon FIS: 135.200

LFMD Ground/Tower
Cannes, France

Feed Status: DOWN
Offline since: 2018-12-11 01:06:03 UTC

LFMD 110030Z AUTO VRB05KT CAVOK 05/M00 Q1018

Cannes Ground: 121.800
Cannes Tower: 118.625

LFMN Approach (Archives)
Nice, France

Feed Status: UP
Listen in your browser - HTML5 player(in browser, HTML5)
Listen right in your browser(in browser, requires Flash)
Click here to listen with your own player(launches your MP3 player)

LFMN 110030Z 34011KT CAVOK 10/M02 Q1017 NOSIG

LFMN Flight Activity (Flightaware)

Listeners: 1 out of 1200 total

Nice Approach: 124.175

LFMN Control (High) (Archives)
Nice, France

Feed Status: UP
Listen in your browser - HTML5 player(in browser, HTML5)
Listen right in your browser(in browser, requires Flash)
Click here to listen with your own player(launches your MP3 player)

LFMN 110030Z 34011KT CAVOK 10/M02 Q1017 NOSIG

LFMN Flight Activity (Flightaware)

Listeners: 0 out of 1200 total

Marseille Control Sector K1 (FL245-FL305): 126.780

LFMN FIS/Approach
Nice, France

Feed Status: DOWN
Offline since: 2018-12-11 01:06:03 UTC

LFMN 110030Z 34011KT CAVOK 10/M02 Q1017 NOSIG

Nice FIS/Approach (TMA4 NICE 2500ft - FL115): 120.850

LFMN Ground/Tower
Nice, France

Feed Status: DOWN
Offline since: 2018-12-11 01:06:03 UTC

LFMN 110030Z 34011KT CAVOK 10/M02 Q1017 NOSIG

Nice Ground: 121.700
Nice Tower: 118.700

LFPO Approach (Archives)
Paris, France

Feed Status: UP
Listen in your browser - HTML5 player(in browser, HTML5)
Listen right in your browser(in browser, requires Flash)
Click here to listen with your own player(launches your MP3 player)

LFPO 110030Z 20002KT 9999 FEW024 SCT050 04/03 Q1027 NOSIG

LFPO Flight Activity (Flightaware)

Listeners: 0 out of 1200 total

Orly Approach: 124.450
Orly Approach: 118.850
Orly Approach: 120.850
Orly Approach: 123.875

LFPO Departure (Archives)
Paris, France

Feed Status: UP
Listen in your browser - HTML5 player(in browser, HTML5)
Listen right in your browser(in browser, requires Flash)
Click here to listen with your own player(launches your MP3 player)

LFPO 110030Z 20002KT 9999 FEW024 SCT050 04/03 Q1027 NOSIG

LFPO Flight Activity (Flightaware)

Listeners: 2 out of 1200 total

Orly Departure: 127.750

LFPO Tower (Archives)
Paris, France

Feed Status: UP
Listen in your browser - HTML5 player(in browser, HTML5)
Listen right in your browser(in browser, requires Flash)
Click here to listen with your own player(launches your MP3 player)

LFPO 110030Z 20002KT 9999 FEW024 SCT050 04/03 Q1027 NOSIG

LFPO Flight Activity (Flightaware)

Listeners: 2 out of 1200 total

Orly Tower: 120.500
Orly Tower: 118.700

LFSB Tower (Archives)
Basel, Switzerland

Feed Status: UP
Listen in your browser - HTML5 player(in browser, HTML5)
Listen right in your browser(in browser, requires Flash)
Click here to listen with your own player(launches your MP3 player)

LFSB 110030Z AUTO 26007KT 9999 BKN046 BKN052 05/03 Q1025 TEMPO BKN014

LFSB Flight Activity (Flightaware)

Listeners: 0 out of 1200 total

Mulhouse Tower: 118.300

LFST Approach #1
Strasbourg, France

Feed Status: DOWN
Offline since: 2018-11-17 10:00:07 UTC

LFST 110030Z AUTO 00000KT 9999 FEW027 02/M01 Q1025 NOSIG

Strasbourg Approach: 120.700

LFST Approach #2
Strasbourg, France

Feed Status: DOWN
Offline since: 2018-11-17 10:00:07 UTC

LFST 110030Z AUTO 00000KT 9999 FEW027 02/M01 Q1025 NOSIG

Strasbourg Approach: 119.575

LFST Emergency/Guard
Strasbourg, France

Feed Status: DOWN
Offline since: 2018-11-17 10:00:07 UTC

LFST 110030Z AUTO 00000KT 9999 FEW027 02/M01 Q1025 NOSIG

Emergency/Guard: 121.500

LFST Ground
Strasbourg, France

Feed Status: DOWN
Offline since: 2018-11-17 10:00:07 UTC

LFST 110030Z AUTO 00000KT 9999 FEW027 02/M01 Q1025 NOSIG

Strasbourg Ground: 121.800

LFST Tower
Strasbourg, France

Feed Status: DOWN
Offline since: 2018-11-17 10:00:07 UTC

LFST 110030Z AUTO 00000KT 9999 FEW027 02/M01 Q1025 NOSIG

Strasbourg Tower: 119.250

LGAV App/Radar (Archives)
Athens, Greece

Feed Status: UP
Listen in your browser - HTML5 player(in browser, HTML5)
Listen right in your browser(in browser, requires Flash)
Click here to listen with your own player(launches your MP3 player)

LGAV 110020Z 06006KT 9999 FEW030 10/00 Q1011 NOSIG

LGAV Flight Activity (Flightaware)

Listeners: 1 out of 1200 total

Athens Approach: 132.975
Athens Information: 130.925
Athens Information: 119.750
Athens Radar (Kerkira-Kefalinia-Paleohora Sectors FL460-FL345): 134.325
Athens Radar (Milos/Sitia Sectors FL460-FL345): 125.200
Athens Radar (Paleohora /Kerkira Sectors FL460-FL345): 133.725
Athens Radar (Paleohora Sector FL460-FL345): 124.625
Athens Radar (Rhodos/Kavos Sector FL460-FL345): 133.325
Emergency/Guard: 121.500
Makedonia Radar (Thessaloniki/Skopelos/Limnos/Kavala Sectors FL460-FL345): 133.575

LGIR Approach (Archives)
Iraklion, Greece

Feed Status: UP
Listen in your browser - HTML5 player(in browser, HTML5)
Listen right in your browser(in browser, requires Flash)
Click here to listen with your own player(launches your MP3 player)

LGIR 110020Z 28015KT 9999 FEW020TCU SCT025 14/08 Q1011 NOSIG

LGIR Flight Activity (Flightaware)

Listeners: 2 out of 1200 total

Iraklion Radar: 123.975

LGIR Ground (Archives)
Iraklion, Greece

Feed Status: UP
Listen in your browser - HTML5 player(in browser, HTML5)
Listen right in your browser(in browser, requires Flash)
Click here to listen with your own player(launches your MP3 player)

LGIR 110020Z 28015KT 9999 FEW020TCU SCT025 14/08 Q1011 NOSIG

LGIR Flight Activity (Flightaware)

Listeners: 0 out of 1200 total

Heraklion Ground: 121.700

LGIR Tower
Iraklion, Greece

Feed Status: DOWN
Offline since: 2018-12-10 14:16:04 UTC

LGIR 110020Z 28015KT 9999 FEW020TCU SCT025 14/08 Q1011 NOSIG

Heraklion Tower: 120.850

LHBP Approach (Archives)
Budapest, Hungary

Feed Status: UP
Listen in your browser - HTML5 player(in browser, HTML5)
Listen right in your browser(in browser, requires Flash)
Click here to listen with your own player(launches your MP3 player)

LHBP 110030Z 29012KT CAVOK 01/M02 Q1013 NOSIG

LHBP Flight Activity (Flightaware)

Listeners: 0 out of 1200 total

Budapest Approach: 129.700
Budapest Approach: 122.975
Budapest Approach (Upper): 123.860

LHBP ATIS (Archives)
Budapest, Hungary

Feed Status: UP
Listen in your browser - HTML5 player(in browser, HTML5)
Listen right in your browser(in browser, requires Flash)
Click here to listen with your own player(launches your MP3 player)

LHBP 110030Z 29012KT CAVOK 01/M02 Q1013 NOSIG

LHBP Flight Activity (Flightaware)

Listeners: 0 out of 1200 total

Budapest ATIS: 132.375

LHBP Clearance Delivery (Archives)
Budapest, Hungary

Feed Status: UP
Listen in your browser - HTML5 player(in browser, HTML5)
Listen right in your browser(in browser, requires Flash)
Click here to listen with your own player(launches your MP3 player)

LHBP 110030Z 29012KT CAVOK 01/M02 Q1013 NOSIG

LHBP Flight Activity (Flightaware)

Listeners: 0 out of 1200 total

Budapest Clearance Delivery: 134.550

LHBP Ground (Archives)
Budapest, Hungary

Feed Status: UP
Listen in your browser - HTML5 player(in browser, HTML5)
Listen right in your browser(in browser, requires Flash)
Click here to listen with your own player(launches your MP3 player)

LHBP 110030Z 29012KT CAVOK 01/M02 Q1013 NOSIG

LHBP Flight Activity (Flightaware)

Listeners: 0 out of 1200 total

Budapest Ground: 121.900

LHBP Info (Archives)
Budapest, Hungary

Feed Status: UP
Listen in your browser - HTML5 player(in browser, HTML5)
Listen right in your browser(in browser, requires Flash)
Click here to listen with your own player(launches your MP3 player)

LHBP 110030Z 29012KT CAVOK 01/M02 Q1013 NOSIG

LHBP Flight Activity (Flightaware)

Listeners: 0 out of 1200 total

Budapest Info: 119.350

LHBP Tower (Archives)
Budapest, Hungary

Feed Status: UP
Listen in your browser - HTML5 player(in browser, HTML5)
Listen right in your browser(in browser, requires Flash)
Click here to listen with your own player(launches your MP3 player)

LHBP 110030Z 29012KT CAVOK 01/M02 Q1013 NOSIG

LHBP Flight Activity (Flightaware)

Listeners: 0 out of 1200 total

Budapest Tower: 118.100

LHBP Twr/Info (Archives)
Budapest, Hungary

Feed Status: UP
Listen in your browser - HTML5 player(in browser, HTML5)
Listen right in your browser(in browser, requires Flash)
Click here to listen with your own player(launches your MP3 player)

LHBP 110030Z 29012KT CAVOK 01/M02 Q1013 NOSIG

LHBP Flight Activity (Flightaware)

Listeners: 0 out of 1200 total

Budapest Info: 119.350
Budapest Tower: 118.100

LHCC Control (East/West)
Budapest, Hungary

Feed Status: DOWN
Offline since: 2018-12-10 23:11:03 UTC

LHBP 110030Z 29012KT CAVOK 01/M02 Q1013 NOSIG

Budapest Control (East Low Sector): 120.375
Budapest Control (West Low Sector): 133.200

LHDC Info/Tower (Archives)
Debrecen, Hungary

Feed Status: UP
Listen in your browser - HTML5 player(in browser, HTML5)
Listen right in your browser(in browser, requires Flash)
Click here to listen with your own player(launches your MP3 player)

LHDC 102345Z 13004KT CAVOK M00/M01 Q1012

LHDC Flight Activity (Flightaware)

Listeners: 0 out of 1200 total

Debrecen Info/Tower: 125.900

Dunaujvaros Airport CTAF (Archives)
Dunaujvaros, Hungary

Feed Status: UP
Listen in your browser - HTML5 player(in browser, HTML5)
Listen right in your browser(in browser, requires Flash)
Click here to listen with your own player(launches your MP3 player)

LHDV Flight Activity (Flightaware)

Listeners: 0 out of 1200 total

Dunaujvaros CTAF: 130.800

LHEM CTAF (Archives)
Esztergom, Hungary

Feed Status: UP
Listen in your browser - HTML5 player(in browser, HTML5)
Listen right in your browser(in browser, requires Flash)
Click here to listen with your own player(launches your MP3 player)

LHEM Flight Activity (Flightaware)

Listeners: 0 out of 1200 total

Esztergom CTAF: 126.850

LHPR Info/AFIS (Archives)
Gyor, Hungary

Feed Status: UP
Listen in your browser - HTML5 player(in browser, HTML5)
Listen right in your browser(in browser, requires Flash)
Click here to listen with your own player(launches your MP3 player)

LHPR 110015Z AUTO 28006KT CAVOK M01/M03 Q1014 RMK BLU

LHPR Flight Activity (Flightaware)

Listeners: 0 out of 1200 total

Gyor AFIS: 129.910

LJLJ Radar (Archives)
Ljubljana, Slovenia

Feed Status: UP
Listen in your browser - HTML5 player(in browser, HTML5)
Listen right in your browser(in browser, requires Flash)
Click here to listen with your own player(launches your MP3 player)

LJLJ 110030Z VRB01KT 5000 BR FEW001 SCT075 BKN100 M03/M04 Q1016 NOSIG

LJLJ Flight Activity (Flightaware)

Listeners: 0 out of 1200 total

Ljubljana Approach: 135.275

LJLJ Tower (Archives)
Ljubljana, Slovenia

Feed Status: UP
Listen in your browser - HTML5 player(in browser, HTML5)
Listen right in your browser(in browser, requires Flash)
Click here to listen with your own player(launches your MP3 player)

LJLJ 110030Z VRB01KT 5000 BR FEW001 SCT075 BKN100 M03/M04 Q1016 NOSIG

LJLJ Flight Activity (Flightaware)

Listeners: 0 out of 1200 total

Ljubljana Tower: 118.000

LJMB Info/FSS/FIC (Archives)
Maribor, Slovenia

Feed Status: UP
Listen in your browser - HTML5 player(in browser, HTML5)
Listen right in your browser(in browser, requires Flash)
Click here to listen with your own player(launches your MP3 player)

LJMB 110030Z AUTO 35006KT 9999 NSC M02/M03 Q1016

LJMB Flight Activity (Flightaware)

Listeners: 0 out of 1200 total

Ljubljana Information FSS/FIC (Maribor Area): 118.475

LJMB Tower/Approach (Archives)
Maribor, Slovenia

Feed Status: UP
Listen in your browser - HTML5 player(in browser, HTML5)
Listen right in your browser(in browser, requires Flash)
Click here to listen with your own player(launches your MP3 player)

LJMB 110030Z AUTO 35006KT 9999 NSC M02/M03 Q1016

LJMB Flight Activity (Flightaware)

Listeners: 0 out of 1200 total

Maribor Tower/Approach: 119.200

LJPZ Tower
Secovlje, Slovenia

Feed Status: DOWN
Offline since: 2018-12-10 21:46:03 UTC

LJPZ 110030Z AUTO 12011KT 9999 NCD 01/M03 Q1016

Portoroz Tower: 124.875

LKPM Tower (Archives)
Pribram, Czech Republic

Feed Status: UP
Listen in your browser - HTML5 player(in browser, HTML5)
Listen right in your browser(in browser, requires Flash)
Click here to listen with your own player(launches your MP3 player)

METAR NOT AVAILABLE

LKPM Flight Activity (Flightaware)

Listeners: 0 out of 1200 total

Pribram Tower: 118.750

LKAA FIR (High) (Archives)
Prague, Czech Republic

Feed Status: UP
Listen in your browser - HTML5 player(in browser, HTML5)
Listen right in your browser(in browser, requires Flash)
Click here to listen with your own player(launches your MP3 player)

LKAA Flight Activity (Flightaware)

Listeners: 2 out of 1200 total

LKAA FIR Sector West High / Praha Radar : 132.065

LKAA FIR (Low) (Archives)
Prague, Czech Republic

Feed Status: UP
Listen in your browser - HTML5 player(in browser, HTML5)
Listen right in your browser(in browser, requires Flash)
Click here to listen with your own player(launches your MP3 player)

LKAA Flight Activity (Flightaware)

Listeners: 1 out of 1200 total

LKAA FIR Sector West Low / Praha Radar: 120.275

LKPR Approach (Archives)
Prague, Czech Republic

Feed Status: UP
Listen in your browser - HTML5 player(in browser, HTML5)
Listen right in your browser(in browser, requires Flash)
Click here to listen with your own player(launches your MP3 player)

LKPR 110030Z 25013KT 9999 -SNRA FEW032 BKN040 01/M02 Q1012 NOSIG

LKPR Flight Activity (Flightaware)

Listeners: 2 out of 1200 total

Prague Approach/Radar: 127.580

LKPR Clearance Del (Archives)
Prague, Czech Republic

Feed Status: UP
Listen in your browser - HTML5 player(in browser, HTML5)
Listen right in your browser(in browser, requires Flash)
Click here to listen with your own player(launches your MP3 player)

LKPR 110030Z 25013KT 9999 -SNRA FEW032 BKN040 01/M02 Q1012 NOSIG

LKPR Flight Activity (Flightaware)

Listeners: 1 out of 1200 total


LKPR Director/Ruzyne Radar (Archives)
Prague, Czech Republic

Feed Status: UP
Listen in your browser - HTML5 player(in browser, HTML5)
Listen right in your browser(in browser, requires Flash)
Click here to listen with your own player(launches your MP3 player)

LKPR 110030Z 25013KT 9999 -SNRA FEW032 BKN040 01/M02 Q1012 NOSIG

LKPR Flight Activity (Flightaware)

Listeners: 1 out of 1200 total

Prague Director/Ruzyne Radar: 119.010

NOTE: Only active during peak times, typically 2-6PM local time (CET)

LKPR Ground (Archives)
Prague, Czech Republic

Feed Status: UP
Listen in your browser - HTML5 player(in browser, HTML5)
Listen right in your browser(in browser, requires Flash)
Click here to listen with your own player(launches your MP3 player)

LKPR 110030Z 25013KT 9999 -SNRA FEW032 BKN040 01/M02 Q1012 NOSIG

LKPR Flight Activity (Flightaware)

Listeners: 1 out of 1200 total

Prague/Ruzyne Clearance Delivery: 120.060
Prague/Ruzyne Ground: 121.910

LKPR Tower (Archives)
Prague, Czech Republic

Feed Status: UP
Listen in your browser - HTML5 player(in browser, HTML5)
Listen right in your browser(in browser, requires Flash)
Click here to listen with your own player(launches your MP3 player)

LKPR 110030Z 25013KT 9999 -SNRA FEW032 BKN040 01/M02 Q1012 NOSIG

LKPR Flight Activity (Flightaware)

Listeners: 1 out of 1200 total

Prague/Ruzyne Tower: 134.560

LKTB Gnd/Twr/Radar (Archives)
Brno, Czech Republic

Feed Status: UP
Listen in your browser - HTML5 player(in browser, HTML5)
Listen right in your browser(in browser, requires Flash)
Click here to listen with your own player(launches your MP3 player)

LKTB 110030Z 21004KT 9999 FEW033 M01/M03 Q1013 TEMPO 5000 SHSN

LKTB Flight Activity (Flightaware)

Listeners: 1 out of 1200 total

Brno Ground: 125.425
Brno Handling: 131.800
Brno Radar (Approach): 127.350
Brno Tower: 119.600

LMML Del/Gnd/Twr/App (Archives)
Luqa, Malta

Feed Status: UP
Listen in your browser - HTML5 player(in browser, HTML5)
Listen right in your browser(in browser, requires Flash)
Click here to listen with your own player(launches your MP3 player)

LMML 110045Z 33013KT 9999 FEW035 14/08 Q1017 NOSIG

LMML Flight Activity (Flightaware)

Listeners: 0 out of 1200 total

Luqa Approach: 128.150
Luqa Approach/Radar: 118.350
Luqa Ground: 121.600
Luqa Tower: 135.100

LOWG Approach (Archives)
Graz, Austria

Feed Status: UP
Listen in your browser - HTML5 player(in browser, HTML5)
Listen right in your browser(in browser, requires Flash)
Click here to listen with your own player(launches your MP3 player)

LOWG 110050Z AUTO 24003KT 9999 FEW140 SCT150 M02/M03 Q1016

LOWG Flight Activity (Flightaware)

Listeners: 0 out of 1200 total

Graz Approach: 119.300

LOWG Tower (Archives)
Graz, Austria

Feed Status: UP
Listen in your browser - HTML5 player(in browser, HTML5)
Listen right in your browser(in browser, requires Flash)
Click here to listen with your own player(launches your MP3 player)

LOWG 110050Z AUTO 24003KT 9999 FEW140 SCT150 M02/M03 Q1016

LOWG Flight Activity (Flightaware)

Listeners: 0 out of 1200 total

Graz Tower: 118.200

LOWG Twr/App (Archives)
Graz, Austria

Feed Status: UP
Listen in your browser - HTML5 player(in browser, HTML5)
Listen right in your browser(in browser, requires Flash)
Click here to listen with your own player(launches your MP3 player)

LOWG 110050Z AUTO 24003KT 9999 FEW140 SCT150 M02/M03 Q1016

LOWG Flight Activity (Flightaware)

Listeners: 0 out of 1200 total

Graz Approach: 119.300
Graz Tower: 118.200

Santa Maria Control (Oceanic) (Archives)
Santa Maria Island (Azores), Portugal

Feed Status: UP
Listen in your browser - HTML5 player(in browser, HTML5)
Listen right in your browser(in browser, requires Flash)
Click here to listen with your own player(launches your MP3 player)

LPAZ 110030Z 33012KT 9999 FEW012 16/14 Q1025

LPAZ Flight Activity (Flightaware)

Listeners: 0 out of 1200 total

Emergency/Guard: 121.500
LPHR (Horta) Approach: 120.600
LPLA (Terceira) Approach: 135.000
LPLA (Terceira) Tower: 122.100
LPPD (Ponta Delgada) Approach: 119.400
Ponta Delgada Ground: 131.600
Santa Maria Approach: 119.100
Santa Maria Control: 132.150

LPCS Ground (Archives)
Cascais, Portugal

Feed Status: UP
Listen in your browser - HTML5 player(in browser, HTML5)
Listen right in your browser(in browser, requires Flash)
Click here to listen with your own player(launches your MP3 player)

LPCS 101900Z 05004KT CAVOK 16/11 Q1023

LPCS Flight Activity (Flightaware)

Listeners: 0 out of 1200 total

Cascais Ground: 121.850

LPCS Tower (Archives)
Cascais, Portugal

Feed Status: UP
Listen in your browser - HTML5 player(in browser, HTML5)
Listen right in your browser(in browser, requires Flash)
Click here to listen with your own player(launches your MP3 player)

LPCS 101900Z 05004KT CAVOK 16/11 Q1023

LPCS Flight Activity (Flightaware)

Listeners: 1 out of 1200 total

Cascais Tower: 120.300

LPLA Gnd/Twr/App (Archives)
Lajes, Portugal

Feed Status: UP
Listen in your browser - HTML5 player(in browser, HTML5)
Listen right in your browser(in browser, requires Flash)
Click here to listen with your own player(launches your MP3 player)

LPLA 110000Z /////KT 9999 SCT022 14/10 Q1025

LPLA Flight Activity (Flightaware)

Listeners: 0 out of 1200 total

Lajes Approach: 135.000
Lajes Ground: 121.900
Lajes Tower: 122.100

LPPT Approach (Archives)
Lisbon, Portugal

Feed Status: UP
Listen in your browser - HTML5 player(in browser, HTML5)
Listen right in your browser(in browser, requires Flash)
Click here to listen with your own player(launches your MP3 player)

LPPT 110030Z 05003KT 020V080 CAVOK 12/09 Q1023

LPPT Flight Activity (Flightaware)

Listeners: 1 out of 1200 total

Lisbon Approach: 119.100

LRCL Twr/App #1 (Archives)
Cluj-Napoca, Romania

Feed Status: UP
Listen in your browser - HTML5 player(in browser, HTML5)
Listen right in your browser(in browser, requires Flash)
Click here to listen with your own player(launches your MP3 player)

LRCL 110030Z 28003KT 9999 FEW022 02/M01 Q1010 R07/19//95

LRCL Flight Activity (Flightaware)

Listeners: 18 out of 1200 total

Cluj Approach: 126.425
Cluj Tower: 134.400

LRCL Twr/App #2 (Archives)
Cluj-Napoca, Romania

Feed Status: UP
Listen in your browser - HTML5 player(in browser, HTML5)
Listen right in your browser(in browser, requires Flash)
Click here to listen with your own player(launches your MP3 player)

LRCL 110030Z 28003KT 9999 FEW022 02/M01 Q1010 R07/19//95

LRCL Flight Activity (Flightaware)

Listeners: 1 out of 1200 total

Cluj Approach: 126.425
Cluj Tower: 134.400

LRCL Twr/App/ACC
Cluj-Napoca, Romania

Feed Status: DOWN
Offline since: 2018-12-11 00:33:02 UTC

LRCL 110030Z 28003KT 9999 FEW022 02/M01 Q1010 R07/19//95

Cluj Approach: 126.425
Cluj Tower: 134.400
Napoc ACC: 127.075

LROP Bucharest Ground (Archives)
Bucharest, Romania

Feed Status: UP
Listen in your browser - HTML5 player(in browser, HTML5)
Listen right in your browser(in browser, requires Flash)
Click here to listen with your own player(launches your MP3 player)

LROP 110030Z 10006KT 1300 R08R/1600U R26L/0800D R08L/1600D R26R/1100U PRFG BR BKN001 01/00 Q1008 R88/19//95 NOSIG

LROP Flight Activity (Flightaware)

Listeners: 1 out of 1200 total

Bucharest Ground: 121.700

LROP Bucharest Twr/App (Archives)
Bucharest, Romania

Feed Status: UP
Listen in your browser - HTML5 player(in browser, HTML5)
Listen right in your browser(in browser, requires Flash)
Click here to listen with your own player(launches your MP3 player)

LROP 110030Z 10006KT 1300 R08R/1600U R26L/0800D R08L/1600D R26R/1100U PRFG BR BKN001 01/00 Q1008 R88/19//95 NOSIG

LROP Flight Activity (Flightaware)

Listeners: 1 out of 1200 total

Bucharest Approach: 118.250
Bucharest Approach (alternate): 120.600
Bucharest Radar (alternate): 126.725
Bucharest Radar (Arges Mid sector): 121.175
Bucharest Radar (Arges Top Sector): 123.265
Bucharest Radar (Koman Mid Sector): 124.975
Bucharest Radar (Koman Top Sector): 123.900
Bucharest Radar (Nerdi Mid Sector): 125.150
Bucharest Radar (Nerdi Top Sector): 122.025
Bucharest Tower: 120.900
Bucharest Tower (alternate): 121.850

Note: Bucharest Radar on right stereo channel and Bucharest Tower/Approach on left stereo channel.

LRSB Tower/CTAF (Archives)
Sibiu, Romania

Feed Status: UP
Listen in your browser - HTML5 player(in browser, HTML5)
Listen right in your browser(in browser, requires Flash)
Click here to listen with your own player(launches your MP3 player)

LRSB 110030Z AUTO 23004KT 9999 FEW029/// OVC037/// 01/00 Q1010

LRSB Flight Activity (Flightaware)

Listeners: 0 out of 1200 total

Sibiu Tower: 122.700

LRTR Tower (Archives)
Timisoara, Romania

Feed Status: UP
Listen in your browser - HTML5 player(in browser, HTML5)
Listen right in your browser(in browser, requires Flash)
Click here to listen with your own player(launches your MP3 player)

LRTR 110030Z 30002KT 9000 4000E BCFG NSC M02/M02 Q1013

LRTR Flight Activity (Flightaware)

Listeners: 0 out of 1200 total

ARAD Approach: 127.250
Timisoara Tower: 120.100

LSGG App/Radar (Archives)
Geneva, Switzerland

Feed Status: UP
Listen in your browser - HTML5 player(in browser, HTML5)
Listen right in your browser(in browser, requires Flash)
Click here to listen with your own player(launches your MP3 player)

LSGG 110050Z AUTO 16002KT 9999 -RA SCT033 SCT038 04/03 Q1025 NOSIG

LSGG Flight Activity (Flightaware)

Listeners: 0 out of 1200 total

Geneva Arrival: 136.250
Swiss Radar (L2 - FL290-FL310): 126.050

LSGG Approach (Archives)
Geneva, Switzerland

Feed Status: UP
Listen in your browser - HTML5 player(in browser, HTML5)
Listen right in your browser(in browser, requires Flash)
Click here to listen with your own player(launches your MP3 player)

LSGG 110050Z AUTO 16002KT 9999 -RA SCT033 SCT038 04/03 Q1025 NOSIG

LSGG Flight Activity (Flightaware)

Listeners: 0 out of 1200 total

Geneva Arrival: 136.250

LSGG Radar (Archives)
Geneva, Switzerland

Feed Status: UP
Listen in your browser - HTML5 player(in browser, HTML5)
Listen right in your browser(in browser, requires Flash)
Click here to listen with your own player(launches your MP3 player)

LSGG 110050Z AUTO 16002KT 9999 -RA SCT033 SCT038 04/03 Q1025 NOSIG

LSGG Flight Activity (Flightaware)

Listeners: 0 out of 1200 total

Swiss Radar (L2 - FL290-FL310): 126.050

LSGG Tower (Archives)
Geneva, Switzerland

Feed Status: UP
Listen in your browser - HTML5 player(in browser, HTML5)
Listen right in your browser(in browser, requires Flash)
Click here to listen with your own player(launches your MP3 player)

LSGG 110050Z AUTO 16002KT 9999 -RA SCT033 SCT038 04/03 Q1025 NOSIG

LSGG Flight Activity (Flightaware)

Listeners: 0 out of 1200 total

Geneva Tower: 118.700

LSGS Gnd/Twr/App (Archives)
Sion, Switzerland

Feed Status: UP
Listen in your browser - HTML5 player(in browser, HTML5)
Listen right in your browser(in browser, requires Flash)
Click here to listen with your own player(launches your MP3 player)

LSGS 110050Z AUTO 24003KT 210V280 9999 -RA FEW019 05/03 Q1023

LSGS Flight Activity (Flightaware)

Listeners: 0 out of 1200 total

Alpine Jet Service Handling: 131.675
Sion Airport Handling: 131.475
Sion Approach (IFR ARR MIL OFF): 126.825
Sion Ground: 121.700
Sion Tower: 118.275

LiveATC LSGS - About us

LSMD Tower (Archives)
Dubendorf, Switzerland

Feed Status: UP
Listen in your browser - HTML5 player(in browser, HTML5)
Listen right in your browser(in browser, requires Flash)
Click here to listen with your own player(launches your MP3 player)

LSZH 110050Z VRB03KT 9999 FEW040 01/00 Q1023 NOSIG

LSZH Flight Activity (Flightaware)

Listeners: 0 out of 1200 total

Dubendorf Tower: 118.975

LSPM AFIS (Archives)
Ambri, Switzerland

Feed Status: UP
Listen in your browser - HTML5 player(in browser, HTML5)
Listen right in your browser(in browser, requires Flash)
Click here to listen with your own player(launches your MP3 player)

METAR NOT AVAILABLE

LSPM Flight Activity (Flightaware)

Listeners: 0 out of 1200 total

Ambri AFIS: 118.525

LSZA Tower (Archives)
Agno, Switzerland

Feed Status: UP
Listen in your browser - HTML5 player(in browser, HTML5)
Listen right in your browser(in browser, requires Flash)
Click here to listen with your own player(launches your MP3 player)

LSZA 110050Z AUTO VRB02KT 9999 NCD 03/M00 Q1019

LSZA Flight Activity (Flightaware)

Listeners: 0 out of 1200 total

Lugano Tower: 120.250

LSZB Tower/App/Dep (Archives)
Bern, Switzerland

Feed Status: UP
Listen in your browser - HTML5 player(in browser, HTML5)
Listen right in your browser(in browser, requires Flash)
Click here to listen with your own player(launches your MP3 player)

LSZB 110050Z AUTO VRB03KT 9999 SCT034 BKN039 02/01 Q1024

LSZB Flight Activity (Flightaware)

Listeners: 0 out of 1200 total

LSZB Arrival/Departure (left channel): 127.325
LSZB Tower (right channel): 121.025

LSZG Tower (Archives)
Grenchen, Switzerland

Feed Status: UP
Listen in your browser - HTML5 player(in browser, HTML5)
Listen right in your browser(in browser, requires Flash)
Click here to listen with your own player(launches your MP3 player)

LSZG 110050Z AUTO 20004KT 9999 FEW023 BKN030 04/01 Q1024

LSZG Flight Activity (Flightaware)

Listeners: 0 out of 1200 total

Grenchen Tower: 120.100

LSZH Approach (East) (Archives)
Zurich, Switzerland

Feed Status: UP
Listen in your browser - HTML5 player(in browser, HTML5)
Listen right in your browser(in browser, requires Flash)
Click here to listen with your own player(launches your MP3 player)

LSZH 110050Z VRB03KT 9999 FEW040 01/00 Q1023 NOSIG

LSZH Flight Activity (Flightaware)

Listeners: 1 out of 1200 total

Zurich Approach (East): 135.225

LSZH Approach (West) (Archives)
Zurich, Switzerland

Feed Status: UP
Listen in your browser - HTML5 player(in browser, HTML5)
Listen right in your browser(in browser, requires Flash)
Click here to listen with your own player(launches your MP3 player)

LSZH 110050Z VRB03KT 9999 FEW040 01/00 Q1023 NOSIG

LSZH Flight Activity (Flightaware)

Listeners: 0 out of 1200 total

Zurich Approach (West): 118.000

LSZH Apron (South) (Archives)
Zurich, Switzerland

Feed Status: UP
Listen in your browser - HTML5 player(in browser, HTML5)
Listen right in your browser(in browser, requires Flash)
Click here to listen with your own player(launches your MP3 player)

LSZH 110050Z VRB03KT 9999 FEW040 01/00 Q1023 NOSIG

LSZH Flight Activity (Flightaware)

Listeners: 0 out of 1200 total

Zurich Apron (South): 121.755

LSZH Apron (West) (Archives)
Zurich, Switzerland

Feed Status: UP
Listen in your browser - HTML5 player(in browser, HTML5)
Listen right in your browser(in browser, requires Flash)
Click here to listen with your own player(launches your MP3 player)

LSZH 110050Z VRB03KT 9999 FEW040 01/00 Q1023 NOSIG

LSZH Flight Activity (Flightaware)

Listeners: 0 out of 1200 total

Zurich Apron (West): 121.855

LSZH Clearance Delivery (Archives)
Zurich, Switzerland

Feed Status: UP
Listen in your browser - HTML5 player(in browser, HTML5)
Listen right in your browser(in browser, requires Flash)
Click here to listen with your own player(launches your MP3 player)

LSZH 110050Z VRB03KT 9999 FEW040 01/00 Q1023 NOSIG

LSZH Flight Activity (Flightaware)

Listeners: 0 out of 1200 total

Zurich Clearance Delivery: 121.925

LSZH Ground (Archives)
Zurich, Switzerland

Feed Status: UP
Listen in your browser - HTML5 player(in browser, HTML5)
Listen right in your browser(in browser, requires Flash)
Click here to listen with your own player(launches your MP3 player)

LSZH 110050Z VRB03KT 9999 FEW040 01/00 Q1023 NOSIG

LSZH Flight Activity (Flightaware)

Listeners: 0 out of 1200 total

Zurich Ground: 121.905

LSZH Radar (Archives)
Zurich, Switzerland

Feed Status: UP
Listen in your browser - HTML5 player(in browser, HTML5)
Listen right in your browser(in browser, requires Flash)
Click here to listen with your own player(launches your MP3 player)

LSZH 110050Z VRB03KT 9999 FEW040 01/00 Q1023 NOSIG

LSZH Flight Activity (Flightaware)

Listeners: 3 out of 1200 total

Zurich Radar ACC (-FL240 East): 133.900
Zurich Radar ACC (-FL240 North): 136.150
Zurich Radar ACC (-FL240 South): 128.050
Zurich Radar ACC (-FL240 West): 135.675
Zurich Radar ACC (FL250-280): 133.050
Zurich Radar ACC (FL290-320): 132.815
Zurich Radar ACC (FL330-350): 134.600
Zurich Radar ACC (FL360+): 133.400

LSZH Radar 132.815 (Archives)
Zurich, Switzerland

Feed Status: UP
Listen in your browser - HTML5 player(in browser, HTML5)
Listen right in your browser(in browser, requires Flash)
Click here to listen with your own player(launches your MP3 player)

LSZH 110050Z VRB03KT 9999 FEW040 01/00 Q1023 NOSIG

LSZH Flight Activity (Flightaware)

Listeners: 1 out of 1200 total

Zurich Radar: 132.815

LSZH Radar 133.050 (Archives)
Zurich, Switzerland

Feed Status: UP
Listen in your browser - HTML5 player(in browser, HTML5)
Listen right in your browser(in browser, requires Flash)
Click here to listen with your own player(launches your MP3 player)

LSZH 110050Z VRB03KT 9999 FEW040 01/00 Q1023 NOSIG

LSZH Flight Activity (Flightaware)

Listeners: 0 out of 1200 total

Zurich Radar: 133.050

LSZH Radar 133.400 (Archives)
Zurich, Switzerland

Feed Status: UP
Listen in your browser - HTML5 player(in browser, HTML5)
Listen right in your browser(in browser, requires Flash)
Click here to listen with your own player(launches your MP3 player)

LSZH 110050Z VRB03KT 9999 FEW040 01/00 Q1023 NOSIG

LSZH Flight Activity (Flightaware)

Listeners: 0 out of 1200 total

Zurich Radar: 133.400

LSZH Radar 133.690 (Archives)
Zurich, Switzerland

Feed Status: UP
Listen in your browser - HTML5 player(in browser, HTML5)
Listen right in your browser(in browser, requires Flash)
Click here to listen with your own player(launches your MP3 player)

LSZH 110050Z VRB03KT 9999 FEW040 01/00 Q1023 NOSIG

LSZH Flight Activity (Flightaware)

Listeners: 0 out of 1200 total

Zurich Radar: 133.690

LSZH Radar 133.900 (Archives)
Zurich, Switzerland

Feed Status: UP
Listen in your browser - HTML5 player(in browser, HTML5)
Listen right in your browser(in browser, requires Flash)
Click here to listen with your own player(launches your MP3 player)

LSZH 110050Z VRB03KT 9999 FEW040 01/00 Q1023 NOSIG

LSZH Flight Activity (Flightaware)

Listeners: 0 out of 1200 total

Zurich Radar (Below FL240 East): 133.900

LSZH Radar 134.600 (Archives)
Zurich, Switzerland

Feed Status: UP
Listen in your browser - HTML5 player(in browser, HTML5)
Listen right in your browser(in browser, requires Flash)
Click here to listen with your own player(launches your MP3 player)

LSZH 110050Z VRB03KT 9999 FEW040 01/00 Q1023 NOSIG

LSZH Flight Activity (Flightaware)

Listeners: 0 out of 1200 total

Zurich Radar (FL330-350): 134.600

LSZH Radar 135.675 (Archives)
Zurich, Switzerland

Feed Status: UP
Listen in your browser - HTML5 player(in browser, HTML5)
Listen right in your browser(in browser, requires Flash)
Click here to listen with your own player(launches your MP3 player)

LSZH 110050Z VRB03KT 9999 FEW040 01/00 Q1023 NOSIG

LSZH Flight Activity (Flightaware)

Listeners: 0 out of 1200 total


LSZH Radar 136.150 (Archives)
Zurich, Switzerland

Feed Status: UP
Listen in your browser - HTML5 player(in browser, HTML5)
Listen right in your browser(in browser, requires Flash)
Click here to listen with your own player(launches your MP3 player)

LSZH 110050Z VRB03KT 9999 FEW040 01/00 Q1023 NOSIG

LSZH Flight Activity (Flightaware)

Listeners: 0 out of 1200 total

Zurich Radar (Below FL240 North): 136.150

LSZH Tower (Archives)
Zurich, Switzerland

Feed Status: UP
Listen in your browser - HTML5 player(in browser, HTML5)
Listen right in your browser(in browser, requires Flash)
Click here to listen with your own player(launches your MP3 player)

LSZH 110050Z VRB03KT 9999 FEW040 01/00 Q1023 NOSIG

LSZH Flight Activity (Flightaware)

Listeners: 2 out of 1200 total

Zurich Tower: 118.100

LSZH Tower #3 (Archives)
Zurich, Switzerland

Feed Status: UP
Listen in your browser - HTML5 player(in browser, HTML5)
Listen right in your browser(in browser, requires Flash)
Click here to listen with your own player(launches your MP3 player)

LSZH 110050Z VRB03KT 9999 FEW040 01/00 Q1023 NOSIG

LSZH Flight Activity (Flightaware)

Listeners: 0 out of 1200 total

Zurich Tower: 118.100

LSZH Tower (14/32) (Archives)
Zurich, Switzerland

Feed Status: UP
Listen in your browser - HTML5 player(in browser, HTML5)
Listen right in your browser(in browser, requires Flash)
Click here to listen with your own player(launches your MP3 player)

LSZH 110050Z VRB03KT 9999 FEW040 01/00 Q1023 NOSIG

LSZH Flight Activity (Flightaware)

Listeners: 0 out of 1200 total

Zurich Tower (Rwy 14 App/32 Takeoff): 120.225

LSZH Twr/Gnd (backup) (Archives)
Zurich, Switzerland

Feed Status: UP
Listen in your browser - HTML5 player(in browser, HTML5)
Listen right in your browser(in browser, requires Flash)
Click here to listen with your own player(launches your MP3 player)

LSZH 110050Z VRB03KT 9999 FEW040 01/00 Q1023 NOSIG

LSZH Flight Activity (Flightaware)

Listeners: 0 out of 1200 total

Zurich Twr/Gnd (backup): 119.700

LSZL Tower (Archives)
Locarno, Switzerland

Feed Status: UP
Listen in your browser - HTML5 player(in browser, HTML5)
Listen right in your browser(in browser, requires Flash)
Click here to listen with your own player(launches your MP3 player)

LSZL Flight Activity (Flightaware)

Listeners: 0 out of 1200 total


LSZR Tower (Archives)
Altenrhein, Switzerland

Feed Status: UP
Listen in your browser - HTML5 player(in browser, HTML5)
Listen right in your browser(in browser, requires Flash)
Click here to listen with your own player(launches your MP3 player)

LSZR 110050Z AUTO 34012KT 9999 FEW012 SCT020 BKN034CB 03/01 Q1023 RERASN

LSZR Flight Activity (Flightaware)

Listeners: 0 out of 1200 total

Altenrhein Tower: 135.425

LSZW CTAF (Archives)
Thun, Switzerland

Feed Status: UP
Listen in your browser - HTML5 player(in browser, HTML5)
Listen right in your browser(in browser, requires Flash)
Click here to listen with your own player(launches your MP3 player)

LSZW Flight Activity (Flightaware)

Listeners: 0 out of 1200 total

Thun CTAF/Info: 123.250

LTAF Tower/Approach (Archives)
Adana, Turkey

Feed Status: UP
Listen in your browser - HTML5 player(in browser, HTML5)
Listen right in your browser(in browser, requires Flash)
Click here to listen with your own player(launches your MP3 player)

LTAF 110052Z 28017G28KT 250V040 3100 TSGRRA SCT020CB BKN030 13/13 Q1009 RETSRA BECMG TL0120 99

LTAF Flight Activity (Flightaware)

Listeners: 1 out of 1200 total

Adana Approach: 118.300
Adana Tower: 131.100
Adana Tower: 121.100

LTFJ Del/Gnd/Twr #1 (Archives)
Istanbul, Turkey

Feed Status: UP
Listen in your browser - HTML5 player(in browser, HTML5)
Listen right in your browser(in browser, requires Flash)
Click here to listen with your own player(launches your MP3 player)

LTFJ 110050Z 30009KT 260V340 7000 -SHRA SCT013 BKN030 BKN070 07/05 Q1004 TEMPO 35023G33KT 4000 SHRA

LTFJ Flight Activity (Flightaware)

Listeners: 2 out of 1200 total

Gokcen Clearance Delivery: 122.625
Gokcen Ground: 121.750
Gokcen Tower: 118.800

LTFJ Del/Gnd/Twr #2 (Archives)
Istanbul, Turkey

Feed Status: UP
Listen in your browser - HTML5 player(in browser, HTML5)
Listen right in your browser(in browser, requires Flash)
Click here to listen with your own player(launches your MP3 player)

LTFJ 110050Z 30009KT 260V340 7000 -SHRA SCT013 BKN030 BKN070 07/05 Q1004 TEMPO 35023G33KT 4000 SHRA

LTFJ Flight Activity (Flightaware)

Listeners: 0 out of 1200 total

Gokcen Clearance Delivery: 122.625
Gokcen Ground: 121.750
Gokcen Tower: 118.800

LUKK ACC #1 (Archives)
Chisinau, Moldova

Feed Status: UP
Listen in your browser - HTML5 player(in browser, HTML5)
Listen right in your browser(in browser, requires Flash)
Click here to listen with your own player(launches your MP3 player)

LUKK 110030Z 34005KT 0700 R08/2000N FZFG VV001 M00/M00 Q1009 R08/120095 TEMPO 1200 BR

LUKK Flight Activity (Flightaware)

Listeners: 0 out of 1200 total

Chisinau ACC: 130.975

Runway 08 Blog

LUKK ACC #2 (Archives)
Chisinau, Moldova

Feed Status: UP
Listen in your browser - HTML5 player(in browser, HTML5)
Listen right in your browser(in browser, requires Flash)
Click here to listen with your own player(launches your MP3 player)

LUKK 110030Z 34005KT 0700 R08/2000N FZFG VV001 M00/M00 Q1009 R08/120095 TEMPO 1200 BR

LUKK Flight Activity (Flightaware)

Listeners: 0 out of 1200 total

Chisinau ACC: 128.975

Runway 08 Blog

LUKK Air to Air (Archives)
Chisinau, Moldova

Feed Status: UP
Listen in your browser - HTML5 player(in browser, HTML5)
Listen right in your browser(in browser, requires Flash)
Click here to listen with your own player(launches your MP3 player)

LUKK 110030Z 34005KT 0700 R08/2000N FZFG VV001 M00/M00 Q1009 R08/120095 TEMPO 1200 BR

LUKK Flight Activity (Flightaware)

Listeners: 0 out of 1200 total

Chisinau Air to Air: 123.450

Runway 08 Blog

LUKK Alternate (Archives)
Chisinau, Moldova

Feed Status: UP
Listen in your browser - HTML5 player(in browser, HTML5)
Listen right in your browser(in browser, requires Flash)
Click here to listen with your own player(launches your MP3 player)

LUKK 110030Z 34005KT 0700 R08/2000N FZFG VV001 M00/M00 Q1009 R08/120095 TEMPO 1200 BR

LUKK Flight Activity (Flightaware)

Listeners: 0 out of 1200 total

Chisinau Alternate: 129.725

LUKK Approach #1 (Archives)
Chisinau, Moldova

Feed Status: UP
Listen in your browser - HTML5 player(in browser, HTML5)
Listen right in your browser(in browser, requires Flash)
Click here to listen with your own player(launches your MP3 player)

LUKK 110030Z 34005KT 0700 R08/2000N FZFG VV001 M00/M00 Q1009 R08/120095 TEMPO 1200 BR

LUKK Flight Activity (Flightaware)

Listeners: 0 out of 1200 total

Chisinau Approach: 133.300

LUKK Approach #2 (Archives)
Chisinau, Moldova

Feed Status: UP
Listen in your browser - HTML5 player(in browser, HTML5)
Listen right in your browser(in browser, requires Flash)
Click here to listen with your own player(launches your MP3 player)

LUKK 110030Z 34005KT 0700 R08/2000N FZFG VV001 M00/M00 Q1009 R08/120095 TEMPO 1200 BR

LUKK Flight Activity (Flightaware)

Listeners: 0 out of 1200 total

Chisinau Approach: 133.300

Runway 08 Blog

LUKK Control (Archives)
Chisinau, Moldova

Feed Status: UP
Listen in your browser - HTML5 player(in browser, HTML5)
Listen right in your browser(in browser, requires Flash)
Click here to listen with your own player(launches your MP3 player)

LUKK 110030Z 34005KT 0700 R08/2000N FZFG VV001 M00/M00 Q1009 R08/120095 TEMPO 1200 BR

LUKK Flight Activity (Flightaware)

Listeners: 0 out of 1200 total

Chisinau ACC: 128.975
Chisinau ACC: 130.975

LUKK Emergency/Guard (Archives)
Chisinau, Moldova

Feed Status: UP
Listen in your browser - HTML5 player(in browser, HTML5)
Listen right in your browser(in browser, requires Flash)
Click here to listen with your own player(launches your MP3 player)

LUKK 110030Z 34005KT 0700 R08/2000N FZFG VV001 M00/M00 Q1009 R08/120095 TEMPO 1200 BR

LUKK Flight Activity (Flightaware)

Listeners: 0 out of 1200 total

Emergency/Guard: 121.500

Runway 08 Blog

LUKK Ground #1 (Archives)
Chisinau, Moldova

Feed Status: UP
Listen in your browser - HTML5 player(in browser, HTML5)
Listen right in your browser(in browser, requires Flash)
Click here to listen with your own player(launches your MP3 player)

LUKK 110030Z 34005KT 0700 R08/2000N FZFG VV001 M00/M00 Q1009 R08/120095 TEMPO 1200 BR

LUKK Flight Activity (Flightaware)

Listeners: 0 out of 1200 total

Chisinau Ground: 121.800

LUKK Ground #2 (Archives)
Chisinau, Moldova

Feed Status: UP
Listen in your browser - HTML5 player(in browser, HTML5)
Listen right in your browser(in browser, requires Flash)
Click here to listen with your own player(launches your MP3 player)

LUKK 110030Z 34005KT 0700 R08/2000N FZFG VV001 M00/M00 Q1009 R08/120095 TEMPO 1200 BR

LUKK Flight Activity (Flightaware)

Listeners: 0 out of 1200 total

Chisinau Ground: 121.800

Runway 08 Blog

LUKK Handling (Archives)
Chisinau, Moldova

Feed Status: UP
Listen in your browser - HTML5 player(in browser, HTML5)
Listen right in your browser(in browser, requires Flash)
Click here to listen with your own player(launches your MP3 player)

LUKK 110030Z 34005KT 0700 R08/2000N FZFG VV001 M00/M00 Q1009 R08/120095 TEMPO 1200 BR

LUKK Flight Activity (Flightaware)

Listeners: 0 out of 1200 total

Chisinau Handling: 131.700

Runway 08 Blog

LUKK Tower #1 (Archives)
Chisinau, Moldova

Feed Status: UP
Listen in your browser - HTML5 player(in browser, HTML5)
Listen right in your browser(in browser, requires Flash)
Click here to listen with your own player(launches your MP3 player)

LUKK 110030Z 34005KT 0700 R08/2000N FZFG VV001 M00/M00 Q1009 R08/120095 TEMPO 1200 BR

LUKK Flight Activity (Flightaware)

Listeners: 1 out of 1200 total

Chisinau Tower: 118.100

LUKK Tower #2 (Archives)
Chisinau, Moldova

Feed Status: UP
Listen in your browser - HTML5 player(in browser, HTML5)
Listen right in your browser(in browser, requires Flash)
Click here to listen with your own player(launches your MP3 player)

LUKK 110030Z 34005KT 0700 R08/2000N FZFG VV001 M00/M00 Q1009 R08/120095 TEMPO 1200 BR

LUKK Flight Activity (Flightaware)

Listeners: 0 out of 1200 total

Chisinau Tower: 118.100

Runway 08 Blog

LWSK ACC (Lower) (Archives)
Petrovec, Macedonia, Republic of

Feed Status: UP
Listen in your browser - HTML5 player(in browser, HTML5)
Listen right in your browser(in browser, requires Flash)
Click here to listen with your own player(launches your MP3 player)

LWSK 110100Z 07003KT 9999 FEW050 02/M01 Q1014 NOSIG

LWSK Flight Activity (Flightaware)

Listeners: 0 out of 1200 total

Skopje Control (Lower): 119.375

LWSK ACC (Upper) (Archives)
Petrovec, Macedonia, Republic of

Feed Status: UP
Listen in your browser - HTML5 player(in browser, HTML5)
Listen right in your browser(in browser, requires Flash)
Click here to listen with your own player(launches your MP3 player)

LWSK 110100Z 07003KT 9999 FEW050 02/M01 Q1014 NOSIG

LWSK Flight Activity (Flightaware)

Listeners: 0 out of 1200 total

Skopje Control (Upper): 120.015

LWSK Approach (Archives)
Petrovec, Macedonia, Republic of

Feed Status: UP
Listen in your browser - HTML5 player(in browser, HTML5)
Listen right in your browser(in browser, requires Flash)
Click here to listen with your own player(launches your MP3 player)

LWSK 110100Z 07003KT 9999 FEW050 02/M01 Q1014 NOSIG

LWSK Flight Activity (Flightaware)

Listeners: 0 out of 1200 total

Skopje Approach/Departure: 120.300

LWSK ATIS (Archives)
Petrovec, Macedonia, Republic of

Feed Status: UP
Listen in your browser - HTML5 player(in browser, HTML5)
Listen right in your browser(in browser, requires Flash)
Click here to listen with your own player(launches your MP3 player)

LWSK 110100Z 07003KT 9999 FEW050 02/M01 Q1014 NOSIG

LWSK Flight Activity (Flightaware)

Listeners: 0 out of 1200 total

Skopje ATIS: 130.125

LWSK Tower (Archives)
Petrovec, Macedonia, Republic of

Feed Status: UP
Listen in your browser - HTML5 player(in browser, HTML5)
Listen right in your browser(in browser, requires Flash)
Click here to listen with your own player(launches your MP3 player)

LWSK 110100Z 07003KT 9999 FEW050 02/M01 Q1014 NOSIG

LWSK Flight Activity (Flightaware)

Listeners: 0 out of 1200 total

Skopje Tower: 118.500

LZIB Del/Twr/App (Archives)
Bratislava, Slovakia

Feed Status: UP
Listen in your browser - HTML5 player(in browser, HTML5)
Listen right in your browser(in browser, requires Flash)
Click here to listen with your own player(launches your MP3 player)

LZIB 110030Z 18006KT 150V220 9999 FEW026 SCT052 02/M02 Q1014

LZIB Flight Activity (Flightaware)

Listeners: 2 out of 1200 total

Stefanik Approach: 120.900
Stefanik Clearance Delivery: 118.975
Stefanik Tower: 118.300
Stefanik Tower (backup): 118.700

(c) LPS

LZKZ Gnd/Twr/App (Archives)
Kosice, Slovakia

Feed Status: UP
Listen in your browser - HTML5 player(in browser, HTML5)
Listen right in your browser(in browser, requires Flash)
Click here to listen with your own player(launches your MP3 player)

LZKZ 110030Z 12002KT CAVOK M01/M02 Q1011

LZKZ Flight Activity (Flightaware)

Listeners: 0 out of 1200 total

Kosice Approach: 119.850
Kosice Ground: 121.700
Kosice Handling: 131.850
Kosice Tower: 120.400

LZPE CTAF/UNICOM (Archives)
Prievidza, Slovakia

Feed Status: UP
Listen in your browser - HTML5 player(in browser, HTML5)
Listen right in your browser(in browser, requires Flash)
Click here to listen with your own player(launches your MP3 player)

LZPE Flight Activity (Flightaware)

Listeners: 0 out of 1200 total

Prievidza CTAF/UNICOM: 123.055

LZPP Ground/Tower (Archives)
Piestany, Slovakia

Feed Status: UP
Listen in your browser - HTML5 player(in browser, HTML5)
Listen right in your browser(in browser, requires Flash)
Click here to listen with your own player(launches your MP3 player)

LZPP 110030Z AUTO 31005KT 270V360 9999 OVC066/// 01/M02 Q1013

LZPP Flight Activity (Flightaware)

Listeners: 1 out of 1200 total

Piestany Ground: 121.700
Piestany Tower: 118.575

LZPT CTAF (Archives)
Partizanske, Slovakia

Feed Status: UP
Listen in your browser - HTML5 player(in browser, HTML5)
Listen right in your browser(in browser, requires Flash)
Click here to listen with your own player(launches your MP3 player)

LZPT Flight Activity (Flightaware)

Listeners: 0 out of 1200 total

Male Bielice CTAF: 123.500

HF CWP 8903
Manila, Philippines

Feed Status: DOWN
Offline since: 2018-12-10 13:42:02 UTC

HF CWP: 8.903

Receiver location: Manila, Philippines

HF CWP-1 11384
Manila, Philippines

Feed Status: DOWN
Offline since: 2018-12-10 13:42:02 UTC

HF CWP-1 Toyko/Manila/San Francisco: 11.384

Receiver location: Manila, Philippines

HF RDARA Bali 8918
Manila, Philippines

Feed Status: DOWN
Offline since: 2018-12-10 13:42:02 UTC

HF RDARA Bali: 8.918

Receiver location: Manila, Philippines

HF SEA 11300
Manila, Philippines

Feed Status: DOWN
Offline since: 2018-09-02 17:32:02 UTC

HF SEA: 11.300

Receiver location: Manila, Philippines

HF SEA 5517
Manila, Philippines

Feed Status: DOWN
Offline since: 2018-09-02 17:32:02 UTC

HF SEA: 5.517

Receiver location: Manila, Philippines

HF SEA 6532
Manila, Philippines

Feed Status: DOWN
Offline since: 2018-09-02 17:32:02 UTC

HF SEA: 6.532

Receiver location: Manila, Philippines

HF SEA 8882
Manila, Philippines

Feed Status: DOWN
Offline since: 2018-12-10 13:42:02 UTC

HF SEA: 8.882

Receiver location: Manila, Philippines

HF SEA 8951
Manila, Philippines

Feed Status: DOWN
Offline since: 2018-12-10 13:42:02 UTC

HF SEA: 8.951

Receiver location: Manila, Philippines

HF SEA-2 6556
Manila, Philippines

Feed Status: DOWN
Offline since: 2018-12-10 13:42:02 UTC

HF CEP2: 11.282
HF SEA-2 Singapore: 6.556

Receiver location: Manila, Philippines

HF SEA-2 8942
Manila, Philippines

Feed Status: DOWN
Offline since: 2018-12-10 13:42:02 UTC

HF SEA-2: 8.942

Receiver location: Manila, Philippines

HF SEA-3 11396
Manila, Philippines

Feed Status: DOWN
Offline since: 2018-12-10 13:42:02 UTC

HF SEA-3 Brisbane/Ujung Pandang: 11.396

Receiver location: Manila, Philippines

MGGT Gnd/Twr (Archives)
Guatemala City, Guatemala

Feed Status: UP
Listen in your browser - HTML5 player(in browser, HTML5)
Listen right in your browser(in browser, requires Flash)
Click here to listen with your own player(launches your MP3 player)

MGGT 110100Z 36020KT 9999 BKN016 18/13 Q1027 A3033

MGGT Flight Activity (Flightaware)

Listeners: 1 out of 1200 total

Guatemala City Ground: 121.900
Guatemala City Tower: 118.100

MGGT Ground (Archives)
Guatemala City, Guatemala

Feed Status: UP
Listen in your browser - HTML5 player(in browser, HTML5)
Listen right in your browser(in browser, requires Flash)
Click here to listen with your own player(launches your MP3 player)

MGGT 110100Z 36020KT 9999 BKN016 18/13 Q1027 A3033

MGGT Flight Activity (Flightaware)

Listeners: 0 out of 1200 total

Guatemala City Ground: 121.900

MHLC Gnd/Twr/Center (Archives)
La Ceiba, Honduras

Feed Status: UP
Listen in your browser - HTML5 player(in browser, HTML5)
Listen right in your browser(in browser, requires Flash)
Click here to listen with your own player(launches your MP3 player)

MHLC 110100Z 20002KT 8000 -RA BKN018TCU SCT070 23/23 Q1018 A3006 NOSIG

MHLC Flight Activity (Flightaware)

Listeners: 0 out of 1200 total

CENAMER: 123.900
CENAMER: 124.300
Goloson Ground: 121.900
Goloson Tower: 118.500
La Ceiba Radio: 128.900

MHRO Gnd/Twr/App/Center (Archives)
Roatan, Honduras

Feed Status: UP
Listen in your browser - HTML5 player(in browser, HTML5)
Listen right in your browser(in browser, requires Flash)
Click here to listen with your own player(launches your MP3 player)

MHRO 110100Z 02008KT 9999 FEW020 SCT070 26/23 Q1017 A3003 NOSIG

MHRO Flight Activity (Flightaware)

Listeners: 0 out of 1200 total

CENAMER (Center): 124.300
La Ceiba Radio: 128.900
Roatan Ground: 121.600
Roatan Tower: 118.100

MHTG ATIS (Archives)
Tegucigalpa, Honduras

Feed Status: UP
Listen in your browser - HTML5 player(in browser, HTML5)
Listen right in your browser(in browser, requires Flash)
Click here to listen with your own player(launches your MP3 player)

MHTG 110100Z 36016KT 9999 BKN028 21/16 Q1020 A3012 NOSIG

MHTG Flight Activity (Flightaware)

Listeners: 0 out of 1200 total

Toncontin ATIS: 127.750

MHTG Gnd/Twr/App/Ctr/Ops (Archives)
Tegucigalpa, Honduras

Feed Status: UP
Listen in your browser - HTML5 player(in browser, HTML5)
Listen right in your browser(in browser, requires Flash)
Click here to listen with your own player(launches your MP3 player)

MHTG 110100Z 36016KT 9999 BKN028 21/16 Q1020 A3012 NOSIG

MHTG Flight Activity (Flightaware)

Listeners: 0 out of 1200 total

American Airlines Ops: 130.700
ARINC ACARS: 131.550
Cenamer Center: 123.900
Cenamer Center: 124.300
Cenamer Center: 124.100
CMP Ops: 129.925
Continental Airlines Ops: 129.925
FAH Ground: 122.900
Taca Ops: 131.300
Taca Ops Sal: 130.300
Tecnologias Unidas: 133.000
Tegucigalpa RDO: 126.700
Toncontin Approach: 119.100
Toncontin Ground: 121.900
Toncontin Tower: 118.700

MMAN Tower (Archives)
Monterrey, Mexico

Feed Status: UP
Listen in your browser - HTML5 player(in browser, HTML5)
Listen right in your browser(in browser, requires Flash)
Click here to listen with your own player(launches your MP3 player)

MMAN 110042Z 11005KT 7SM SKC 13/07 A3039 RMK HZY ISOL SC

MMAN Flight Activity (Flightaware)

Listeners: 0 out of 1200 total

Monterrey Tower: 118.600

MMCU Twr/App (Archives)
Chihuahua, Mexico

Feed Status: UP
Listen in your browser - HTML5 player(in browser, HTML5)
Listen right in your browser(in browser, requires Flash)
Click here to listen with your own player(launches your MP3 player)

MMCU 110040Z 10006KT 10SM BKN200 11/02 A3030 RMK 8/002

MMCU Flight Activity (Flightaware)

Listeners: 0 out of 1200 total

Chihuahua Approach: 121.000
Chihuahua Tower: 118.400

MMGL Twr/App (Archives)
Guadalajara, Mexico

Feed Status: UP
Listen in your browser - HTML5 player(in browser, HTML5)
Listen right in your browser(in browser, requires Flash)
Click here to listen with your own player(launches your MP3 player)

MMGL 110043Z 20003KT 8SM FEW030 19/09 A3021 RMK 8/500 CI

MMGL Flight Activity (Flightaware)

Listeners: 8 out of 1200 total

Guadalajara Approach: 120.800
Guadalajara Tower: 118.100

MMHO App/Dep (Archives)
Hermosillo, Mexico

Feed Status: UP
Listen in your browser - HTML5 player(in browser, HTML5)
Listen right in your browser(in browser, requires Flash)
Click here to listen with your own player(launches your MP3 player)

MMHO 110040Z 25003KT 10SM BKN200 26/03 A3000 RMK 8/008 HZY

MMHO Flight Activity (Flightaware)

Listeners: 0 out of 1200 total

Hermosillo Approach/Departure: 121.400

MMHO Tower (Archives)
Hermosillo, Mexico

Feed Status: UP
Listen in your browser - HTML5 player(in browser, HTML5)
Listen right in your browser(in browser, requires Flash)
Click here to listen with your own player(launches your MP3 player)

MMHO 110040Z 25003KT 10SM BKN200 26/03 A3000 RMK 8/008 HZY

MMHO Flight Activity (Flightaware)

Listeners: 0 out of 1200 total

Hermosillo Tower: 118.700

MMLP Twr/App/Center (Archives)
La Paz, Mexico

Feed Status: UP
Listen in your browser - HTML5 player(in browser, HTML5)
Listen right in your browser(in browser, requires Flash)
Click here to listen with your own player(launches your MP3 player)

MMLP 110043Z 02008KT 10SM SCT220 22/16 A2998 RMK 8/008

MMLP Flight Activity (Flightaware)

Listeners: 0 out of 1200 total

La Paz Approach: 120.600
La Paz Tower: 118.100
Mazatlan Center: 128.000
Mazatlan Center: 124.400
Mazatlan Center: 128.300
Mazatlan Center: 124.200
Mazatlan Center: 126.300
Mazatlan Center: 126.500
San Jose Approach: 120.900

Merida Center (West 123.75) (Archives)
Merida, Mexico

Feed Status: UP
Listen in your browser - HTML5 player(in browser, HTML5)
Listen right in your browser(in browser, requires Flash)
Click here to listen with your own player(launches your MP3 player)

MMID Flight Activity (Flightaware)

Listeners: 0 out of 1200 total

Merida Center (West): 123.750

Merida Center (West 125.8) (Archives)
Merida, Mexico

Feed Status: UP
Listen in your browser - HTML5 player(in browser, HTML5)
Listen right in your browser(in browser, requires Flash)
Click here to listen with your own player(launches your MP3 player)

MMID Flight Activity (Flightaware)

Listeners: 0 out of 1200 total

Merida Center (West): 125.800

MMMD Tower/Approach (Archives)
Merida, Mexico

Feed Status: UP
Listen in your browser - HTML5 player(in browser, HTML5)
Listen right in your browser(in browser, requires Flash)
Click here to listen with your own player(launches your MP3 player)

MMMD 110050Z 01006KT 7SM FEW020 SCT300 22/14 A3020 RMK 8/508

MMMD Flight Activity (Flightaware)

Listeners: 2 out of 1200 total

Merida Approach: 121.200
Merida Tower: 118.300

MMMM Tower (Archives)
Morelia, Mexico

Feed Status: UP
Listen in your browser - HTML5 player(in browser, HTML5)
Listen right in your browser(in browser, requires Flash)
Click here to listen with your own player(launches your MP3 player)

MMMM 110041Z 33004KT 7SM SCT230 16/10 A3028 RMK 8/008 HZY

MMMM Flight Activity (Flightaware)

Listeners: 1 out of 1200 total

Morelia Tower: 118.500

MMMX Approach (Archives)
Mexico City, Mexico

Feed Status: UP
Listen in your browser - HTML5 player(in browser, HTML5)
Listen right in your browser(in browser, requires Flash)
Click here to listen with your own player(launches your MP3 player)

MMMX 110050Z 02005KT 5SM SCT020 BKN200 17/07 A3037 NOSIG RMK 8/402 HZY ISOL AC

MMMX Flight Activity (Flightaware)

Listeners: 1 out of 1200 total

Mexico City Approach: 121.200

MMMX Dep/Center (Archives)
Mexico City, Mexico

Feed Status: UP
Listen in your browser - HTML5 player(in browser, HTML5)
Listen right in your browser(in browser, requires Flash)
Click here to listen with your own player(launches your MP3 player)

MMMX 110050Z 02005KT 5SM SCT020 BKN200 17/07 A3037 NOSIG RMK 8/402 HZY ISOL AC

MMMX Flight Activity (Flightaware)

Listeners: 0 out of 1200 total

Mexico Center (Sector 1, NorthEast MEX): 126.600
Mexico Center (Sector 2, East MEX) : 128.000
Mexico Center (Sector 3, South MEX): 128.500
Mexico Center (Sector 4, SouthWest MEX): 123.000
Mexico Center (Sector 5, West MEX): 125.100
Mexico Center (Sector 6, North MEX): 126.000
Mexico City Departure (East): 120.500
Mexico City Departure (West): 129.100

MMMX Twr/App (Archives)
Mexico City, Mexico

Feed Status: UP
Listen in your browser - HTML5 player(in browser, HTML5)
Listen right in your browser(in browser, requires Flash)
Click here to listen with your own player(launches your MP3 player)

MMMX 110050Z 02005KT 5SM SCT020 BKN200 17/07 A3037 NOSIG RMK 8/402 HZY ISOL AC

MMMX Flight Activity (Flightaware)

Listeners: 10 out of 1200 total

Mexico City Approach: 121.200
Mexico City Final Approach: 119.750
Mexico City Helicopters: 118.150
Mexico City Terminal: 129.600
Mexico City Tower: 118.550

MMMY Tower/Approach (Archives)
Monterrey, Mexico

Feed Status: UP
Listen in your browser - HTML5 player(in browser, HTML5)
Listen right in your browser(in browser, requires Flash)
Click here to listen with your own player(launches your MP3 player)

MMMY 110042Z 10005KT 7SM FEW070 11/11 A3035 RMK 8/070 HZY

MMMY Flight Activity (Flightaware)

Listeners: 2 out of 1200 total

Monterrey Approach/Departure: 119.750
Monterrey Tower: 118.100

MMPC CTAF (Archives)
Pachuca, Mexico

Feed Status: UP
Listen in your browser - HTML5 player(in browser, HTML5)
Listen right in your browser(in browser, requires Flash)
Click here to listen with your own player(launches your MP3 player)

MMPC Flight Activity (Flightaware)

Listeners: 0 out of 1200 total

Pachuca CTAF/AFIS: 122.900

MMQT Tower
Queretaro, Mexico

Feed Status: DOWN
Offline since: 2018-12-11 00:02:02 UTC

MMQT 110047Z 09009KT 6SM FEW020 BKN200 11/06 A3040 RMK 8/502 HZY

Queretaro Tower: 118.950

MMQT Tower/App (Archives)
Queretaro, Mexico

Feed Status: UP
Listen in your browser - HTML5 player(in browser, HTML5)
Listen right in your browser(in browser, requires Flash)
Click here to listen with your own player(launches your MP3 player)

MMQT 110047Z 09009KT 6SM FEW020 BKN200 11/06 A3040 RMK 8/502 HZY

MMQT Flight Activity (Flightaware)

Listeners: 0 out of 1200 total

Queretaro Approach: 127.200
Queretaro Tower: 118.950

MMSP Gnd/Twr/App/Center (Archives)
San Luis Potosi, Mexico

Feed Status: UP
Listen in your browser - HTML5 player(in browser, HTML5)
Listen right in your browser(in browser, requires Flash)
Click here to listen with your own player(launches your MP3 player)

MMSP 110040Z 36005KT 10SM SKC 09/05 A3037 RMK LWR ST 1QUAD

MMSP Flight Activity (Flightaware)

Listeners: 0 out of 1200 total

AMX Ground Ops: 131.000
Mexico Center (North, Sector 6): 126.000
Mexico Center (Northwest, Sector 7): 123.900
Mexico Center (West, Sector 5): 125.100
Potosi Approach: 127.500
Potosi Tower: 118.900
TAO Ground Ops: 133.600

MMTC Twr/App/Center (Archives)
Torreon, Mexico

Feed Status: UP
Listen in your browser - HTML5 player(in browser, HTML5)
Listen right in your browser(in browser, requires Flash)
Click here to listen with your own player(launches your MP3 player)

MMTC 110045Z 00000KT 10SM FEW230 16/06 A3028 RMK 8/002

MMTC Flight Activity (Flightaware)

Listeners: 0 out of 1200 total

Mazatlan Center: 124.200
Mazatlan Center: 124.400
Mazatlan Center: 128.000
Mexico Center: 123.900
Monterrey Center: 125.600
Monterrey Center: 125.425
Monterrey Center: 127.400
Torreon Approach: 119.500
Torreon Tower: 118.500

MMTJ Approach (Archives)
Tijuana, Mexico

Feed Status: UP
Listen in your browser - HTML5 player(in browser, HTML5)
Listen right in your browser(in browser, requires Flash)
Click here to listen with your own player(launches your MP3 player)

MMTJ 110040Z 28009KT 8SM FEW015 OVC200 15/14 A3005 RMK 8/508 HZY

MMTJ Flight Activity (Flightaware)

Listeners: 0 out of 1200 total

Tijuana Approach: 120.300

MMTJ Twr/Ramp (Archives)
Tijuana, Mexico

Feed Status: UP
Listen in your browser - HTML5 player(in browser, HTML5)
Listen right in your browser(in browser, requires Flash)
Click here to listen with your own player(launches your MP3 player)

MMTJ 110040Z 28009KT 8SM FEW015 OVC200 15/14 A3005 RMK 8/508 HZY

MMTJ Flight Activity (Flightaware)

Listeners: 0 out of 1200 total

Tijuana Ramp: 126.100
Tijuana Tower: 118.100

MPMG Ground
Panama City, Panama

Feed Status: DOWN
Offline since: 2018-05-13 23:58:04 UTC

Gelabert Ground: 121.700

MPMG Tower
Panama City, Panama

Feed Status: DOWN
Offline since: 2018-05-13 23:58:04 UTC

Gelabert Tower: 118.300

MROC Del/Gnd/Twr (Archives)
San Jose, Costa Rica

Feed Status: UP
Listen in your browser - HTML5 player(in browser, HTML5)
Listen right in your browser(in browser, requires Flash)
Click here to listen with your own player(launches your MP3 player)

MROC 110100Z 10011G21KT 070V120 9999 FEW035 SCT080 22/17 A3002 NOSIG

MROC Flight Activity (Flightaware)

Listeners: 0 out of 1200 total

Coco Clearance Delivery/Ground: 121.900
Coco Tower: 118.600

MROC Del/Gnd/Twr/App/Center/Misc (Archives)
San Jose, Costa Rica

Feed Status: UP
Listen in your browser - HTML5 player(in browser, HTML5)
Listen right in your browser(in browser, requires Flash)
Click here to listen with your own player(launches your MP3 player)

MROC 110100Z 10011G21KT 070V120 9999 FEW035 SCT080 22/17 A3002 NOSIG

MROC Flight Activity (Flightaware)

Listeners: 4 out of 1200 total

Central American Center (CENAMER Control): 124.100
Coco Center (Control over CR Airspace): 119.600
Coco Clearance Delivery: 121.300
Coco Ground: 121.900
Coco Terminal Control: 120.500
Coco Tower: 118.600
Coco UNICOM: 126.800
SYQ Ground: 121.700
SYQ Tower: 118.300

MSLP Gnd/Twr/App/Center (Archives)
San Salvador, El Salvador

Feed Status: UP
Listen in your browser - HTML5 player(in browser, HTML5)
Listen right in your browser(in browser, requires Flash)
Click here to listen with your own player(launches your MP3 player)

MSLP 110050Z VRB01KT 9999 FEW078 25/23 Q1012 A2990 NOSIG

MSLP Flight Activity (Flightaware)

Listeners: 0 out of 1200 total

Avianca Ops: 123.500
CCA: 119.300
CENAMER: 124.100
Comalapa Authorizations: 121.250
Comalapa Departure: 123.900
Comalapa Ground: 121.700
Comalapa Tower: 118.000
Compalapa Approach: 119.900
Ilopango Tower: 118.300
TACA Ops: 130.500

MUFH Havana FIR (App/Center)
Havana, Cuba

Feed Status: DOWN
Offline since: 2018-11-02 22:44:03 UTC

Hava Approach: 120.300
Havana Center: 120.250
Havana Center: 123.700
Havana Center: 124.550
Havana Center: 133.700
Havana Center: 135.100

OKBK Gnd/Twr/App/Radar (Archives)
Kuwait City, Kuwait

Feed Status: UP
Listen in your browser - HTML5 player(in browser, HTML5)
Listen right in your browser(in browser, requires Flash)
Click here to listen with your own player(launches your MP3 player)

OKBK 110100Z 33003KT 7000 SKC 14/13 Q1019 NOSIG


Listeners: 5 out of 1200 total

Kuwait Approach: 121.300
Kuwait Approach: 124.800
Kuwait Ground: 121.700
Kuwait Radar (Center): 125.300
Kuwait Tower: 118.300

OPKC Gnd/Twr/Radar (Archives)
Karachi, Pakistan

Feed Status: UP
Listen in your browser - HTML5 player(in browser, HTML5)
Listen right in your browser(in browser, requires Flash)
Click here to listen with your own player(launches your MP3 player)

OPKC 110025Z 03008KT 4000 FU NSC 17/11 Q1013 NOSIG


Listeners: 2 out of 1200 total

Karachi Ground: 121.600
Karachi Radar: 125.500
Karachi Tower: 118.300

OPLA ATIS (Archives)
Lahore, Pakistan

Feed Status: UP
Listen in your browser - HTML5 player(in browser, HTML5)
Listen right in your browser(in browser, requires Flash)
Click here to listen with your own player(launches your MP3 player)

OPLA 110025Z 01006KT 4000 FU SCT040 10/08 Q1016 RMK QFE990 RMK A29.99


Listeners: 0 out of 1200 total

Lahore ATIS: 126.300

OPLA/OPLH Gnd/Twr/App (Archives)
Lahore, Pakistan

Feed Status: UP
Listen in your browser - HTML5 player(in browser, HTML5)
Listen right in your browser(in browser, requires Flash)
Click here to listen with your own player(launches your MP3 player)

OPLA 110025Z 01006KT 4000 FU SCT040 10/08 Q1016 RMK QFE990 RMK A29.99


Listeners: 1 out of 1200 total

Lahore Approach: 121.300
Lahore Approach: 125.300
Lahore Control: 127.500
Lahore Ground: 118.400
Lahore Tower: 118.100
Lahore Tower: 121.800
Walton (OPLH) Tower: 119.400

OPLA/OPLH Gnd/Twr/App (Archives)
Lahore, Pakistan

Feed Status: UP
Listen in your browser - HTML5 player(in browser, HTML5)
Listen right in your browser(in browser, requires Flash)
Click here to listen with your own player(launches your MP3 player)

OPLA 110025Z 01006KT 4000 FU SCT040 10/08 Q1016 RMK QFE990 RMK A29.99


Listeners: 1 out of 1200 total

Lahore Approach: 121.300
Lahore Approach: 125.300
Lahore Control: 127.500
Lahore Ground: 118.400
Lahore Tower: 118.100
Lahore Tower: 121.800
Walton (OPLH) Tower: 119.400

OPPS Tower/App
Peshawar, Pakistan

Feed Status: DOWN
Offline since: 2018-07-12 21:43:02 UTC

OPPS 110100Z 00000KT 4000 HZ SCT040 SCT100 11/09 Q1019

Peshawar Approach: 125.600
Peshawar Tower: 121.300
Peshawar Tower: 122.900

OPRN Approach
Islamabad, Pakistan

Feed Status: DOWN
Offline since: 2018-10-20 12:11:02 UTC

OPRN 110030Z 00000KT 2500 BR FEW040 SCT100 07/07 Q1019 BECMG 1500 RMK A3010

Islamabad Approach: 124.900

OPRN ATIS
Islamabad, Pakistan

Feed Status: DOWN
Offline since: 2018-10-20 12:11:02 UTC

OPRN 110030Z 00000KT 2500 BR FEW040 SCT100 07/07 Q1019 BECMG 1500 RMK A3010

Islamabad ATIS: 129.600

OPRN Tower
Islamabad, Pakistan

Feed Status: DOWN
Offline since: 2018-10-20 12:11:02 UTC

OPRN 110030Z 00000KT 2500 BR FEW040 SCT100 07/07 Q1019 BECMG 1500 RMK A3010

Islamabad Tower: 123.700

OPRN Tower/App
Islamabad, Pakistan

Feed Status: DOWN
Offline since: 2018-10-20 12:11:02 UTC

OPRN 110030Z 00000KT 2500 BR FEW040 SCT100 07/07 Q1019 BECMG 1500 RMK A3010

Islamabad Approach: 124.900
Islamabad Tower: 123.700

RCTP Approach (Archives)
Taipei, Taiwan

Feed Status: UP
Listen in your browser - HTML5 player(in browser, HTML5)
Listen right in your browser(in browser, requires Flash)
Click here to listen with your own player(launches your MP3 player)

RCTP 110030Z 02009KT 9000 -RA SCT003 BKN005 BKN015 20/20 Q1019 NOSIG RMK A3010

RCTP Flight Activity (Flightaware)

Listeners: 0 out of 1200 total

Emergency/Guard: 121.500
Taipei Approach: 125.100
Taipei Approach: 125.600
Taipei Approach: 128.500

RCTP Tower (Archives)
Taipei, Taiwan

Feed Status: UP
Listen in your browser - HTML5 player(in browser, HTML5)
Listen right in your browser(in browser, requires Flash)
Click here to listen with your own player(launches your MP3 player)

RCTP 110030Z 02009KT 9000 -RA SCT003 BKN005 BKN015 20/20 Q1019 NOSIG RMK A3010

RCTP Flight Activity (Flightaware)

Listeners: 1 out of 1200 total

Taipei Tower: 118.700

RJAA Approach (Archives)
Tokyo, Japan

Feed Status: UP
Listen in your browser - HTML5 player(in browser, HTML5)
Listen right in your browser(in browser, requires Flash)
Click here to listen with your own player(launches your MP3 player)

RJAA 110030Z 34008KT 9999 FEW030 BKN070 BKN/// 05/00 Q1031 NOSIG RMK 1CU030 5AC070 A3047

RJAA Flight Activity (Flightaware)

Listeners: 4 out of 1200 total

Tokyo Approach: 124.400
Tokyo Approach: 127.700

RJAA Clearance Delivery (Archives)
Tokyo, Japan

Feed Status: UP
Listen in your browser - HTML5 player(in browser, HTML5)
Listen right in your browser(in browser, requires Flash)
Click here to listen with your own player(launches your MP3 player)

RJAA 110030Z 34008KT 9999 FEW030 BKN070 BKN/// 05/00 Q1031 NOSIG RMK 1CU030 5AC070 A3047

RJAA Flight Activity (Flightaware)

Listeners: 2 out of 1200 total

Narita Clearance Delivery (Asia/Pacific): 121.650
Narita Clearance Delivery (US/Europe): 121.900

RJAA Clearance Delivery #1 (Archives)
Tokyo, Japan

Feed Status: UP
Listen in your browser - HTML5 player(in browser, HTML5)
Listen right in your browser(in browser, requires Flash)
Click here to listen with your own player(launches your MP3 player)

RJAA 110030Z 34008KT 9999 FEW030 BKN070 BKN/// 05/00 Q1031 NOSIG RMK 1CU030 5AC070 A3047

RJAA Flight Activity (Flightaware)

Listeners: 0 out of 1200 total

Narita Clearance Delivery (Asia/Pacific): 121.650

RJAA Clearance Delivery #2 (Archives)
Tokyo, Japan

Feed Status: UP
Listen in your browser - HTML5 player(in browser, HTML5)
Listen right in your browser(in browser, requires Flash)
Click here to listen with your own player(launches your MP3 player)

RJAA 110030Z 34008KT 9999 FEW030 BKN070 BKN/// 05/00 Q1031 NOSIG RMK 1CU030 5AC070 A3047

RJAA Flight Activity (Flightaware)

Listeners: 1 out of 1200 total

Narita Clearance Delivery (US/Europe): 121.900

RJAA Company Channels (Archives)
Tokyo, Japan

Feed Status: UP
Listen in your browser - HTML5 player(in browser, HTML5)
Listen right in your browser(in browser, requires Flash)
Click here to listen with your own player(launches your MP3 player)

RJAA 110030Z 34008KT 9999 FEW030 BKN070 BKN/// 05/00 Q1031 NOSIG RMK 1CU030 5AC070 A3047

RJAA Flight Activity (Flightaware)

Listeners: 0 out of 1200 total

Ops: 130.450
Ops: 130.550
Ops: 130.900
Ops: 131.025
Ops: 131.100
Ops: 131.200
Ops: 131.700
Ops: 131.750

RJAA Departure (Archives)
Tokyo, Japan

Feed Status: UP
Listen in your browser - HTML5 player(in browser, HTML5)
Listen right in your browser(in browser, requires Flash)
Click here to listen with your own player(launches your MP3 player)

RJAA 110030Z 34008KT 9999 FEW030 BKN070 BKN/// 05/00 Q1031 NOSIG RMK 1CU030 5AC070 A3047

RJAA Flight Activity (Flightaware)

Listeners: 0 out of 1200 total

Tokyo Departure: 119.600
Tokyo Departure: 124.200

RJAA Departure #1 (Archives)
Tokyo, Japan

Feed Status: UP
Listen in your browser - HTML5 player(in browser, HTML5)
Listen right in your browser(in browser, requires Flash)
Click here to listen with your own player(launches your MP3 player)

RJAA 110030Z 34008KT 9999 FEW030 BKN070 BKN/// 05/00 Q1031 NOSIG RMK 1CU030 5AC070 A3047

RJAA Flight Activity (Flightaware)

Listeners: 3 out of 1200 total

Tokyo Departure: 124.200

RJAA Departure #2 (Archives)
Tokyo, Japan

Feed Status: UP
Listen in your browser - HTML5 player(in browser, HTML5)
Listen right in your browser(in browser, requires Flash)
Click here to listen with your own player(launches your MP3 player)

RJAA 110030Z 34008KT 9999 FEW030 BKN070 BKN/// 05/00 Q1031 NOSIG RMK 1CU030 5AC070 A3047

RJAA Flight Activity (Flightaware)

Listeners: 0 out of 1200 total

Tokyo Departure: 119.600

RJAA Emergency/Guard (Archives)
Tokyo, Japan

Feed Status: UP
Listen in your browser - HTML5 player(in browser, HTML5)
Listen right in your browser(in browser, requires Flash)
Click here to listen with your own player(launches your MP3 player)

RJAA 110030Z 34008KT 9999 FEW030 BKN070 BKN/// 05/00 Q1031 NOSIG RMK 1CU030 5AC070 A3047

RJAA Flight Activity (Flightaware)

Listeners: 0 out of 1200 total

Emergency/Guard: 121.500

RJAA Ground #1 (Archives)
Tokyo, Japan

Feed Status: UP
Listen in your browser - HTML5 player(in browser, HTML5)
Listen right in your browser(in browser, requires Flash)
Click here to listen with your own player(launches your MP3 player)

RJAA 110030Z 34008KT 9999 FEW030 BKN070 BKN/// 05/00 Q1031 NOSIG RMK 1CU030 5AC070 A3047

RJAA Flight Activity (Flightaware)

Listeners: 1 out of 1200 total

Narita Ground: 121.850

RJAA Ground #2 (Archives)
Tokyo, Japan

Feed Status: UP
Listen in your browser - HTML5 player(in browser, HTML5)
Listen right in your browser(in browser, requires Flash)
Click here to listen with your own player(launches your MP3 player)

RJAA 110030Z 34008KT 9999 FEW030 BKN070 BKN/// 05/00 Q1031 NOSIG RMK 1CU030 5AC070 A3047

RJAA Flight Activity (Flightaware)

Listeners: 0 out of 1200 total

Narita Ground: 121.950

RJAA Radar (Archives)
Tokyo, Japan

Feed Status: UP
Listen in your browser - HTML5 player(in browser, HTML5)
Listen right in your browser(in browser, requires Flash)
Click here to listen with your own player(launches your MP3 player)

RJAA 110030Z 34008KT 9999 FEW030 BKN070 BKN/// 05/00 Q1031 NOSIG RMK 1CU030 5AC070 A3047

RJAA Flight Activity (Flightaware)

Listeners: 0 out of 1200 total

Tokyo Radar: 120.200

RJAA Ramp #1 (Archives)
Tokyo, Japan

Feed Status: UP
Listen in your browser - HTML5 player(in browser, HTML5)
Listen right in your browser(in browser, requires Flash)
Click here to listen with your own player(launches your MP3 player)

RJAA 110030Z 34008KT 9999 FEW030 BKN070 BKN/// 05/00 Q1031 NOSIG RMK 1CU030 5AC070 A3047

RJAA Flight Activity (Flightaware)

Listeners: 0 out of 1200 total

Narita Ramp: 121.600

RJAA Ramp #2 (Archives)
Tokyo, Japan

Feed Status: UP
Listen in your browser - HTML5 player(in browser, HTML5)
Listen right in your browser(in browser, requires Flash)
Click here to listen with your own player(launches your MP3 player)

RJAA 110030Z 34008KT 9999 FEW030 BKN070 BKN/// 05/00 Q1031 NOSIG RMK 1CU030 5AC070 A3047

RJAA Flight Activity (Flightaware)

Listeners: 0 out of 1200 total

Narita Ramp: 121.750

RJAA TCA (Archives)
Tokyo, Japan

Feed Status: UP
Listen in your browser - HTML5 player(in browser, HTML5)
Listen right in your browser(in browser, requires Flash)
Click here to listen with your own player(launches your MP3 player)

RJAA 110030Z 34008KT 9999 FEW030 BKN070 BKN/// 05/00 Q1031 NOSIG RMK 1CU030 5AC070 A3047

RJAA Flight Activity (Flightaware)

Listeners: 0 out of 1200 total

Tokyo TCA (Terminal Control Area): 119.450

RJAA Tokyo Control (Archives)
Tokyo, Japan

Feed Status: UP
Listen in your browser - HTML5 player(in browser, HTML5)
Listen right in your browser(in browser, requires Flash)
Click here to listen with your own player(launches your MP3 player)

RJAA 110030Z 34008KT 9999 FEW030 BKN070 BKN/// 05/00 Q1031 NOSIG RMK 1CU030 5AC070 A3047

RJAA Flight Activity (Flightaware)

Listeners: 0 out of 1200 total

Tokyo Control: 125.900

RJAA Tower #1 (Archives)
Tokyo, Japan

Feed Status: UP
Listen in your browser - HTML5 player(in browser, HTML5)
Listen right in your browser(in browser, requires Flash)
Click here to listen with your own player(launches your MP3 player)

RJAA 110030Z 34008KT 9999 FEW030 BKN070 BKN/// 05/00 Q1031 NOSIG RMK 1CU030 5AC070 A3047

RJAA Flight Activity (Flightaware)

Listeners: 5 out of 1200 total

Narita Tower (Rwy 16R/34L): 118.200

RJAA Tower #2 (Archives)
Tokyo, Japan

Feed Status: UP
Listen in your browser - HTML5 player(in browser, HTML5)
Listen right in your browser(in browser, requires Flash)
Click here to listen with your own player(launches your MP3 player)

RJAA 110030Z 34008KT 9999 FEW030 BKN070 BKN/// 05/00 Q1031 NOSIG RMK 1CU030 5AC070 A3047

RJAA Flight Activity (Flightaware)

Listeners: 2 out of 1200 total

Narita Tower (Rwy 16L/34R): 118.350

RJOO Tower (Archives)
Osaka, Japan

Feed Status: UP
Listen in your browser - HTML5 player(in browser, HTML5)
Listen right in your browser(in browser, requires Flash)
Click here to listen with your own player(launches your MP3 player)

RJOO 110000Z 06006KT 360V080 9999 FEW009 BKN170 BKN/// 05/02 Q1029

RJOO Flight Activity (Flightaware)

Listeners: 21 out of 1200 total

Osaka Tower: 118.100

RJSF RDO (Archives)
Sukagawa, Japan

Feed Status: UP
Listen in your browser - HTML5 player(in browser, HTML5)
Listen right in your browser(in browser, requires Flash)
Click here to listen with your own player(launches your MP3 player)

RJSF 110000Z 35004KT 310V030 9999 FEW025 BKN/// 03/M04 Q1031

RJSF Flight Activity (Flightaware)

Listeners: 4 out of 1200 total

Fukushima Radio: 118.050

RJTT App/Dep (Archives)
Tokyo, Japan

Feed Status: UP
Listen in your browser - HTML5 player(in browser, HTML5)
Listen right in your browser(in browser, requires Flash)
Click here to listen with your own player(launches your MP3 player)

RJTT 110030Z 33010KT 300V010 9999 FEW030 BKN060 BKN/// 07/M02 Q1032 NOSIG RMK 1CU030 6SC060 A3048

RJTT Flight Activity (Flightaware)

Listeners: 11 out of 1200 total

Tokyo Approach: 119.100
Tokyo Approach: 119.400
Tokyo Departure: 120.800
Tokyo Departure: 126.000

RJTT Approach (Archives)
Tokyo, Japan

Feed Status: UP
Listen in your browser - HTML5 player(in browser, HTML5)
Listen right in your browser(in browser, requires Flash)
Click here to listen with your own player(launches your MP3 player)

RJTT 110030Z 33010KT 300V010 9999 FEW030 BKN060 BKN/// 07/M02 Q1032 NOSIG RMK 1CU030 6SC060 A3048

RJTT Flight Activity (Flightaware)

Listeners: 2 out of 1200 total

Tokyo Approach: 119.100
Tokyo Approach: 119.400

RJTT ATIS (Archives)
Tokyo, Japan

Feed Status: UP
Listen in your browser - HTML5 player(in browser, HTML5)
Listen right in your browser(in browser, requires Flash)
Click here to listen with your own player(launches your MP3 player)

RJTT 110030Z 33010KT 300V010 9999 FEW030 BKN060 BKN/// 07/M02 Q1032 NOSIG RMK 1CU030 6SC060 A3048

RJTT Flight Activity (Flightaware)

Listeners: 0 out of 1200 total

Tokyo ATIS: 128.800

RJTT Company Channels (Archives)
Tokyo, Japan

Feed Status: UP
Listen in your browser - HTML5 player(in browser, HTML5)
Listen right in your browser(in browser, requires Flash)
Click here to listen with your own player(launches your MP3 player)

RJTT 110030Z 33010KT 300V010 9999 FEW030 BKN060 BKN/// 07/M02 Q1032 NOSIG RMK 1CU030 6SC060 A3048

RJTT Flight Activity (Flightaware)

Listeners: 13 out of 1200 total

Company TBD: 128.500
Company TBD: 131.850
Company TBD: 129.725
Company TBD: 129.700
Company TBD: 131.900
Company TBD: 129.850
Company TBD: 128.975
Company TBD: 123.675
Company TBD: 132.075

RJTT Del/Ground (Archives)
Tokyo, Japan

Feed Status: UP
Listen in your browser - HTML5 player(in browser, HTML5)
Listen right in your browser(in browser, requires Flash)
Click here to listen with your own player(launches your MP3 player)

RJTT 110030Z 33010KT 300V010 9999 FEW030 BKN060 BKN/// 07/M02 Q1032 NOSIG RMK 1CU030 6SC060 A3048

RJTT Flight Activity (Flightaware)

Listeners: 1 out of 1200 total

Tokyo Clearance Delivery: 121.825
Tokyo Ground: 121.700
Tokyo Ground: 118.225
Tokyo Ground: 121.625
Tokyo Ground: 121.975

RJTT Del/Twr/TCA/Gnd (Archives)
Tokyo, Japan

Feed Status: UP
Listen in your browser - HTML5 player(in browser, HTML5)
Listen right in your browser(in browser, requires Flash)
Click here to listen with your own player(launches your MP3 player)

RJTT 110030Z 33010KT 300V010 9999 FEW030 BKN060 BKN/// 07/M02 Q1032 NOSIG RMK 1CU030 6SC060 A3048

RJTT Flight Activity (Flightaware)

Listeners: 6 out of 1200 total

Tokyo Clearance Delivery: 121.825
Tokyo Ground: 121.975
Tokyo Ground: 121.625
Tokyo Ground: 121.700
Tokyo Ground: 118.225
Tokyo TCA: 124.750
Tokyo Tower: 118.100
Tokyo Tower: 118.575
Tokyo Tower: 118.725
Tokyo Tower: 124.350

RJTT Departure (Archives)
Tokyo, Japan

Feed Status: UP
Listen in your browser - HTML5 player(in browser, HTML5)
Listen right in your browser(in browser, requires Flash)
Click here to listen with your own player(launches your MP3 player)

RJTT 110030Z 33010KT 300V010 9999 FEW030 BKN060 BKN/// 07/M02 Q1032 NOSIG RMK 1CU030 6SC060 A3048

RJTT Flight Activity (Flightaware)

Listeners: 0 out of 1200 total

Tokyo Departure: 120.800
Tokyo Departure: 126.000

RJTT Tokyo Control (Archives)
Tokyo, Japan

Feed Status: UP
Listen in your browser - HTML5 player(in browser, HTML5)
Listen right in your browser(in browser, requires Flash)
Click here to listen with your own player(launches your MP3 player)

RJTT 110030Z 33010KT 300V010 9999 FEW030 BKN060 BKN/// 07/M02 Q1032 NOSIG RMK 1CU030 6SC060 A3048

RJTT Flight Activity (Flightaware)

Listeners: 18 out of 1200 total

Tokyo Control: 133.700
Tokyo Control: 125.900
Tokyo Control: 120.500

RJTT Twr/TCA (Archives)
Tokyo, Japan

Feed Status: UP
Listen in your browser - HTML5 player(in browser, HTML5)
Listen right in your browser(in browser, requires Flash)
Click here to listen with your own player(launches your MP3 player)

RJTT 110030Z 33010KT 300V010 9999 FEW030 BKN060 BKN/// 07/M02 Q1032 NOSIG RMK 1CU030 6SC060 A3048

RJTT Flight Activity (Flightaware)

Listeners: 3 out of 1200 total

Tokyo TCA: 124.750
Tokyo Tower: 118.100
Tokyo Tower: 118.575
Tokyo Tower: 118.725
Tokyo Tower: 124.350

RJTY Approach (Archives)
Tokyo, Japan

Feed Status: UP
Listen in your browser - HTML5 player(in browser, HTML5)
Listen right in your browser(in browser, requires Flash)
Click here to listen with your own player(launches your MP3 player)

RJTY 110056Z AUTO 04004KT 10SM BKN060 05/M03 A3051 RMK AO2 SLP343 T00481028 FZRANO $

RJTY Flight Activity (Flightaware)

Listeners: 1 out of 1200 total

Yokota Approach: 118.300
Yokota APproach: 123.800
Yokota Approach: 120.700

RJTY Ground (Archives)
Tokyo, Japan

Feed Status: UP
Listen in your browser - HTML5 player(in browser, HTML5)
Listen right in your browser(in browser, requires Flash)
Click here to listen with your own player(launches your MP3 player)

RJTY 110056Z AUTO 04004KT 10SM BKN060 05/M03 A3051 RMK AO2 SLP343 T00481028 FZRANO $

RJTY Flight Activity (Flightaware)

Listeners: 1 out of 1200 total

Yokota Ground: 133.200

RJTY Ground/Tower (Archives)
Tokyo, Japan

Feed Status: UP
Listen in your browser - HTML5 player(in browser, HTML5)
Listen right in your browser(in browser, requires Flash)
Click here to listen with your own player(launches your MP3 player)

RJTY 110056Z AUTO 04004KT 10SM BKN060 05/M03 A3051 RMK AO2 SLP343 T00481028 FZRANO $

RJTY Flight Activity (Flightaware)

Listeners: 1 out of 1200 total

Yokota Ground: 133.200
Yokota Tower: 134.300

RJTY Tower (Archives)
Tokyo, Japan

Feed Status: UP
Listen in your browser - HTML5 player(in browser, HTML5)
Listen right in your browser(in browser, requires Flash)
Click here to listen with your own player(launches your MP3 player)

RJTY 110056Z AUTO 04004KT 10SM BKN060 05/M03 A3051 RMK AO2 SLP343 T00481028 FZRANO $

RJTY Flight Activity (Flightaware)

Listeners: 1 out of 1200 total

Yokota Tower: 134.300

RKSG Gnd/Twr/App (Archives)
Pyeongtaek, Korea, Republic of

Feed Status: UP
Listen in your browser - HTML5 player(in browser, HTML5)
Listen right in your browser(in browser, requires Flash)
Click here to listen with your own player(launches your MP3 player)

RKSG 110056Z 18003KT 6SM HZ FEW047 BKN060 00/M07 A3042 RMK AO2A SLP306 T10041068 $

RKSG Flight Activity (Flightaware)

Listeners: 2 out of 1200 total

Desiderio Final: 255.800
Desiderio GCA: 226.800
Desiderio GCA: 127.000
Desiderio Ground (Camp Humphreys A-511 AAF): 119.500
Desiderio Ground UHF: 229.700
Desiderio Ops: 294.100
Desiderio Tower (Camp Humphreys A-511 AAF): 122.500
Desiderio Tower UHF: 257.800

RKRR Incheon Control (Archives)
Incheon, Korea, Republic of

Feed Status: UP
Listen in your browser - HTML5 player(in browser, HTML5)
Listen right in your browser(in browser, requires Flash)
Click here to listen with your own player(launches your MP3 player)

RKSI 110030Z 07005KT 040V110 CAVOK M00/M10 Q1030 NOSIG

RKSI Flight Activity (Flightaware)

Listeners: 5 out of 1200 total

Incheon Control North Sector (Primary): 128.700
Incheon Control North Sector (Secondary): 132.800
Incheon Control Northwest Sector (Primary): 126.175
Incheon Control Northwest Sector (Secondary): 123.725

RKSO Gnd/Twr/App (Archives)
Pyeongtaek, Korea, Republic of

Feed Status: UP
Listen in your browser - HTML5 player(in browser, HTML5)
Listen right in your browser(in browser, requires Flash)
Click here to listen with your own player(launches your MP3 player)

RKSO 102358Z 00000KT 7SM BKN060 OVC085 M01/M09 A3042 RMK AO2A SLP305 T10101095 11010 21047 53003 $

RKSO Flight Activity (Flightaware)

Listeners: 4 out of 1200 total

25 FS Ops: 229.000
36FS Ops: 371.300
Osan Air Base Approach/Departure: 127.900
Osan Air Base Approach/Departure: 133.650
Osan Air Base Ground: 132.450
Osan Air Base Tower: 122.100
Osan App/Dep UHF: 306.600
Osan App/Dep UHF: 234.300
Osan App/Dep UHF (possibly inactive): 306.300
Osan App/Dep UHF (possibly inactive): 363.100
Osan Ground UHF: 253.700
Osan SAR: 282.800
Osan SAR: 381.000
Osan SOF: 299.800
Osan Tower UHF: 308.800
Stallion Ops: 276.200

RPLL Approach/Departure #1 (Archives)
Manila, Philippines

Feed Status: UP
Listen in your browser - HTML5 player(in browser, HTML5)
Listen right in your browser(in browser, requires Flash)
Click here to listen with your own player(launches your MP3 player)

RPLL 110000Z VRB01KT 9999 FEW027 29/23 Q1013 NOSIG RMK A2991

RPLL Flight Activity (Flightaware)

Listeners: 0 out of 1200 total

Manila Approach/Departure: 121.100

RPLL Approach/Departure #2 (Archives)
Manila, Philippines

Feed Status: UP
Listen in your browser - HTML5 player(in browser, HTML5)
Listen right in your browser(in browser, requires Flash)
Click here to listen with your own player(launches your MP3 player)

RPLL 110000Z VRB01KT 9999 FEW027 29/23 Q1013 NOSIG RMK A2991

RPLL Flight Activity (Flightaware)

Listeners: 0 out of 1200 total

Manila Approach/Departure: 119.700

RPLL ATIS (Archives)
Manila, Philippines

Feed Status: UP
Listen in your browser - HTML5 player(in browser, HTML5)
Listen right in your browser(in browser, requires Flash)
Click here to listen with your own player(launches your MP3 player)

RPLL 110000Z VRB01KT 9999 FEW027 29/23 Q1013 NOSIG RMK A2991

RPLL Flight Activity (Flightaware)

Listeners: 0 out of 1200 total

Manila ATIS: 126.400

RPLL Clearance Delivery (Archives)
Manila, Philippines

Feed Status: UP
Listen in your browser - HTML5 player(in browser, HTML5)
Listen right in your browser(in browser, requires Flash)
Click here to listen with your own player(launches your MP3 player)

RPLL 110000Z VRB01KT 9999 FEW027 29/23 Q1013 NOSIG RMK A2991

RPLL Flight Activity (Flightaware)

Listeners: 0 out of 1200 total

Manila Clearance Delivery (Primary): 125.100
Manila Clearance Delivery (Secondary): 125.500

RPLL Ground (Archives)
Manila, Philippines

Feed Status: UP
Listen in your browser - HTML5 player(in browser, HTML5)
Listen right in your browser(in browser, requires Flash)
Click here to listen with your own player(launches your MP3 player)

RPLL 110000Z VRB01KT 9999 FEW027 29/23 Q1013 NOSIG RMK A2991

RPLL Flight Activity (Flightaware)

Listeners: 0 out of 1200 total

Manila Ground: 121.800

RPLL Ramp/Taxi (Archives)
Manila, Philippines

Feed Status: UP
Listen in your browser - HTML5 player(in browser, HTML5)
Listen right in your browser(in browser, requires Flash)
Click here to listen with your own player(launches your MP3 player)

RPLL 110000Z VRB01KT 9999 FEW027 29/23 Q1013 NOSIG RMK A2991

RPLL Flight Activity (Flightaware)

Listeners: 0 out of 1200 total

Manila Ramp/Taxi: 121.350
Manila Ramp/Taxi: 121.700

RPLL Tower (Archives)
Manila, Philippines

Feed Status: UP
Listen in your browser - HTML5 player(in browser, HTML5)
Listen right in your browser(in browser, requires Flash)
Click here to listen with your own player(launches your MP3 player)

RPLL 110000Z VRB01KT 9999 FEW027 29/23 Q1013 NOSIG RMK A2991

RPLL Flight Activity (Flightaware)

Listeners: 3 out of 1200 total

Manila Tower: 118.100

RPUN Tower
Pili-Luzon Island, Philippines

Feed Status: DOWN
Offline since: 2017-10-02 10:34:03 UTC

METAR NOT AVAILABLE

Naga Tower: 122.100

SABE Gnd/Twr/App (Archives)
Buenos Aires, Argentina

Feed Status: UP
Listen in your browser - HTML5 player(in browser, HTML5)
Listen right in your browser(in browser, requires Flash)
Click here to listen with your own player(launches your MP3 player)

SABE 110000Z 09008KT CAVOK 25/20 Q1011 NOSIG

SABE Flight Activity (Flightaware)

Listeners: 7 out of 1200 total

Aerolineas Argentinas Ops: 131.950
Aerolineas Argentinas Ops: 131.100
Aeroparque Ground: 121.900
Aeroparque Tower: 120.600
Aeroparque Tower: 118.250
Aeroparque Tower: 128.850
Aeroparque Tower: 118.850
Aeroparque Tower: 129.300
Air to Air: 123.450
Baires: 125.900
Baires: 125.300
Baires: 124.900
Cordoba South: 126.500
Ezeiza Ground: 121.750
Ezeiza North: 133.350
Ezeiza North: 124.500
Ezeiza North: 125.600
Ezeiza North: 135.500
Ezeiza South: 124.100
Ezeiza South: 125.200
LAN Ops: 131.700

Powered by aeropuertotucuman.blogspot.com

SAEZ Del/Gnd/Twr/App/Radar/Misc (Archives)
Buenos Aires, Argentina

Feed Status: UP
Listen in your browser - HTML5 player(in browser, HTML5)
Listen right in your browser(in browser, requires Flash)
Click here to listen with your own player(launches your MP3 player)

SAEZ 110000Z 07008KT CAVOK 25/10 Q1010 NOSIG

SAEZ Flight Activity (Flightaware)

Listeners: 3 out of 1200 total

Air to Air: 123.450
Baires TMA Radar: 125.800
Baires TMA Radar: 125.300
Baires TMA Radar: 125.900
Baires TMA Radar: 124.900
Baires TMA Radar: 133.350
Canuelas (CNA) CTAF: 123.000
Emergency/Guard: 121.500
Ezeiza Clearance Delivery: 127.100
Ezeiza CTA Radar North: 134.500
Ezeiza CTA Radar North: 135.500
Ezeiza CTA Radar North: 125.600
Ezeiza CTA Radar South: 125.200
Ezeiza Ground: 126.950
Ezeiza Ground: 121.750
Ezeiza Tower: 118.600
Ezeiza Tower: 118.050
Ezeiza Tower: 120.450
Moron (SADM) Tower: 119.900
Moron (SADM) Tower: 118.500
UNICOM: 123.500

"Only for educational purposes - www.prevacc.org

SANT Tower/Apps (Archives)
Tucuman, Argentina

Feed Status: UP
Listen in your browser - HTML5 player(in browser, HTML5)
Listen right in your browser(in browser, requires Flash)
Click here to listen with your own player(launches your MP3 player)

SANT 110000Z 27004KT 9999 BKN030 30/22 Q1007

SANT Flight Activity (Flightaware)

Listeners: 1 out of 1200 total

Aeroclub Tucuman: 119.000
Aerolineas Argentinas SOC Salta: 131.100
Aerolineas Argentinas SOC Tucuman: 131.950
Air To Air: 123.450
Andes Lineas Aereas: 132.000
Campo Arenal: 130.950
Catamarca Tower: 118.150
Copa Airlines: 129.400
Cordoba Centro Norte: 125.100
Cordoba Centro Sur: 126.500
Emergency/Guard: 121.500
Lan Argentina Operaciones: 131.700
Lan Peru: 131.300
Salta Tower: 128.850
Santiago del Estero Tower: 118.700
Taca Peru: 126.450
Termas de Rio Hondo: 118.200
Termas de Rio Hondo: 119.850
Tucuman Ground: 121.750
Tucuman Ground: 121.750
Tucuman Tower: 118.350
Tucuman Tower: 119.500

Powered by:

aeropuertotucuman.blogspot.com

SASA Twr/App (Archives)
Salta, Argentina

Feed Status: UP
Listen in your browser - HTML5 player(in browser, HTML5)
Listen right in your browser(in browser, requires Flash)
Click here to listen with your own player(launches your MP3 player)

SASA 110100Z 36002KT 9999 BKN030 24/15 Q1016

SASA Flight Activity (Flightaware)

Listeners: 0 out of 1200 total

Cordoba Approach (North): 125.100
Salta Approach: 124.600
Salta Tower: 126.000
Salta Tower/Ground: 128.850

SAZN Tower
Neuquen, Argentina

Feed Status: DOWN
Offline since: 2018-11-26 14:56:02 UTC

SAZN 110100Z 23008KT CAVOK 23/01 Q1010

Neuquen Tower/Approach: 119.800

SAZS Tower/Approach (Archives)
Rio Negro, Argentina

Feed Status: UP
Listen in your browser - HTML5 player(in browser, HTML5)
Listen right in your browser(in browser, requires Flash)
Click here to listen with your own player(launches your MP3 player)

SAZS 110032Z 31013KT 8000 SHRA FEW009 BKN035 11/09 Q1012

SAZS Flight Activity (Flightaware)

Listeners: 0 out of 1200 total

Bariloche Twr/App: 119.100
Bariloche Twr/App (Aux): 118.650
Chapelco Tower/Approach: 119.600
Comodoro Rivadavia Control: 125.500
Emergency: 121.500
Ezeiza South: 125.200
Puerto Mont Radar North: 121.300
Puerto Mont Radar South: 128.300
Puerto Mont Radio: 126.900


Feed courtesy of: Juan Jose Porta - Bariloche

SBBH ACC-BS 127.0 (Archives)
Belo Horizonte, Brazil

Feed Status: UP
Listen in your browser - HTML5 player(in browser, HTML5)
Listen right in your browser(in browser, requires Flash)
Click here to listen with your own player(launches your MP3 player)

SBBH 110000Z 08006KT CAVOK 21/15 Q1024

SBBH Flight Activity (Flightaware)

Listeners: 5 out of 1200 total

Brasilia ACC-BS (Air Control Center): 127.000

SBBH ACC-BS 127.3 (Archives)
Belo Horizonte, Brazil

Feed Status: UP
Listen in your browser - HTML5 player(in browser, HTML5)
Listen right in your browser(in browser, requires Flash)
Click here to listen with your own player(launches your MP3 player)

SBBH 110000Z 08006KT CAVOK 21/15 Q1024

SBBH Flight Activity (Flightaware)

Listeners: 0 out of 1200 total

Brasilia ACC-BS (Air Control Center): 127.300

SBBH App (Sector 1) (Archives)
Belo Horizonte, Brazil

Feed Status: UP
Listen in your browser - HTML5 player(in browser, HTML5)
Listen right in your browser(in browser, requires Flash)
Click here to listen with your own player(launches your MP3 player)

SBBH 110000Z 08006KT CAVOK 21/15 Q1024

SBBH Flight Activity (Flightaware)

Listeners: 1 out of 1200 total

Belo Horizonte Approach (Sector 1): 129.100

SBBH App (Sector 2) (Archives)
Belo Horizonte, Brazil

Feed Status: UP
Listen in your browser - HTML5 player(in browser, HTML5)
Listen right in your browser(in browser, requires Flash)
Click here to listen with your own player(launches your MP3 player)

SBBH 110000Z 08006KT CAVOK 21/15 Q1024

SBBH Flight Activity (Flightaware)

Listeners: 1 out of 1200 total

Belo Horizonte Approach (Sector 2): 129.400

SBBH App/Dep (Archives)
Belo Horizonte, Brazil

Feed Status: UP
Listen in your browser - HTML5 player(in browser, HTML5)
Listen right in your browser(in browser, requires Flash)
Click here to listen with your own player(launches your MP3 player)

SBBH 110000Z 08006KT CAVOK 21/15 Q1024

SBBH Flight Activity (Flightaware)

Listeners: 0 out of 1200 total

Belo Horizonte Approach: 128.550

SBBI Gnd/Twr (Archives)
Curitiba, Brazil

Feed Status: UP
Listen in your browser - HTML5 player(in browser, HTML5)
Listen right in your browser(in browser, requires Flash)
Click here to listen with your own player(launches your MP3 player)

SBBI 110000Z 08005KT 9999 FEW015 22/18 Q1022

SBBI Flight Activity (Flightaware)

Listeners: 0 out of 1200 total

Bacacheri Ground: 121.800
Bacacheri Tower: 118.900

SBBV Approach (Archives)
Boa Vista, Brazil

Feed Status: UP
Listen in your browser - HTML5 player(in browser, HTML5)
Listen right in your browser(in browser, requires Flash)
Click here to listen with your own player(launches your MP3 player)

SBBV 110100Z 09008KT 9999 SCT045 FEW050TCU BKN090 28/20 Q1014

SBBV Flight Activity (Flightaware)

Listeners: 2 out of 1200 total

Boa Vista Approach: 120.100

SBBV Tower (Archives)
Boa Vista, Brazil

Feed Status: UP
Listen in your browser - HTML5 player(in browser, HTML5)
Listen right in your browser(in browser, requires Flash)
Click here to listen with your own player(launches your MP3 player)

SBBV 110100Z 09008KT 9999 SCT045 FEW050TCU BKN090 28/20 Q1014

SBBV Flight Activity (Flightaware)

Listeners: 1 out of 1200 total

Boa Vista Tower: 118.100

SBCT Twr/App (Archives)
Curitiba, Brazil

Feed Status: UP
Listen in your browser - HTML5 player(in browser, HTML5)
Listen right in your browser(in browser, requires Flash)
Click here to listen with your own player(launches your MP3 player)

SBCT 110000Z 11004KT CAVOK 19/18 Q1022

SBCT Flight Activity (Flightaware)

Listeners: 2 out of 1200 total

Curitiba Approach: 119.950
Curitiba Tower: 118.150

SBDN Twr/App (Archives)
Presidente Prudente/Sao Paulo, Brazil

Feed Status: UP
Listen in your browser - HTML5 player(in browser, HTML5)
Listen right in your browser(in browser, requires Flash)
Click here to listen with your own player(launches your MP3 player)

SBDN 110000Z 06002KT CAVOK 28/14 Q1017

SBDN Flight Activity (Flightaware)

Listeners: 1 out of 1200 total

Air-to-Air: 123.450
Curitiba Sector 13: 133.595
Prudente Approach: 118.450
Prudente Tower: 125.450

SBEG Tower/App (Archives)
Manaus, Brazil

Feed Status: UP
Listen in your browser - HTML5 player(in browser, HTML5)
Listen right in your browser(in browser, requires Flash)
Click here to listen with your own player(launches your MP3 player)

SBEG 110100Z 00000KT CAVOK 25/23 Q1014

SBEG Flight Activity (Flightaware)

Listeners: 1 out of 1200 total

Emergency/Guard: 121.500
Manaus Approach : 119.250
Manaus Approach: 120.400
Manaus Approach: 119.700
Manaus Tower: 118.300

SBFI Twr/App/Ctr/Misc (Archives)
Foz do Iguacu, Brazil

Feed Status: UP
Listen in your browser - HTML5 player(in browser, HTML5)
Listen right in your browser(in browser, requires Flash)
Click here to listen with your own player(launches your MP3 player)

SBFI 110100Z 12005KT CAVOK 27/16 Q1015

SBFI Flight Activity (Flightaware)

Listeners: 2 out of 1200 total

Asuncion Center (Paraguay): 126.900
Asuncion Center (Paraguay): 128.400
Curitiba Center: 127.200
Curitiba Center: 125.800
Emergency/Guard: 121.500
Foz do Iguacu Approach/Departure: 120.300
Foz do Iguacu Approach/Departure: 119.150
Foz do Iguacu Tower: 118.800
Guarani Approach (Paraguay): 119.300
Puerto Iguazu - Cataratas Tower (Argentina) : 120.700
Resistencia Center (Argentina): 124.300
UNICOM: 123.450

SBFZ Twr/App/Center (Archives)
Fortaleza, Brazil

Feed Status: UP
Listen in your browser - HTML5 player(in browser, HTML5)
Listen right in your browser(in browser, requires Flash)
Click here to listen with your own player(launches your MP3 player)

SBFZ 110100Z 10012KT 9999 BKN017 28/23 Q1015

SBFZ Flight Activity (Flightaware)

Listeners: 8 out of 1200 total

ACC-RE (Fortaleza Sector): 125.150
ACC-RE (Fortaleza Sector): 126.350
ACC-RE (Fortaleza Sector): 135.250
Fortaleza Approach: 133.000
Fortaleza Tower: 129.000

SBGO Gnd/Twr/App (Archives)
Goiania, Brazil

Feed Status: UP
Listen in your browser - HTML5 player(in browser, HTML5)
Listen right in your browser(in browser, requires Flash)
Click here to listen with your own player(launches your MP3 player)

SBGO 110100Z 09011KT 9999 FEW040 FEW045TCU OVC100 23/19 Q1022

SBGO Flight Activity (Flightaware)

Listeners: 0 out of 1200 total

Anapolis Approach: 119.150
Anapolis Approach: 120.550
Anapolis Approach: 133.000
Anapolis Approach: 129.450
Emergency/Guard: 121.500
Goiania Ground: 121.700
Goiania Tower: 118.700
Goiania Tower: 121.050

SBJP Twr/Control/Airlines (Archives)
Joao Pessoa, Brazil

Feed Status: UP
Listen in your browser - HTML5 player(in browser, HTML5)
Listen right in your browser(in browser, requires Flash)
Click here to listen with your own player(launches your MP3 player)

SBJP 110000Z 13007KT 9999 FEW021 BKN070 26/24 Q1017

SBJP Flight Activity (Flightaware)

Listeners: 0 out of 1200 total

AZUL: 130.900
GOL: 131.225
Joao Pessoa Tower: 118.300
Recife Control: 119.500
TAM: 130.500

SBLO Twr/App/Center (Archives)
Londrina, Brazil

Feed Status: UP
Listen in your browser - HTML5 player(in browser, HTML5)
Listen right in your browser(in browser, requires Flash)
Click here to listen with your own player(launches your MP3 player)

SBLO 110000Z 07002KT CAVOK 29/17 Q1018

SBLO Flight Activity (Flightaware)

Listeners: 0 out of 1200 total

Curitiba Center: 128.350
Curitiba Center: 135.100
Curitiba Center: 125.800
Curitiba Center: 126.950
Emergency/Guard: 121.500
Londrina Approach: 129.700
Londrina Tower: 118.400
UNICOM: 123.450

TMA Londrina Blog

SBMG Twr/App/Misc (Archives)
Maringa, Brazil

Feed Status: UP
Listen in your browser - HTML5 player(in browser, HTML5)
Listen right in your browser(in browser, requires Flash)
Click here to listen with your own player(launches your MP3 player)

SBMG 110000Z 04005KT 9999 FEW030 27/16 Q1016

SBMG Flight Activity (Flightaware)

Listeners: 1 out of 1200 total

Air to Air: 123.450
Londrina Approach: 129.700
Maringa Tower: 118.750

SBMK RDO/Center (Archives)
Montes Claros, Brazil

Feed Status: UP
Listen in your browser - HTML5 player(in browser, HTML5)
Listen right in your browser(in browser, requires Flash)
Click here to listen with your own player(launches your MP3 player)

SBMK Flight Activity (Flightaware)

Listeners: 0 out of 1200 total

Brasilia Center (Sector 15): 127.300
Montes Claros RDO: 131.700

SBMQ Tower/App/Center (Archives)
Macapa, Brazil

Feed Status: UP
Listen in your browser - HTML5 player(in browser, HTML5)
Listen right in your browser(in browser, requires Flash)
Click here to listen with your own player(launches your MP3 player)

SBMQ 110100Z 33004KT 9999 FEW015 25/25 Q1015

SBMQ Flight Activity (Flightaware)

Listeners: 0 out of 1200 total

Amazonico Center: 123.950
Amazonico Center: 128.000
Macapa Approach: 119.000
Macapa Tower: 118.000

SBNF Tower (Archives)
Navegantes, Brazil

Feed Status: UP
Listen in your browser - HTML5 player(in browser, HTML5)
Listen right in your browser(in browser, requires Flash)
Click here to listen with your own player(launches your MP3 player)

SBNF 110000Z 03005KT 9999 SCT015 23/21 Q1018

SBNF Flight Activity (Flightaware)

Listeners: 0 out of 1200 total

Navegantes Tower: 118.200

SBPA Gnd/Twr/App (Archives)
Porto Alegre, Brazil

Feed Status: UP
Listen in your browser - HTML5 player(in browser, HTML5)
Listen right in your browser(in browser, requires Flash)
Click here to listen with your own player(launches your MP3 player)

SBPA 110000Z 11008KT CAVOK 27/17 Q1015

SBPA Flight Activity (Flightaware)

Listeners: 5 out of 1200 total

BACO (Canoas) Ground: 121.700
BACO (Canoas) Tower: 122.800
BACO (Canoas) Tower: 118.500
Emergency/Guard: 121.500
Porto Alegre Approach Sector 2: 119.000
Porto Alegre Approach Sector 1: 120.100
Porto Alegre Approach Sector 3: 120.550
Porto Alegre Approach Sector 4: 128.900
Porto Alegre Center: 126.750
Porto Alegre Center: 127.400
Porto Alegre Center: 135.850
Porto Alegre Center: 128.450
Salgado Filho Ground: 121.900
Salgado Filho Tower: 118.100

NOTE: Feed site maintenance Nov 13-30, 2016

SBPL RDO (Archives)
Petrolina, Brazil

Feed Status: UP
Listen in your browser - HTML5 player(in browser, HTML5)
Listen right in your browser(in browser, requires Flash)
Click here to listen with your own player(launches your MP3 player)

SBPL 110000Z 14008KT CAVOK 24/21 Q1018

SBPL Flight Activity (Flightaware)

Listeners: 0 out of 1200 total

Petrolina RDO: 125.700

Sponsored by PNZSpotter

SBQV AFIS/App (Archives)
Vitoria da Conquista, Brazil

Feed Status: UP
Listen in your browser - HTML5 player(in browser, HTML5)
Listen right in your browser(in browser, requires Flash)
Click here to listen with your own player(launches your MP3 player)

SBQV 102300Z 15009KT 9999 BKN004 19/18 Q1025

SBQV Flight Activity (Flightaware)

Listeners: 1 out of 1200 total

Conquista AFIS: 130.300
Despacho Azul: 131.875
Despacho Passaredo: 132.000

SBRF App 129.60 (Archives)
Recife, Brazil

Feed Status: UP
Listen in your browser - HTML5 player(in browser, HTML5)
Listen right in your browser(in browser, requires Flash)
Click here to listen with your own player(launches your MP3 player)

SBRF 110100Z 13010KT 9999 SCT025 27/22 Q1017

SBRF Flight Activity (Flightaware)

Listeners: 1 out of 1200 total

Recife Approach: 129.600

SBRF Ground (Archives)
Recife, Brazil

Feed Status: UP
Listen in your browser - HTML5 player(in browser, HTML5)
Listen right in your browser(in browser, requires Flash)
Click here to listen with your own player(launches your MP3 player)

SBRF 110100Z 13010KT 9999 SCT025 27/22 Q1017

SBRF Flight Activity (Flightaware)

Listeners: 0 out of 1200 total

Recife Ground: 121.850

SBRF Recife ACC
Recife, Brazil

Feed Status: DOWN
Offline since: 2018-12-10 19:07:02 UTC

SBRF 110100Z 13010KT 9999 SCT025 27/22 Q1017

Recife Center: 128.700
Recife Center: 133.650
Recife Center: 134.800

SBRF Tower (Archives)
Recife, Brazil

Feed Status: UP
Listen in your browser - HTML5 player(in browser, HTML5)
Listen right in your browser(in browser, requires Flash)
Click here to listen with your own player(launches your MP3 player)

SBRF 110100Z 13010KT 9999 SCT025 27/22 Q1017

SBRF Flight Activity (Flightaware)

Listeners: 3 out of 1200 total

Recife Tower: 125.250
Recife Tower: 118.350
Recife Tower: 118.900

SBRP Tower/Center (Archives)
Ribeirao Preto, Brazil

Feed Status: UP
Listen in your browser - HTML5 player(in browser, HTML5)
Listen right in your browser(in browser, requires Flash)
Click here to listen with your own player(launches your MP3 player)

SBRP 110000Z 11004KT 090V150 CAVOK 26/18 Q1020

SBRP Flight Activity (Flightaware)

Listeners: 2 out of 1200 total

Leite Lopes Tower: 118.000
Pirassununga Center (North): 119.550

SBSN Twr/App/ACC (Archives)
Santarem, Brazil

Feed Status: UP
Listen in your browser - HTML5 player(in browser, HTML5)
Listen right in your browser(in browser, requires Flash)
Click here to listen with your own player(launches your MP3 player)

SBSN 110100Z 13004KT 9999 FEW015 24/24 Q1014

SBSN Flight Activity (Flightaware)

Listeners: 0 out of 1200 total

Brasilia Center/ACC: 123.650
Brasilia Center/ACC: 125.050
Santarem Approach: 119.300
Santarem Tower: 118.100

SBSP Approach (Final)
Sao Paulo, Brazil

Feed Status: DOWN
Offline since: 2018-10-20 11:45:04 UTC

SBSP 110100Z 09006KT CAVOK 24/12 Q1024

Sao Paulo Approach (Final Approach): 133.850

SBSP Approach (Sector 1)
Sao Paulo, Brazil

Feed Status: DOWN
Offline since: 2018-10-20 11:45:04 UTC

SBSP 110100Z 09006KT CAVOK 24/12 Q1024

Sao Paulo Approach (Sector 1): 134.900

SBSP Del/Gnd/Twr
Sao Paulo, Brazil

Feed Status: DOWN
Offline since: 2018-10-20 11:45:04 UTC

SBSP 110100Z 09006KT CAVOK 24/12 Q1024

Congonhas Clearance Delivery: 120.600
Congonhas Ground: 121.900
Congonhas Tower: 127.150
Sao Paulo Approach: 120.450
Sao Paulo Approach: 135.750
Sao Paulo Approach: 129.750

NOTE: This feed becomes SBSP Approach from 2300-0600 local time and monitors 120.45,135.75,129.75 during that time period

SBSR AFIS/App/Center
Sao Jose do Rio Preto, Brazil

Feed Status: DOWN
Offline since: 2018-11-30 04:42:03 UTC

SBSR 110000Z 09005KT CAVOK 28/15 Q1019

Academia Approach (North Sector): 119.750
Academia Approach (North Sector): 120.400
Brasilia Center: 135.150
Rio Preto Radio AFIS: 130.850

SBRE Recife ACC
Paulo Afonso, Brazil

Feed Status: DOWN
Offline since: 2018-11-25 18:36:02 UTC

Recife Center (ACC): 125.400
Recife Center (ACC): 125.450
Recife Center (ACC): 126.850
Recife Center (ACC): 133.650
Recife Center (ACC): 134.500
Recife Center (ACC): 134.900

SBUF AFIS/Center
Paulo Afonso, Brazil

Feed Status: DOWN
Offline since: 2018-12-10 21:20:02 UTC

SBUF 101900Z 12009KT 9999 -TSRA BKN016 FEW020CB BKN070 24/23 Q1017

Paulo Afonso Radio: 125.850
Recife Center: 133.650
Recife Center: 134.500
Recife Center: 125.450

SBVT Center/Misc (Archives)
Vitoria, Brazil

Feed Status: UP
Listen in your browser - HTML5 player(in browser, HTML5)
Listen right in your browser(in browser, requires Flash)
Click here to listen with your own player(launches your MP3 player)

SBVT 110100Z 32003KT 9999 FEW020 BKN100 22/21 Q1023

SBVT Flight Activity (Flightaware)

Listeners: 2 out of 1200 total

AZUL Coordination: 130.900
Brasilia Center (Sector S-10): 126.750
Brasilia Center (Sector S-10): 127.300
CHAT Coordination: 123.400
Curitiba Center (Sector S-11): 133.600
Curitiba Center (Sector S-11): 133.400
Emergency/Guard: 121.500
GOL Coordination: 131.225
LIDER Coordination: 130.400
Recife Center (Sector S-14): 124.250
Recife Center (Sector S-14): 126.550
Recife Center (Sector S-15): 134.750
Recife Center (Sector S-15): 126.550
TAM Coordination: 130.500
TRIP Coordination: 131.375

Visit Vitoria Airport Web Site

SBVT Gnd/Twr/App (Archives)
Vitoria, Brazil

Feed Status: UP
Listen in your browser - HTML5 player(in browser, HTML5)
Listen right in your browser(in browser, requires Flash)
Click here to listen with your own player(launches your MP3 player)

SBVT 110100Z 32003KT 9999 FEW020 BKN100 22/21 Q1023

SBVT Flight Activity (Flightaware)

Listeners: 4 out of 1200 total

SBVT Approach: 119.850
SBVT Ground: 121.950
SBVT Tower: 118.100

Visit Vitoria Airport Web Site

SCEL Gnd/Twr/Radar (Archives)
Santiago, Chile

Feed Status: UP
Listen in your browser - HTML5 player(in browser, HTML5)
Listen right in your browser(in browser, requires Flash)
Click here to listen with your own player(launches your MP3 player)

SCEL 110100Z 15011KT CAVOK 20/04 Q1017 NOSIG

SCEL Flight Activity (Flightaware)

Listeners: 7 out of 1200 total

Santiago Authorizations: 121.700
Santiago Control (Lat 3323S North): 128.100
Santiago Control (Lat 3323S South): 126.300
Santiago Ground (Primary): 122.200
Santiago Ground (Secondary): 122.500
Santiago Radar (Arrival, Primary): 129.700
Santiago Radar (Arrival, Secondary): 119.700
Santiago Radar (Arrival, Secondary): 123.800
Santiago Radar (Departure, Primary): 121.100
Santiago Radar (Departure, Secondary): 123.800
Santiago Radar (Information, Primary): 122.400
Santiago Radar (Information, Secondary): 120.800
Santiago Radar (Information, Secondary): 123.800
Santiago Tower (Primary): 118.100
Santiago Tower (Secondary): 118.350
SCTB Tobalaba Tower: 118.700

SCJO Gnd/Twr (Archives)
Osorno, Chile

Feed Status: UP
Listen in your browser - HTML5 player(in browser, HTML5)
Listen right in your browser(in browser, requires Flash)
Click here to listen with your own player(launches your MP3 player)

SCJO 102100Z 36010KT 2000 +RA BKN015 OVC020 14/14 Q1014

SCJO Flight Activity (Flightaware)

Listeners: 0 out of 1200 total

Osorno Ground: 121.700
Osorno Tower: 118.900

Sponsored by: Serticom

SEGU App/Dep (Archives)
Guayaquil, Ecuador

Feed Status: UP
Listen in your browser - HTML5 player(in browser, HTML5)
Listen right in your browser(in browser, requires Flash)
Click here to listen with your own player(launches your MP3 player)

SEGU 110100Z 22012KT CAVOK 28/19 Q1011 NOSIG RMK A2986

SEGU Flight Activity (Flightaware)

Listeners: 0 out of 1200 total

Guayaquil Approach: 120.700

SEGU Gnd/Twr (Archives)
Guayaquil, Ecuador

Feed Status: UP
Listen in your browser - HTML5 player(in browser, HTML5)
Listen right in your browser(in browser, requires Flash)
Click here to listen with your own player(launches your MP3 player)

SEGU 110100Z 22012KT CAVOK 28/19 Q1011 NOSIG RMK A2986

SEGU Flight Activity (Flightaware)

Listeners: 0 out of 1200 total

Guayaquil Ground: 121.900
Guayaquil Tower: 118.300

SEGU Gnd/Twr/App (Archives)
Guayaquil, Ecuador

Feed Status: UP
Listen in your browser - HTML5 player(in browser, HTML5)
Listen right in your browser(in browser, requires Flash)
Click here to listen with your own player(launches your MP3 player)

SEGU 110100Z 22012KT CAVOK 28/19 Q1011 NOSIG RMK A2986

SEGU Flight Activity (Flightaware)

Listeners: 0 out of 1200 total

Guayaquil Approach: 120.700
Guayaquil Ground: 121.900
Guayaquil Tower: 118.300

SEGU Guayaquil Center (Archives)
Guayaquil, Ecuador

Feed Status: UP
Listen in your browser - HTML5 player(in browser, HTML5)
Listen right in your browser(in browser, requires Flash)
Click here to listen with your own player(launches your MP3 player)

SEGU 110100Z 22012KT CAVOK 28/19 Q1011 NOSIG RMK A2986

SEGU Flight Activity (Flightaware)

Listeners: 0 out of 1200 total

Guayaquil Center: 127.950
Guayaquil Center: 128.300

SEQM ATIS (Archives)
Quito, Ecuador

Feed Status: UP
Listen in your browser - HTML5 player(in browser, HTML5)
Listen right in your browser(in browser, requires Flash)
Click here to listen with your own player(launches your MP3 player)

SEQM 110100Z 05004KT 9999 SCT030 14/14 Q1027 NOSIG RMK A3032

SEQM Flight Activity (Flightaware)

Listeners: 0 out of 1200 total

Quito ATIS: 118.700

SEQM Gnd/Twr/App (Archives)
Quito, Ecuador

Feed Status: UP
Listen in your browser - HTML5 player(in browser, HTML5)
Listen right in your browser(in browser, requires Flash)
Click here to listen with your own player(launches your MP3 player)

SEQM 110100Z 05004KT 9999 SCT030 14/14 Q1027 NOSIG RMK A3032

SEQM Flight Activity (Flightaware)

Listeners: 0 out of 1200 total

Quito Approach/Departure: 119.700
Quito Approach/Departure: 121.200
Quito Ground: 121.900
Quito Tower: 118.100
Quito Tower (Secondary): 118.350

SEQM Tower (Archives)
Quito, Ecuador

Feed Status: UP
Listen in your browser - HTML5 player(in browser, HTML5)
Listen right in your browser(in browser, requires Flash)
Click here to listen with your own player(launches your MP3 player)

SEQM 110100Z 05004KT 9999 SCT030 14/14 Q1027 NOSIG RMK A3032

SEQM Flight Activity (Flightaware)

Listeners: 0 out of 1200 total

Quito Tower: 118.100
Quito Tower (Secondary): 118.350

SGAS Gnd/Twr/App/Center (Archives)
Asuncion, Paraguay

Feed Status: UP
Listen in your browser - HTML5 player(in browser, HTML5)
Listen right in your browser(in browser, requires Flash)
Click here to listen with your own player(launches your MP3 player)

SGAS 110000Z 10005KT CAVOK 31/21 Q1011

SGAS Flight Activity (Flightaware)

Listeners: 0 out of 1200 total

Asuncion Approach: 119.700
Asuncion Control: 126.900
Asuncion Ground: 121.900
Asuncion Tower: 118.100

SKBO Del/Gnd/Twr/App
Bogota, Colombia

Feed Status: DOWN
Offline since: 2018-12-09 02:51:03 UTC

SKBO 110100Z 00000KT 9999 FEW023 BKN070 14/10 A3037

Bogota Approach: 119.500
Bogota Clearance Delivery: 121.600
Bogota Departure (North): 121.300
Bogota Departure (South): 119.650
Bogota Ground (North): 121.800
Bogota Ground (South): 122.750
Bogota Information: 126.900
Bogota Tower (North): 118.100
Bogota Tower (South): 118.250
Guaymaral Ground: 121.700
Guaymaral Tower: 118.800

SKBQ Approach (Archives)
Barranquilla, Colombia

Feed Status: UP
Listen in your browser - HTML5 player(in browser, HTML5)
Listen right in your browser(in browser, requires Flash)
Click here to listen with your own player(launches your MP3 player)

SKBQ 110100Z 36008KT CAVOK 27/23 A2984

SKBQ Flight Activity (Flightaware)

Listeners: 2 out of 1200 total

Barranquilla Approach/Departure: 119.100

SKBQ Gnd/Twr (Archives)
Barranquilla, Colombia

Feed Status: UP
Listen in your browser - HTML5 player(in browser, HTML5)
Listen right in your browser(in browser, requires Flash)
Click here to listen with your own player(launches your MP3 player)

SKBQ 110100Z 36008KT CAVOK 27/23 A2984

SKBQ Flight Activity (Flightaware)

Listeners: 1 out of 1200 total

Barranquilla Ground: 121.900
Barranquilla Tower: 118.450
Barranquilla Tower: 118.100

SKMD Twr/Control
Medellin, Colombia

Feed Status: DOWN
Offline since: 2017-07-12 22:59:03 UTC

SKMD 102300Z 36012KT 9999 FEW040CB SCT200 24/15 A3007 RMK CB S/SW

Herrera Tower: 118.900
Medellin Control: 121.100

SLLP Center
La Paz, Bolivia

Feed Status: DOWN
Offline since: 2018-11-16 00:28:02 UTC

La Paz Center: 128.200

SNRZ Area (Archives)
Oliveira, Brazil

Feed Status: UP
Listen in your browser - HTML5 player(in browser, HTML5)
Listen right in your browser(in browser, requires Flash)
Click here to listen with your own player(launches your MP3 player)

SNRZ Flight Activity (Flightaware)

Listeners: 0 out of 1200 total

Azul: 130.900
Brasilia ACC-BS (Air Control Center): 133.450
Brasilia ACC-BS (Air Control Center): 135.550
Brasilia ACC-BS (Air Control Center): 126.150
Brasilia ACC-BS (Air Control Center): 126.800
Brasilia ACC-BS (Air Control Center): 125.050
Brasilia ACC-BS (Air Control Center): 126.500
Brasilia ACC-BS (Air Control Center): 122.650
Brasilia ACC-BS (Air Control Center): 126.550
Brasilia ACC-BS (Air Control Center): 123.350
Brasilia ACC-BS (Air Control Center): 124.750
Brasilia ACC-BS (Air Control Center): 134.750
Brasilia ACC-BS (Air Control Center): 133.600
Brasilia ACC-BS (Air Control Center): 124.800
Brasilia ACC-BS (Air Control Center): 124.250
Brasilia ACC-BS (Air Control Center): 127.300
Brasilia ACC-BS (Air Control Center): 127.000
Brasilia ACC-BS (Air Control Center): 124.250
Brasilia ACC-BS (Air Control Center): 127.300
Brasilia ACC-BS (Air Control Center): 127.000
Brasilia ACC-BS (Air Control Center): 133.450
Brasilia ACC-BS (Air Control Center): 135.550
Brasilia ACC-BS (Air Control Center): 126.150
Brasilia ACC-BS (Air Control Center): 126.800
Brasilia ACC-BS (Air Control Center): 125.050
Brasilia ACC-BS (Air Control Center): 126.500
Brasilia ACC-BS (Air Control Center): 122.650
Brasilia ACC-BS (Air Control Center): 126.550
Brasilia ACC-BS (Air Control Center): 123.350
Brasilia ACC-BS (Air Control Center): 124.750
Brasilia ACC-BS (Air Control Center): 134.750
Brasilia ACC-BS (Air Control Center): 133.600
Brasilia ACC-BS (Air Control Center): 124.800
Curitiba ACC-CW: 126.500
Curitiba ACC-CW: 134.750
Curitiba ACC-CW: 124.000
Curitiba ACC-CW: 125.350
Emergency: 121.500
Emergency: 121.500
GOL Coordination: 131.225
TAM Coordination: 130.500
TAM Maintenance: 130.600
Trip Coordination: 131.375

HF CWP/SEA (Archives)
Pyeongtaek, Korea, Republic of

Feed Status: UP
Listen in your browser - HTML5 player(in browser, HTML5)
Listen right in your browser(in browser, requires Flash)
Click here to listen with your own player(launches your MP3 player)


Listeners: 0 out of 1200 total

CWP 1 (Tokyo): 11.384
CWP 1/2 (Tokyo): 13.300
CWP-1/2 (San Francisco): 17.904
CWP-1/2 (Tokyo/Manila): 8.903
CWP-1/2 (Tokyo/San Francisco): 21.985
SEA-2 (Manila): 8.942

Receiver location: Seoul, Korea

SPJC Approach (Archives)
Lima, Peru

Feed Status: UP
Listen in your browser - HTML5 player(in browser, HTML5)
Listen right in your browser(in browser, requires Flash)
Click here to listen with your own player(launches your MP3 player)

SPJC 110100Z 17012KT 9999 SCT010 20/17 Q1015 NOSIG RMK PP000

SPJC Flight Activity (Flightaware)

Listeners: 0 out of 1200 total

Lima Approach: 119.700

SPJC Ground (Archives)
Lima, Peru

Feed Status: UP
Listen in your browser - HTML5 player(in browser, HTML5)
Listen right in your browser(in browser, requires Flash)
Click here to listen with your own player(launches your MP3 player)

SPJC 110100Z 17012KT 9999 SCT010 20/17 Q1015 NOSIG RMK PP000

SPJC Flight Activity (Flightaware)

Listeners: 1 out of 1200 total

Lima Ground: 121.900

SPJC Tower (Archives)
Lima, Peru

Feed Status: UP
Listen in your browser - HTML5 player(in browser, HTML5)
Listen right in your browser(in browser, requires Flash)
Click here to listen with your own player(launches your MP3 player)

SPJC 110100Z 17012KT 9999 SCT010 20/17 Q1015 NOSIG RMK PP000

SPJC Flight Activity (Flightaware)

Listeners: 1 out of 1200 total

Lima Tower: 118.100

SSBL Air to Air
Blumenau, Brazil

Feed Status: DOWN
Offline since: 2018-12-10 09:36:03 UTC

METAR NOT AVAILABLE

Air to Air: 123.450

SUAA Tower
Montevideo, Uruguay

Feed Status: DOWN
Offline since: 2017-12-03 00:10:03 UTC

Adami Tower: 118.400
Adami Tower (backup): 122.100
Emergency/Guard: 121.500

Feed provided by:

Volemos.com.uy

Aviación Uruguaya - Volemos.com.uy

SUMU Twr/App (Archives)
Montevideo, Uruguay

Feed Status: UP
Listen in your browser - HTML5 player(in browser, HTML5)
Listen right in your browser(in browser, requires Flash)
Click here to listen with your own player(launches your MP3 player)

SUMU 110100Z 07008KT CAVOK 23/08 Q1013 NOSIG

SUMU Flight Activity (Flightaware)

Listeners: 0 out of 1200 total

SUMU Approach: 119.200
SUMU Tower: 118.100

Sponsored by Aeroclub Aerosur - Escuela de Vuelo

SUMU Twr/App/Radar
Montevideo, Uruguay

Feed Status: DOWN
Offline since: 2018-11-27 00:10:02 UTC

SUMU 110100Z 07008KT CAVOK 23/08 Q1013 NOSIG

SUMU Approach: 120.200
SUMU Approach: 119.200
SUMU Info: 121.800
SUMU Informacion: 121.800
SUMU Radar Control: 128.500
SUMU Radar Control: 126.300
SUMU Radar Control: 128.000
SUMU Tower: 118.100

Feed provided by:

Volemos.com.uy

Aviación Uruguaya - Volemos.com.uy

SUPU/SUPC Misc (Archives)
Paysandu, Uruguay

Feed Status: UP
Listen in your browser - HTML5 player(in browser, HTML5)
Listen right in your browser(in browser, requires Flash)
Click here to listen with your own player(launches your MP3 player)

SUPU 040900Z 10005KT 9999 FEW020TCU BKN070 FEW200 23/23 Q1010

SUPU Flight Activity (Flightaware)

Listeners: 0 out of 1200 total

Chalkling Tower: 118.700
Paysandu Tower: 118.200

Courtesy of: Aeroclub Paysandu

SVZM FIR #1 (Archives)
Maiquetia, Venezuela

Feed Status: UP
Listen in your browser - HTML5 player(in browser, HTML5)
Listen right in your browser(in browser, requires Flash)
Click here to listen with your own player(launches your MP3 player)

SVMI 110000Z 00000KT 9999 SCT016 24/22 Q1013

SVMI Flight Activity (Flightaware)

Listeners: 1 out of 1200 total

Maiquetia Center (North/Centra/Coastal): 128.500
Maiquetia Center (South/Central): 127.950
Maiquetia Center (Southeast): 128.700

SVZM FIR #2 (Archives)
Maiquetia, Venezuela

Feed Status: UP
Listen in your browser - HTML5 player(in browser, HTML5)
Listen right in your browser(in browser, requires Flash)
Click here to listen with your own player(launches your MP3 player)

SVMI 110000Z 00000KT 9999 SCT016 24/22 Q1013

SVMI Flight Activity (Flightaware)

Listeners: 0 out of 1200 total

Maiquetia Center (Northeast): 125.200
Maiquetia Center (Northeast): 126.600
Maiquetia Center (Southeast): 126.000

SVPR Twr/App/FIR (Archives)
Ciudad Guayana, Venezuela

Feed Status: UP
Listen in your browser - HTML5 player(in browser, HTML5)
Listen right in your browser(in browser, requires Flash)
Click here to listen with your own player(launches your MP3 player)

SVPR Flight Activity (Flightaware)

Listeners: 0 out of 1200 total

Emergency/Guard: 121.500
FIR 6: 126.000
Guayana Approach (Primary): 119.500
Guayana Approach (Secondary): 120.300
Guayana Tower (Primary): 118.000
Guayana Tower (Secondary): 123.500
SMC: 121.900

SVVA Gnd/Twr/App (Archives)
Valencia, Venezuela

Feed Status: UP
Listen in your browser - HTML5 player(in browser, HTML5)
Listen right in your browser(in browser, requires Flash)
Click here to listen with your own player(launches your MP3 player)

SVVA 032100Z /////KT 9999 SCT016 27/20 Q1013

SVVA Flight Activity (Flightaware)

Listeners: 0 out of 1200 total

Libertador Approach: 119.300
Valencia Ground: 121.900
Valencia Tower: 121.200

TBPB Gnd/Twr/Radar/Center (Archives)
Bridgetown, Barbados

Feed Status: UP
Listen in your browser - HTML5 player(in browser, HTML5)
Listen right in your browser(in browser, requires Flash)
Click here to listen with your own player(launches your MP3 player)

TBPB 110000Z 10016KT 9999 FEW022 26/21 Q1017 NOSIG

TBPB Flight Activity (Flightaware)

Listeners: 2 out of 1200 total

Adams Approach/Departure: 129.350
Adams Approach/Departure: 128.850
Adams Ground: 121.900
Adams Tower: 118.700
Piarco Center: 123.700

TNCA Twr/Apron/FIR (Archives)
Oranjestad, Aruba

Feed Status: UP
Listen in your browser - HTML5 player(in browser, HTML5)
Listen right in your browser(in browser, requires Flash)
Click here to listen with your own player(launches your MP3 player)

TNCA 110000Z 09017KT 9999 FEW018 27/22 Q1014 NOSIG

TNCA Flight Activity (Flightaware)

Listeners: 3 out of 1200 total

Beatrix Ground (Apron): 121.600
Beatrix Tower: 120.900
Beatrix Tower (secondary): 118.000
Curacao Control: 127.100
Emergency/Guard: 121.500
Search/Rescue: 123.100

NOTES: OurAirports.com

TNCB Tower (Archives)
Kralendijk, Bonaire

Feed Status: UP
Listen in your browser - HTML5 player(in browser, HTML5)
Listen right in your browser(in browser, requires Flash)
Click here to listen with your own player(launches your MP3 player)

TNCB 102155Z 09014KT 9999 FEW023 27/21 Q1013

TNCB Flight Activity (Flightaware)

Listeners: 1 out of 1200 total

Bonaire Tower: 118.700

TNCC Curacao Control (Archives)
Willemstad, Curacao

Feed Status: UP
Listen in your browser - HTML5 player(in browser, HTML5)
Listen right in your browser(in browser, requires Flash)
Click here to listen with your own player(launches your MP3 player)

TNCC 110000Z AUTO 10013KT 9999 NCD 26/21 Q1015 NOSIG

TNCC Flight Activity (Flightaware)

Listeners: 0 out of 1200 total

Curacao Control: 124.100
Curacao Control: 127.100

TNCC Tower/Radar (Archives)
Willemstad, Curacao

Feed Status: UP
Listen in your browser - HTML5 player(in browser, HTML5)
Listen right in your browser(in browser, requires Flash)
Click here to listen with your own player(launches your MP3 player)

TNCC 110000Z AUTO 10013KT 9999 NCD 26/21 Q1015 NOSIG

TNCC Flight Activity (Flightaware)

Listeners: 0 out of 1200 total

Hato Radar: 119.600
Hato Tower: 118.300

TNCC Twr/Radar/Control (Archives)
Willemstad, Curacao

Feed Status: UP
Listen in your browser - HTML5 player(in browser, HTML5)
Listen right in your browser(in browser, requires Flash)
Click here to listen with your own player(launches your MP3 player)

TNCC 110000Z AUTO 10013KT 9999 NCD 26/21 Q1015 NOSIG

TNCC Flight Activity (Flightaware)

Listeners: 2 out of 1200 total

Curacao Control: 127.100
Hato Radar: 119.600
Hato Tower: 118.300

TNCE Info (Archives)
Oranjestad, Sint Eustatius

Feed Status: UP
Listen in your browser - HTML5 player(in browser, HTML5)
Listen right in your browser(in browser, requires Flash)
Click here to listen with your own player(launches your MP3 player)

TNCE 102355Z AUTO 09008KT 060V130 //// // ///////// 26/21 Q1019 RE//

TNCE Flight Activity (Flightaware)

Listeners: 0 out of 1200 total

Statia Info: 118.100

TTPP Apron/Gnd/Twr (Archives)
Port of Spain, Trinidad and Tobago

Feed Status: UP
Listen in your browser - HTML5 player(in browser, HTML5)
Listen right in your browser(in browser, requires Flash)
Click here to listen with your own player(launches your MP3 player)

TTPP 110000Z 10006KT 9999 FEW018 25/22 Q1016 NOSIG

TTPP Flight Activity (Flightaware)

Listeners: 4 out of 1200 total

Piarco Apron: 121.750
Piarco Ground: 121.900
Piarco Tower: 118.100

TTPP Piarco Approach (Archives)
Port of Spain, Trinidad and Tobago

Feed Status: UP
Listen in your browser - HTML5 player(in browser, HTML5)
Listen right in your browser(in browser, requires Flash)
Click here to listen with your own player(launches your MP3 player)

TTPP 110000Z 10006KT 9999 FEW018 25/22 Q1016 NOSIG

TTPP Flight Activity (Flightaware)

Listeners: 1 out of 1200 total

Piarco Approach: 119.550
Piarco Approach: 119.000
Piarco Approach (backup): 124.000

TTPP Piarco Center (Archives)
Port of Spain, Trinidad and Tobago

Feed Status: UP
Listen in your browser - HTML5 player(in browser, HTML5)
Listen right in your browser(in browser, requires Flash)
Click here to listen with your own player(launches your MP3 player)

TTPP 110000Z 10006KT 9999 FEW018 25/22 Q1016 NOSIG

TTPP Flight Activity (Flightaware)

Listeners: 0 out of 1200 total

Piarco Center: 123.700
Piarco Center (Oceanic): 126.500
Piarco Center (South Sector): 125.400
Piarco Center Oceanic (Backup): 133.100

TXKF Tower/Ground (Archives)
Hamilton, Bermuda

Feed Status: UP
Listen in your browser - HTML5 player(in browser, HTML5)
Listen right in your browser(in browser, requires Flash)
Click here to listen with your own player(launches your MP3 player)

TXKF 110055Z 24022KT 9999 VCSH BKN015 BKN065 BKN300 23/21 Q1012

TXKF Flight Activity (Flightaware)

Listeners: 0 out of 1200 total

Bermuda CTAF: 122.800
Bermuda Ground/Clearance: 124.500
Bermuda Tower: 118.100

ZNY Bermuda Sector (Archives)
Hamilton, Bermuda

Feed Status: UP
Listen in your browser - HTML5 player(in browser, HTML5)
Listen right in your browser(in browser, requires Flash)
Click here to listen with your own player(launches your MP3 player)

TXKF 110055Z 24022KT 9999 VCSH BKN015 BKN065 BKN300 23/21 Q1012

TXKF Flight Activity (Flightaware)

Listeners: 0 out of 1200 total

New York Approach (Bermuda Sector) : 119.100
New York Center (Bermuda Sector): 128.500

UAAA Approach (Archives)
Almaty, Kazakhstan

Feed Status: UP
Listen in your browser - HTML5 player(in browser, HTML5)
Listen right in your browser(in browser, requires Flash)
Click here to listen with your own player(launches your MP3 player)

UAAA 110030Z 24002MPS 2700 BR FU OVC023 02/M01 Q1023 R88/91//50 NOSIG

UAAA Flight Activity (Flightaware)

Listeners: 0 out of 1200 total

Almaty Approach: 124.800

UAAA Tower (Archives)
Almaty, Kazakhstan

Feed Status: UP
Listen in your browser - HTML5 player(in browser, HTML5)
Listen right in your browser(in browser, requires Flash)
Click here to listen with your own player(launches your MP3 player)

UAAA 110030Z 24002MPS 2700 BR FU OVC023 02/M01 Q1023 R88/91//50 NOSIG

UAAA Flight Activity (Flightaware)

Listeners: 0 out of 1200 total

Almaty Tower: 119.400

UAAA Tower/Approach (Archives)
Almaty, Kazakhstan

Feed Status: UP
Listen in your browser - HTML5 player(in browser, HTML5)
Listen right in your browser(in browser, requires Flash)
Click here to listen with your own player(launches your MP3 player)

UAAA 110030Z 24002MPS 2700 BR FU OVC023 02/M01 Q1023 R88/91//50 NOSIG

UAAA Flight Activity (Flightaware)

Listeners: 0 out of 1200 total

Almaty Approach: 124.800
Almaty Tower: 119.400

UNNT Gnd/Twr/App/Radar/Misc (Archives)
Novosibirsk, Russia

Feed Status: UP
Listen in your browser - HTML5 player(in browser, HTML5)
Listen right in your browser(in browser, requires Flash)
Click here to listen with your own player(launches your MP3 player)

UNNT 110030Z 13003MPS 7000 NSC M18/M21 Q1032 R25/810160 R16/810160 NOSIG RMK QFE764/1018

UNNT Flight Activity (Flightaware)

Listeners: 8 out of 1200 total

ACC_Novosibirsk-Control [5th military channel]: 128.500
ACC_Novosibirsk-Control [Southeast]: 126.100
ACC_Novosibirsk-Control [West]: 127.000
GPA_Kristallik [Severniy airfield]: 123.425
GPA_Sernisiy [Chkalovskiy airfield]: 124.750
GPA_Tomsk Information 1: 134.500
MIL_3 [3rd military channel]: 130.750
MIL_Larek [Shilovo facility]: 123.750
MIL_Maneken [Chkalovskiy airfield]: 123.550
MIL_Novosibirsk-1 [1st military channel]: 124.000
MIL_Noyabr' 31: 124.900
MIL_Trimaran: 124.500
SP_Air-to-Air: 123.450
SP_Air-to-Air 2: 123.400
SP_Common backup frequency: 129.000
SP_Emergency: 121.500
SP_Emergency 2: 123.100
SP_Flyoff: 124.375
SURF_Boarding: 163.425
SURF_Duty chart: 163.800
SURF_O&D Service: 163.325
SURF_Search & Rescue: 164.000
SURF_Security: 163.750
SURF_Tower surf: 163.650
SURF_Vehicles: 163.850
UNNT_Backup frequency: 127.100
UNNT_Novosibirsk-Approach: 127.500
UNNT_Novosibirsk-Ground: 121.700
UNNT_Novosibirsk-Radar: 122.000
UNNT_Novosibirsk-Tower: 118.500
UNNT_Novosibirsk-Transit: 131.600
UNNT_S7 FOCC: 131.925

UNOO Gnd/Tower/App (Archives)
Omsk, Russia

Feed Status: UP
Listen in your browser - HTML5 player(in browser, HTML5)
Listen right in your browser(in browser, requires Flash)
Click here to listen with your own player(launches your MP3 player)

UNOO 110030Z 05003MPS CAVOK M21/M23 Q1027 R07/810350 NOSIG RMK QFE761

UNOO Flight Activity (Flightaware)

Listeners: 3 out of 1200 total

Aerodrom Kalachevo: 123.300
Aerodrom Marianovka: 123.000
Emergency/Guard: 121.500
Novosibirsk Control (Sector 7): 132.500
Novosibirsk Control (Sector 8): 132.900
Omsk Approach (FL060-FL265): 131.200
Omsk Apron: 118.800
Omsk Start/Radar: 119.000
Omsk Taxiing: 121.700
Omsk Transit: 131.700
UNOS/OMSK-Severny: 124.000

UNTT Gnd/Info/Radar/Control (Archives)
Tomsk, Russia

Feed Status: UP
Listen in your browser - HTML5 player(in browser, HTML5)
Listen right in your browser(in browser, requires Flash)
Click here to listen with your own player(launches your MP3 player)

UNTT Flight Activity (Flightaware)

Listeners: 1 out of 1200 total

Common Backup Frequency: 129.000
Emergency/Guard: 121.500
Novosibirsk Control (Sector 2): 126.100
Novosibirsk Control (Sector 3): 129.300
Novosibirsk Control (Sector 5): 132.300
Tomsk Ground: 118.800
Tomsk Information 1: 134.500
Tomsk Krug (Radar): 127.300
Tomsk Transit: 131.875
Troynik (Golovino): 122.400

URKK Gnd/Twr/App (Archives)
Krasnodar, Russia

Feed Status: UP
Listen in your browser - HTML5 player(in browser, HTML5)
Listen right in your browser(in browser, requires Flash)
Click here to listen with your own player(launches your MP3 player)

URKK 110030Z 08004MPS CAVOK 06/02 Q1007 R23L/290060 NOSIG RMK QFE752

URKK Flight Activity (Flightaware)

Listeners: 2 out of 1200 total

Krasnodar Approach: 129.600
Krasnodar Ground: 119.000
Krasnodar Radar: 121.300
Krasnodar Tower: 118.200

URMT Twr/App/Control (Archives)
Stavropol, Russia

Feed Status: UP
Listen in your browser - HTML5 player(in browser, HTML5)
Listen right in your browser(in browser, requires Flash)
Click here to listen with your own player(launches your MP3 player)

URMT 110030Z 13005MPS CAVOK 00/M00 Q1010 R07/120060 NOSIG RMK QFE718

URMT Flight Activity (Flightaware)

Listeners: 0 out of 1200 total

Stavropol Approach: 120.300
Stavropol Control: 118.250
Stavropol Tower: 120.900

URSS Gnd/Twr/App
Sochi, Russia

Feed Status: DOWN
Offline since: 2018-11-11 08:29:03 UTC

URSS 110030Z 04007MPS 9999 BKN100 12/05 Q1006 WS ALL RWY R02/090070 R06/090070 NOSIG RMK R06/07007MPS QFE753

Sochi Approach: 118.300
Sochi Approach: 119.700
Sochi District (Small Aircraft): 118.500
Sochi Start: 121.200
Sochi Taxi: 119.000
Sochi Tower: 124.600

USDD Gnd/Twr/App/Control (Archives)
Salekhard, Russia

Feed Status: UP
Listen in your browser - HTML5 player(in browser, HTML5)
Listen right in your browser(in browser, requires Flash)
Click here to listen with your own player(launches your MP3 player)

USDD 150530Z 05007MPS 9999 -SHRA BKN009CB 09/07 Q1002 R04/290060 NOSIG RMK QFE746/0994

USDD Flight Activity (Flightaware)

Listeners: 0 out of 1200 total

Salekhard Control: 132.300
Salekhard Ground: 118.800
Salekhard Info: 125.200
Salekhard Krug: 120.800
Salekhard Tower: 118.600
Salekhard Transit: 131.700

USTR Gnd/Twr/App (Archives)
Tyumen, Russia

Feed Status: UP
Listen in your browser - HTML5 player(in browser, HTML5)
Listen right in your browser(in browser, requires Flash)
Click here to listen with your own player(launches your MP3 player)

USTR 110030Z 23004MPS CAVOK M23/M26 Q1026 R12/CLRD65 NOSIG RMK QFE761/1014

USTR Flight Activity (Flightaware)

Listeners: 0 out of 1200 total

Tyumen Approach: 126.100
Tyumen Control: 132.600
Tyumen Control: 133.600
Tyumen Info (Regional): 133.400
Tyumen Start: 118.200
Tyumen Transit: 131.800

USUU Twr/App/Control (Archives)
Kurgan, Russia

Feed Status: UP
Listen in your browser - HTML5 player(in browser, HTML5)
Listen right in your browser(in browser, requires Flash)
Click here to listen with your own player(launches your MP3 player)

USUU Flight Activity (Flightaware)

Listeners: 0 out of 1200 total

Aerodromnaya 50: 164.100
Baggage Handling: 164.025
Kurgan Approach: 120.300
Kurgan Tower: 134.300
Kurgan/USUU Transit: 131.700
Kurtamysh: 122.450
Ural Control Sector 4: 119.700
USUL Tower: 129.600

VCBI Director
Colombo, Sri Lanka

Feed Status: DOWN
Offline since: 2018-12-10 16:51:05 UTC

VCBI 110010Z 03005KT 6000 HZ NSC 23/21 Q1010 NOSIG

Colombo Director: 132.400

VHHH Approach 119.1 #1 (Archives)
Hong Kong, Hong Kong

Feed Status: UP
Listen in your browser - HTML5 player(in browser, HTML5)
Listen right in your browser(in browser, requires Flash)
Click here to listen with your own player(launches your MP3 player)

VHHH 110030Z 35008KT 320V020 9999 FEW020 SCT024 16/11 Q1022 NOSIG

VHHH Flight Activity (Flightaware)

Listeners: 2 out of 1200 total

Hong Kong Approach: 119.100

VHHH Approach 119.1 #2 (Archives)
Hong Kong, Hong Kong

Feed Status: UP
Listen in your browser - HTML5 player(in browser, HTML5)
Listen right in your browser(in browser, requires Flash)
Click here to listen with your own player(launches your MP3 player)

VHHH 110030Z 35008KT 320V020 9999 FEW020 SCT024 16/11 Q1022 NOSIG

VHHH Flight Activity (Flightaware)

Listeners: 0 out of 1200 total

Hong Kong Approach: 119.100

VHHH ATIS (Archives)
Hong Kong, Hong Kong

Feed Status: UP
Listen in your browser - HTML5 player(in browser, HTML5)
Listen right in your browser(in browser, requires Flash)
Click here to listen with your own player(launches your MP3 player)

VHHH 110030Z 35008KT 320V020 9999 FEW020 SCT024 16/11 Q1022 NOSIG

VHHH Flight Activity (Flightaware)

Listeners: 0 out of 1200 total

Hong Kong Arrival ATIS: 128.200

VHHH Clearance Delivery (Archives)
Hong Kong, Hong Kong

Feed Status: UP
Listen in your browser - HTML5 player(in browser, HTML5)
Listen right in your browser(in browser, requires Flash)
Click here to listen with your own player(launches your MP3 player)

VHHH 110030Z 35008KT 320V020 9999 FEW020 SCT024 16/11 Q1022 NOSIG

VHHH Flight Activity (Flightaware)

Listeners: 0 out of 1200 total

Hong Kong Clearance Delivery: 129.900

VHHH Departure (Primary) (Archives)
Hong Kong, Hong Kong

Feed Status: UP
Listen in your browser - HTML5 player(in browser, HTML5)
Listen right in your browser(in browser, requires Flash)
Click here to listen with your own player(launches your MP3 player)

VHHH 110030Z 35008KT 320V020 9999 FEW020 SCT024 16/11 Q1022 NOSIG

VHHH Flight Activity (Flightaware)

Listeners: 0 out of 1200 total

Hong Kong Departure: 123.800

VHHH Director #1 (Archives)
Hong Kong, Hong Kong

Feed Status: UP
Listen in your browser - HTML5 player(in browser, HTML5)
Listen right in your browser(in browser, requires Flash)
Click here to listen with your own player(launches your MP3 player)

VHHH 110030Z 35008KT 320V020 9999 FEW020 SCT024 16/11 Q1022 NOSIG

VHHH Flight Activity (Flightaware)

Listeners: 0 out of 1200 total

Hong Kong Director: 119.500

VHHH Director #2 (Archives)
Hong Kong, Hong Kong

Feed Status: UP
Listen in your browser - HTML5 player(in browser, HTML5)
Listen right in your browser(in browser, requires Flash)
Click here to listen with your own player(launches your MP3 player)

VHHH 110030Z 35008KT 320V020 9999 FEW020 SCT024 16/11 Q1022 NOSIG

VHHH Flight Activity (Flightaware)

Listeners: 2 out of 1200 total

Hong Kong Director: 119.500

VHHH Ground (Archives)
Hong Kong, Hong Kong

Feed Status: UP
Listen in your browser - HTML5 player(in browser, HTML5)
Listen right in your browser(in browser, requires Flash)
Click here to listen with your own player(launches your MP3 player)

VHHH 110030Z 35008KT 320V020 9999 FEW020 SCT024 16/11 Q1022 NOSIG

VHHH Flight Activity (Flightaware)

Listeners: 1 out of 1200 total

Hong Kong Ground (North): 121.600
Hong Kong Ground (South): 122.550

VHHH Ground (North) (Archives)
Hong Kong, Hong Kong

Feed Status: UP
Listen in your browser - HTML5 player(in browser, HTML5)
Listen right in your browser(in browser, requires Flash)
Click here to listen with your own player(launches your MP3 player)

VHHH 110030Z 35008KT 320V020 9999 FEW020 SCT024 16/11 Q1022 NOSIG

VHHH Flight Activity (Flightaware)

Listeners: 0 out of 1200 total

Hong Kong Ground (North): 121.600

VHHH Ground (South) (Archives)
Hong Kong, Hong Kong

Feed Status: UP
Listen in your browser - HTML5 player(in browser, HTML5)
Listen right in your browser(in browser, requires Flash)
Click here to listen with your own player(launches your MP3 player)

VHHH 110030Z 35008KT 320V020 9999 FEW020 SCT024 16/11 Q1022 NOSIG

VHHH Flight Activity (Flightaware)

Listeners: 0 out of 1200 total

Hong Kong Ground (South): 122.550

VHHH Hong Kong Radar
Hong Kong, Hong Kong

Feed Status: DOWN
Offline since: 2018-12-06 09:24:03 UTC

VHHH 110030Z 35008KT 320V020 9999 FEW020 SCT024 16/11 Q1022 NOSIG

Hong Kong Radar: 123.950

VHHH Tower (Archives)
Hong Kong, Hong Kong

Feed Status: UP
Listen in your browser - HTML5 player(in browser, HTML5)
Listen right in your browser(in browser, requires Flash)
Click here to listen with your own player(launches your MP3 player)

VHHH 110030Z 35008KT 320V020 9999 FEW020 SCT024 16/11 Q1022 NOSIG

VHHH Flight Activity (Flightaware)

Listeners: 1 out of 1200 total

Hong Kong Tower (North): 118.200
Hong Kong Tower (South): 118.400

VHHH Tower (North) (Archives)
Hong Kong, Hong Kong

Feed Status: UP
Listen in your browser - HTML5 player(in browser, HTML5)
Listen right in your browser(in browser, requires Flash)
Click here to listen with your own player(launches your MP3 player)

VHHH 110030Z 35008KT 320V020 9999 FEW020 SCT024 16/11 Q1022 NOSIG

VHHH Flight Activity (Flightaware)

Listeners: 0 out of 1200 total

Hong Kong Tower (North): 118.200

VHHH Tower (South) (Archives)
Hong Kong, Hong Kong

Feed Status: UP
Listen in your browser - HTML5 player(in browser, HTML5)
Listen right in your browser(in browser, requires Flash)
Click here to listen with your own player(launches your MP3 player)

VHHH 110030Z 35008KT 320V020 9999 FEW020 SCT024 16/11 Q1022 NOSIG

VHHH Flight Activity (Flightaware)

Listeners: 2 out of 1200 total

Hong Kong Tower (South): 118.400

VHHH Zone (Archives)
Hong Kong, Hong Kong

Feed Status: UP
Listen in your browser - HTML5 player(in browser, HTML5)
Listen right in your browser(in browser, requires Flash)
Click here to listen with your own player(launches your MP3 player)

VHHH 110030Z 35008KT 320V020 9999 FEW020 SCT024 16/11 Q1022 NOSIG

VHHH Flight Activity (Flightaware)

Listeners: 0 out of 1200 total

Hong Kong Zone: 120.600

VNKT Twr/App/Control
Kathmandu, Nepal

Feed Status: DOWN
Offline since: 2018-03-13 04:51:02 UTC

VNKT 110050Z VRBO2KT 5000 BR FEW015 05/04 Q1020 NOSIG

Kathmandu Approach: 120.600
Kathmandu Control: 126.500
Kathmandu Tower: 118.100

NOTE: Airport closes from 19:00 UTC to 00:00 UTC

VTBS Approach (East) (Archives)
Bangkok, Thailand

Feed Status: UP
Listen in your browser - HTML5 player(in browser, HTML5)
Listen right in your browser(in browser, requires Flash)
Click here to listen with your own player(launches your MP3 player)

VTBS 110030Z 05006KT 9000 NSC 27/22 Q1012 NOSIG

VTBS Flight Activity (Flightaware)

Listeners: 0 out of 1200 total

Bangkok Approach (East): 122.350

VTBS Approach (North) (Archives)
Bangkok, Thailand

Feed Status: UP
Listen in your browser - HTML5 player(in browser, HTML5)
Listen right in your browser(in browser, requires Flash)
Click here to listen with your own player(launches your MP3 player)

VTBS 110030Z 05006KT 9000 NSC 27/22 Q1012 NOSIG

VTBS Flight Activity (Flightaware)

Listeners: 0 out of 1200 total

Bangkok Approach (North): 121.700

VTBS Approach 119.1 (Archives)
Bangkok, Thailand

Feed Status: UP
Listen in your browser - HTML5 player(in browser, HTML5)
Listen right in your browser(in browser, requires Flash)
Click here to listen with your own player(launches your MP3 player)

VTBS 110030Z 05006KT 9000 NSC 27/22 Q1012 NOSIG

VTBS Flight Activity (Flightaware)

Listeners: 1 out of 1200 total

Bangkok Approach: 119.100

VTBS Approach 119.4 (Archives)
Bangkok, Thailand

Feed Status: UP
Listen in your browser - HTML5 player(in browser, HTML5)
Listen right in your browser(in browser, requires Flash)
Click here to listen with your own player(launches your MP3 player)

VTBS 110030Z 05006KT 9000 NSC 27/22 Q1012 NOSIG

VTBS Flight Activity (Flightaware)

Listeners: 0 out of 1200 total

Bangkok Approach: 119.400

VTBS Approach 120.3 (Archives)
Bangkok, Thailand

Feed Status: UP
Listen in your browser - HTML5 player(in browser, HTML5)
Listen right in your browser(in browser, requires Flash)
Click here to listen with your own player(launches your MP3 player)

VTBS 110030Z 05006KT 9000 NSC 27/22 Q1012 NOSIG

VTBS Flight Activity (Flightaware)

Listeners: 0 out of 1200 total

Bangkok Approach: 120.300

VTBS Approach/Arrival (Archives)
Bangkok, Thailand

Feed Status: UP
Listen in your browser - HTML5 player(in browser, HTML5)
Listen right in your browser(in browser, requires Flash)
Click here to listen with your own player(launches your MP3 player)

VTBS 110030Z 05006KT 9000 NSC 27/22 Q1012 NOSIG

VTBS Flight Activity (Flightaware)

Listeners: 0 out of 1200 total

Bangkok Approach: 124.350
Bangkok Approach: 125.200
Bangkok Approach: 124.700
Bangkok Approach: 126.300
Bangkok Approach: 133.400
Bangkok Arrival (VTBD): 125.500

VTBS Arrival 121.1 (Archives)
Bangkok, Thailand

Feed Status: UP
Listen in your browser - HTML5 player(in browser, HTML5)
Listen right in your browser(in browser, requires Flash)
Click here to listen with your own player(launches your MP3 player)

VTBS 110030Z 05006KT 9000 NSC 27/22 Q1012 NOSIG

VTBS Flight Activity (Flightaware)

Listeners: 0 out of 1200 total

Bangkok Arrival: 121.100

VTBS ATIS (Archives)
Bangkok, Thailand

Feed Status: UP
Listen in your browser - HTML5 player(in browser, HTML5)
Listen right in your browser(in browser, requires Flash)
Click here to listen with your own player(launches your MP3 player)

VTBS 110030Z 05006KT 9000 NSC 27/22 Q1012 NOSIG

VTBS Flight Activity (Flightaware)

Listeners: 0 out of 1200 total

Bangkok D-ATIS: 133.600

VTBS Control (FIR) (Archives)
Bangkok, Thailand

Feed Status: UP
Listen in your browser - HTML5 player(in browser, HTML5)
Listen right in your browser(in browser, requires Flash)
Click here to listen with your own player(launches your MP3 player)

VTBS 110030Z 05006KT 9000 NSC 27/22 Q1012 NOSIG

VTBS Flight Activity (Flightaware)

Listeners: 0 out of 1200 total

Bangkok FIR (Sector 3): 135.500

VTBS Departure (Archives)
Bangkok, Thailand

Feed Status: UP
Listen in your browser - HTML5 player(in browser, HTML5)
Listen right in your browser(in browser, requires Flash)
Click here to listen with your own player(launches your MP3 player)

VTBS 110030Z 05006KT 9000 NSC 27/22 Q1012 NOSIG

VTBS Flight Activity (Flightaware)

Listeners: 2 out of 1200 total

Bangkok Departure: 119.250

VTBS Ground (East) (Archives)
Bangkok, Thailand

Feed Status: UP
Listen in your browser - HTML5 player(in browser, HTML5)
Listen right in your browser(in browser, requires Flash)
Click here to listen with your own player(launches your MP3 player)

VTBS 110030Z 05006KT 9000 NSC 27/22 Q1012 NOSIG

VTBS Flight Activity (Flightaware)

Listeners: 0 out of 1200 total

Bangkok Ground (East): 121.650

VTBS Ground (Main) (Archives)
Bangkok, Thailand

Feed Status: UP
Listen in your browser - HTML5 player(in browser, HTML5)
Listen right in your browser(in browser, requires Flash)
Click here to listen with your own player(launches your MP3 player)

VTBS 110030Z 05006KT 9000 NSC 27/22 Q1012 NOSIG

VTBS Flight Activity (Flightaware)

Listeners: 0 out of 1200 total

Bangkok Ground (Main): 121.750

VTBS Ground (West) (Archives)
Bangkok, Thailand

Feed Status: UP
Listen in your browser - HTML5 player(in browser, HTML5)
Listen right in your browser(in browser, requires Flash)
Click here to listen with your own player(launches your MP3 player)

VTBS 110030Z 05006KT 9000 NSC 27/22 Q1012 NOSIG

VTBS Flight Activity (Flightaware)

Listeners: 0 out of 1200 total

Bangkok Ground (West): 121.950

VTBS Tower (Archives)
Bangkok, Thailand

Feed Status: UP
Listen in your browser - HTML5 player(in browser, HTML5)
Listen right in your browser(in browser, requires Flash)
Click here to listen with your own player(launches your MP3 player)

VTBS 110030Z 05006KT 9000 NSC 27/22 Q1012 NOSIG

VTBS Flight Activity (Flightaware)

Listeners: 0 out of 1200 total

Bangkok Tower (Rwy 01L/19R): 119.000
Bangkok Tower (Rwy 01R/19L): 118.200

VTBS Tower (Rwy 01L/19R) (Archives)
Bangkok, Thailand

Feed Status: UP
Listen in your browser - HTML5 player(in browser, HTML5)
Listen right in your browser(in browser, requires Flash)
Click here to listen with your own player(launches your MP3 player)

VTBS 110030Z 05006KT 9000 NSC 27/22 Q1012 NOSIG

VTBS Flight Activity (Flightaware)

Listeners: 0 out of 1200 total

Bangkok Tower (Rwy 01L/19R): 119.000

VTBS Tower (Rwy 01R/19L) (Archives)
Bangkok, Thailand

Feed Status: UP
Listen in your browser - HTML5 player(in browser, HTML5)
Listen right in your browser(in browser, requires Flash)
Click here to listen with your own player(launches your MP3 player)

VTBS 110030Z 05006KT 9000 NSC 27/22 Q1012 NOSIG

VTBS Flight Activity (Flightaware)

Listeners: 0 out of 1200 total

Bangkok Tower (Rwy 01R/19L): 118.200

VTSS Approach
Songkhla, Thailand

Feed Status: DOWN
Offline since: 2018-12-10 23:30:03 UTC

VTSS 110030Z 00000KT 9999 FEW012 SCT020 BKN100 25/24 Q1011 NOSIG

Hat Yai Approach: 126.700

WAHH Approach (Archives)
Yogyakarta, Indonesia

Feed Status: UP
Listen in your browser - HTML5 player(in browser, HTML5)
Listen right in your browser(in browser, requires Flash)
Click here to listen with your own player(launches your MP3 player)

METAR NOT AVAILABLE


Listeners: 0 out of 1200 total

Adisutjipto Approach: 123.400

WARR Gnd/Twr/Radar (Archives)
Surabaya, Indonesia

Feed Status: UP
Listen in your browser - HTML5 player(in browser, HTML5)
Listen right in your browser(in browser, requires Flash)
Click here to listen with your own player(launches your MP3 player)

WARR 110030Z 24003KT 200V270 5000 HZ FEW020 29/25 Q1010 NOSIG


Listeners: 2 out of 1200 total

Juanda Ground: 119.150
Juanda Tower: 118.300
Surabaya Director: 123.200
Surabaya East Control: 124.000
Surabaya West Control: 125.100

WBKK Gnd/Twr/App (Archives)
Kota Kinabalu, Malaysia

Feed Status: UP
Listen in your browser - HTML5 player(in browser, HTML5)
Listen right in your browser(in browser, requires Flash)
Click here to listen with your own player(launches your MP3 player)

WBKK 110030Z 09003KT 9999 FEW015 BKN300 29/24 Q1010 NOSIG


Listeners: 0 out of 1200 total

Kinabalu Director: 119.100
Kinabalu Ground: 121.600
Kinabalu Radar: 126.100
Kinabalu Radar: 132.450
Kinabalu Tower: 118.300

WMKB Radar (Archives)
Penang, Malaysia

Feed Status: UP
Listen in your browser - HTML5 player(in browser, HTML5)
Listen right in your browser(in browser, requires Flash)
Click here to listen with your own player(launches your MP3 player)

WMKB 110000Z 07004KT 9000 FEW024 SCT140 BKN270 25/24 Q1009 NOSIG NOSIG


Listeners: 2 out of 1200 total

Butterworth Radar: 125.800

WMKK Lumpur Control/Radar (East)
Sepang, Malaysia

Feed Status: DOWN
Offline since: 2018-10-27 07:24:02 UTC

WMKK 110030Z VRB03KT 9999 FEW017CB SCT140 BKN280 26/25 Q1011 NOSIG

Lumpur Contro/Radar (East): 134.250

WMKP Ground
Penang, Malaysia

Feed Status: DOWN
Offline since: 2018-11-28 11:16:03 UTC

WMKP 110030Z VRB01KT 9000 FEW020 BKN140 BKN270 27/24 Q1010 NOSIG

Penang Ground: 121.600

YADG CTAF (Archives)
Sellicks Hill, South Australia, Australia

Feed Status: UP
Listen in your browser - HTML5 player(in browser, HTML5)
Listen right in your browser(in browser, requires Flash)
Click here to listen with your own player(launches your MP3 player)

YADG Flight Activity (Flightaware)

Listeners: 0 out of 1200 total

Aldinga CTAF: 127.150

YBAF Gnd/Twr #2 (Archives)
Brisbane, Queensland, Australia

Feed Status: UP
Listen in your browser - HTML5 player(in browser, HTML5)
Listen right in your browser(in browser, requires Flash)
Click here to listen with your own player(launches your MP3 player)

YBAF Flight Activity (Flightaware)

Listeners: 3 out of 1200 total

Brisbane Ground: 119.900
Brisbane Tower (North): 123.600
Brisbane Tower/CTAF (South): 118.100

YBAS Tower/Center (Archives)
Alice Springs, Northern Territory, Australia

Feed Status: UP
Listen in your browser - HTML5 player(in browser, HTML5)
Listen right in your browser(in browser, requires Flash)
Click here to listen with your own player(launches your MP3 player)

YBAS 110030Z 10010KT CAVOK 34/08 Q1012

YBAS Flight Activity (Flightaware)

Listeners: 0 out of 1200 total

Alice Tower/CTAF: 118.300
Melbourne Center (above FL280): 128.850
Melbourne Center (below FL280): 119.800

Alice Springs Aircraft Movements

YBBN Brisbane Center (Archives)
Brisbane, Queensland, Australia

Feed Status: UP
Listen in your browser - HTML5 player(in browser, HTML5)
Listen right in your browser(in browser, requires Flash)
Click here to listen with your own player(launches your MP3 player)

YBBN 110030Z 05008KT 9999 FEW035 BKN330 27/17 Q1016 NOSIG

YBBN Flight Activity (Flightaware)

Listeners: 3 out of 1200 total

Brisbane Center (North): 123.000
Brisbane Center (Southwest): 128.150
Brisbane Centre (High): 134.300
Brisbane Centre (South): 130.400
Brisbane Oceanic Center: 132.850

YBBN Gnd/Twr/App/Dep (Archives)
Brisbane, Queensland, Australia

Feed Status: UP
Listen in your browser - HTML5 player(in browser, HTML5)
Listen right in your browser(in browser, requires Flash)
Click here to listen with your own player(launches your MP3 player)

YBBN 110030Z 05008KT 9999 FEW035 BKN330 27/17 Q1016 NOSIG

YBBN Flight Activity (Flightaware)

Listeners: 8 out of 1200 total

Approach: 123.500
Brisbane Approach: 124.700
Brisbane Approach/Departure: 125.600
Brisbane Departure: 128.300
Brisbane Ground: 121.700
Brisbane Tower: 120.500

YBCG Approach (Archives)
Gold Coast City, Queensland, Australia

Feed Status: UP
Listen in your browser - HTML5 player(in browser, HTML5)
Listen right in your browser(in browser, requires Flash)
Click here to listen with your own player(launches your MP3 player)

YBCG 110030Z AUTO 06011KT 9999 // NCD 26/19 Q1016 RF00.0/000.0

YBCG Flight Activity (Flightaware)

Listeners: 0 out of 1200 total

Brisbane Approach: 123.500

YBCG Area CTAF (Archives)
Gold Coast City, Queensland, Australia

Feed Status: UP
Listen in your browser - HTML5 player(in browser, HTML5)
Listen right in your browser(in browser, requires Flash)
Click here to listen with your own player(launches your MP3 player)

YBCG 110030Z AUTO 06011KT 9999 // NCD 26/19 Q1016 RF00.0/000.0

YBCG Flight Activity (Flightaware)

Listeners: 0 out of 1200 total

Gold Coast Area CTAF: 126.700

YBCG Brisbane Centre (Archives)
Gold Coast City, Queensland, Australia

Feed Status: UP
Listen in your browser - HTML5 player(in browser, HTML5)
Listen right in your browser(in browser, requires Flash)
Click here to listen with your own player(launches your MP3 player)

YBCG 110030Z AUTO 06011KT 9999 // NCD 26/19 Q1016 RF00.0/000.0

YBCG Flight Activity (Flightaware)

Listeners: 0 out of 1200 total

Brisbane Centre/Radar: 119.500

YBCG Ground (Archives)
Gold Coast City, Queensland, Australia

Feed Status: UP
Listen in your browser - HTML5 player(in browser, HTML5)
Listen right in your browser(in browser, requires Flash)
Click here to listen with your own player(launches your MP3 player)

YBCG 110030Z AUTO 06011KT 9999 // NCD 26/19 Q1016 RF00.0/000.0

YBCG Flight Activity (Flightaware)

Listeners: 0 out of 1200 total

Gold Coast Ground: 121.800

YBCG Ground/Tower (Archives)
Gold Coast City, Queensland, Australia

Feed Status: UP
Listen in your browser - HTML5 player(in browser, HTML5)
Listen right in your browser(in browser, requires Flash)
Click here to listen with your own player(launches your MP3 player)

YBCG 110030Z AUTO 06011KT 9999 // NCD 26/19 Q1016 RF00.0/000.0

YBCG Flight Activity (Flightaware)

Listeners: 1 out of 1200 total

Gold Coast Ground: 121.800
Gold Coast Tower: 118.700

YBCG Tower (Archives)
Gold Coast City, Queensland, Australia

Feed Status: UP
Listen in your browser - HTML5 player(in browser, HTML5)
Listen right in your browser(in browser, requires Flash)
Click here to listen with your own player(launches your MP3 player)

YBCG 110030Z AUTO 06011KT 9999 // NCD 26/19 Q1016 RF00.0/000.0

YBCG Flight Activity (Flightaware)

Listeners: 0 out of 1200 total

Gold Coast Tower: 118.700

YBCS App/Dep #1 (Archives)
Cairns, Queensland, Australia

Feed Status: UP
Listen in your browser - HTML5 player(in browser, HTML5)
Listen right in your browser(in browser, requires Flash)
Click here to listen with your own player(launches your MP3 player)

YBCS 110030Z 10007KT 070V130 9999 FEW024 SCT035 BKN220 30/24 Q1010 NOSIG

YBCS Flight Activity (Flightaware)

Listeners: 0 out of 1200 total

Cairns Approach/Departure: 118.400

YBCS App/Dep #2 (Archives)
Cairns, Queensland, Australia

Feed Status: UP
Listen in your browser - HTML5 player(in browser, HTML5)
Listen right in your browser(in browser, requires Flash)
Click here to listen with your own player(launches your MP3 player)

YBCS 110030Z 10007KT 070V130 9999 FEW024 SCT035 BKN220 30/24 Q1010 NOSIG

YBCS Flight Activity (Flightaware)

Listeners: 0 out of 1200 total

Cairns Approach/Departure: 126.100

YBCS App/Dep (all) (Archives)
Cairns, Queensland, Australia

Feed Status: UP
Listen in your browser - HTML5 player(in browser, HTML5)
Listen right in your browser(in browser, requires Flash)
Click here to listen with your own player(launches your MP3 player)

YBCS 110030Z 10007KT 070V130 9999 FEW024 SCT035 BKN220 30/24 Q1010 NOSIG

YBCS Flight Activity (Flightaware)

Listeners: 0 out of 1200 total

Cairns Approach/Departure: 126.100
Cairns Approach/Departure: 118.400

YBCS Brisbane Centre (Archives)
Cairns, Queensland, Australia

Feed Status: UP
Listen in your browser - HTML5 player(in browser, HTML5)
Listen right in your browser(in browser, requires Flash)
Click here to listen with your own player(launches your MP3 player)

YBCS 110030Z 10007KT 070V130 9999 FEW024 SCT035 BKN220 30/24 Q1010 NOSIG

YBCS Flight Activity (Flightaware)

Listeners: 0 out of 1200 total

Brisbane Centre: 121.200

YBCS Emergency/Guard (Archives)
Cairns, Queensland, Australia

Feed Status: UP
Listen in your browser - HTML5 player(in browser, HTML5)
Listen right in your browser(in browser, requires Flash)
Click here to listen with your own player(launches your MP3 player)

YBCS 110030Z 10007KT 070V130 9999 FEW024 SCT035 BKN220 30/24 Q1010 NOSIG

YBCS Flight Activity (Flightaware)

Listeners: 0 out of 1200 total

Emergency/Guard: 121.500

YBCS Ground (Archives)
Cairns, Queensland, Australia

Feed Status: UP
Listen in your browser - HTML5 player(in browser, HTML5)
Listen right in your browser(in browser, requires Flash)
Click here to listen with your own player(launches your MP3 player)

YBCS 110030Z 10007KT 070V130 9999 FEW024 SCT035 BKN220 30/24 Q1010 NOSIG

YBCS Flight Activity (Flightaware)

Listeners: 0 out of 1200 total

Cairns Ground: 121.700

YBCS Ground/Tower (Archives)
Cairns, Queensland, Australia

Feed Status: UP
Listen in your browser - HTML5 player(in browser, HTML5)
Listen right in your browser(in browser, requires Flash)
Click here to listen with your own player(launches your MP3 player)

YBCS 110030Z 10007KT 070V130 9999 FEW024 SCT035 BKN220 30/24 Q1010 NOSIG

YBCS Flight Activity (Flightaware)

Listeners: 0 out of 1200 total

Cairns Ground: 121.700
Cairns Tower: 124.900

YBCS Tower (Archives)
Cairns, Queensland, Australia

Feed Status: UP
Listen in your browser - HTML5 player(in browser, HTML5)
Listen right in your browser(in browser, requires Flash)
Click here to listen with your own player(launches your MP3 player)

YBCS 110030Z 10007KT 070V130 9999 FEW024 SCT035 BKN220 30/24 Q1010 NOSIG

YBCS Flight Activity (Flightaware)

Listeners: 0 out of 1200 total

Cairns Tower: 124.900

YBCV CTAF/Brisbane Center (Archives)
Charleville, Queensland, Australia

Feed Status: UP
Listen in your browser - HTML5 player(in browser, HTML5)
Listen right in your browser(in browser, requires Flash)
Click here to listen with your own player(launches your MP3 player)

YBCV 110000Z AUTO 02007KT 330V050 9999 // NCD 32/14 Q1013

YBCV Flight Activity (Flightaware)

Listeners: 0 out of 1200 total

Brisbane Center: 124.800
Charleville CTAF/UNICOM: 126.700

YBOK Del/Gnd/Twr/App (Archives)
Oakey, Queensland, Australia

Feed Status: UP
Listen in your browser - HTML5 player(in browser, HTML5)
Listen right in your browser(in browser, requires Flash)
Click here to listen with your own player(launches your MP3 player)

YBOK Flight Activity (Flightaware)

Listeners: 0 out of 1200 total

Brisbane Center/FSS: 121.200
Oakey Approach: 125.400
Oakey Approach: 123.700
Oakey Approach (Final): 135.850
Oakey Clearance Delivery: 133.350
Oakey CTAF (+YTWB/YBWW): 127.650
Oakey Ground: 121.900
Oakey Tower: 120.100

YBSS CTAF
Bacchus Marsh, Victoria, Australia

Feed Status: DOWN
Offline since: 2018-10-03 03:56:03 UTC

Bacchus Marsh CTAF: 118.800

Feed courtesy: Melbourne Gliding Club +613 8683 7240

YBSS Glider 122.5
Bacchus Marsh, Victoria, Australia

Feed Status: DOWN
Offline since: 2018-10-06 11:00:06 UTC

Bacchus Marsh Glider Chat: 122.500

Feed courtesy: Melbourne Gliding Club +613 8683 7240

YBSS Glider 122.7
Bacchus Marsh, Victoria, Australia

Feed Status: DOWN
Offline since: 2018-10-03 03:56:03 UTC

Bacchus Marsh Glider Chat: 122.700

Feed courtesy: Melbourne Gliding Club +613 8683 7240

YBSS Glider 122.9
Bacchus Marsh, Victoria, Australia

Feed Status: DOWN
Offline since: 2018-10-03 03:56:03 UTC

Bacchus Marsh Glider Chat: 122.900

Feed courtesy: Melbourne Gliding Club +613 8683 7240

YBSU Ground/Tower (Archives)
Marcoola, Queensland, Australia

Feed Status: UP
Listen in your browser - HTML5 player(in browser, HTML5)
Listen right in your browser(in browser, requires Flash)
Click here to listen with your own player(launches your MP3 player)

YBSU Flight Activity (Flightaware)

Listeners: 1 out of 1200 total

Sunshine Coast Ground: 121.100
Sunshine Coast Tower: 124.400

YBTL ATIS (Archives)
Townsville, Queensland, Australia

Feed Status: UP
Listen in your browser - HTML5 player(in browser, HTML5)
Listen right in your browser(in browser, requires Flash)
Click here to listen with your own player(launches your MP3 player)

YBTL 110030Z 11011KT 9999 VCSH FEW012 SCT020 BKN160 27/24 Q1011 INTER 0030/0200 09015G25KT 3000 SHRA BKN012

YBTL Flight Activity (Flightaware)

Listeners: 0 out of 1200 total

Townsville ATIS: 133.500

YBTL Brisbane Center (Archives)
Townsville, Queensland, Australia

Feed Status: UP
Listen in your browser - HTML5 player(in browser, HTML5)
Listen right in your browser(in browser, requires Flash)
Click here to listen with your own player(launches your MP3 player)

YBTL 110030Z 11011KT 9999 VCSH FEW012 SCT020 BKN160 27/24 Q1011 INTER 0030/0200 09015G25KT 3000 SHRA BKN012

YBTL Flight Activity (Flightaware)

Listeners: 0 out of 1200 total

Brisbane Center: 120.550

YBTL Del/Gnd/Twr/App (Archives)
Townsville, Queensland, Australia

Feed Status: UP
Listen in your browser - HTML5 player(in browser, HTML5)
Listen right in your browser(in browser, requires Flash)
Click here to listen with your own player(launches your MP3 player)

YBTL 110030Z 11011KT 9999 VCSH FEW012 SCT020 BKN160 27/24 Q1011 INTER 0030/0200 09015G25KT 3000 SHRA BKN012

YBTL Flight Activity (Flightaware)

Listeners: 0 out of 1200 total

Townsville Approach/Departure: 126.800
Townsville Clearance Delivery: 128.100
Townsville Ground: 119.450
Townsville Ground: 121.800
Townsville Tower: 118.300

YBTL Del/Gnd/Twr/App/Center (Archives)
Townsville, Queensland, Australia

Feed Status: UP
Listen in your browser - HTML5 player(in browser, HTML5)
Listen right in your browser(in browser, requires Flash)
Click here to listen with your own player(launches your MP3 player)

YBTL 110030Z 11011KT 9999 VCSH FEW012 SCT020 BKN160 27/24 Q1011 INTER 0030/0200 09015G25KT 3000 SHRA BKN012

YBTL Flight Activity (Flightaware)

Listeners: 0 out of 1200 total

Brisbane Center: 120.550
Townsville Approach/Departure: 126.800
Townsville Clearance Delivery: 128.100
Townsville Ground: 119.450
Townsville Ground: 121.800
Townsville Tower: 118.300

YGAW CTAF (Archives)
Gawler, South Australia, Australia

Feed Status: UP
Listen in your browser - HTML5 player(in browser, HTML5)
Listen right in your browser(in browser, requires Flash)
Click here to listen with your own player(launches your MP3 player)

METAR NOT AVAILABLE

YGAW Flight Activity (Flightaware)

Listeners: 0 out of 1200 total

Gawler CTAF: 126.550

YGTH AWIS (Archives)
Griffith, New South Wales, Australia

Feed Status: UP
Listen in your browser - HTML5 player(in browser, HTML5)
Listen right in your browser(in browser, requires Flash)
Click here to listen with your own player(launches your MP3 player)

YGTH 110000Z AUTO 35010KT 9999 // NCD 28/10 Q1014

YGTH Flight Activity (Flightaware)

Listeners: 0 out of 1200 total

Griffith AWIS Weather: 132.950

YGTH CTAF (Archives)
Griffith, New South Wales, Australia

Feed Status: UP
Listen in your browser - HTML5 player(in browser, HTML5)
Listen right in your browser(in browser, requires Flash)
Click here to listen with your own player(launches your MP3 player)

YGTH 110000Z AUTO 35010KT 9999 // NCD 28/10 Q1014

YGTH Flight Activity (Flightaware)

Listeners: 0 out of 1200 total

Griffith CTAF: 126.550

YHBA CTAF (Archives)
Hervey Bay, Queensland, Australia

Feed Status: UP
Listen in your browser - HTML5 player(in browser, HTML5)
Listen right in your browser(in browser, requires Flash)
Click here to listen with your own player(launches your MP3 player)

YHBA Flight Activity (Flightaware)

Listeners: 0 out of 1200 total

Hervey Bay CTAF/UNICOM: 126.550

YMML/YMMB/YMEN (Archives)
Essendon, Victoria, Australia

Feed Status: UP
Listen in your browser - HTML5 player(in browser, HTML5)
Listen right in your browser(in browser, requires Flash)
Click here to listen with your own player(launches your MP3 player)

YMML 110030Z 15006KT 120V230 CAVOK 20/09 Q1017 NOSIG

YMML Flight Activity (Flightaware)

Listeners: 4 out of 1200 total

Air Ambulance: 132.750
Air Ambulance: 122.075
DSE & Other Company: 119.100
Essendon Tower: 125.100
Inter-Pilot: 123.450
Jetstar Company: 130.925
Melbourne ACD: 127.200
Melbourne Approach: 132.000
Melbourne Centre: 125.200
Melbourne Centre: 125.800
Melbourne Centre: 130.300
Melbourne Centre: 128.500
Melbourne Centre: 125.700
Melbourne Centre: 122.400
Melbourne Centre: 126.800
Melbourne Centre: 123.750
Melbourne Departure: 129.400
Melbourne Departure: 118.900
Melbourne Radar: 135.700
Melbourne Tower: 120.500
Moorabbin Tower (East): 118.100
Moorabbin Tower (West): 123.000
Police Air Wing: 131.600
Qantas Company: 130.850
Qantas Company: 129.500
Rex Company: 126.450
Royal Victorian Aero Club Company: 128.700
Royal Victorian Aero Club Company: 133.400
Virgin Blue Company: 131.500
Yarra Bank Heliport CTAF: 132.100

YMHB Gnd/Twr/Centre
Cambridge, Tasmania, Australia

Feed Status: DOWN
Offline since: 2018-12-03 03:48:02 UTC

YMHB 110030Z 16009KT 9999 FEW035 16/06 Q1021

Hobart Ground: 121.700
Hobart Tower: 118.100
Melbourne Centre: 125.550

YMIA CTAF/Melbourne Center (Archives)
Mildura, Victoria, Australia

Feed Status: UP
Listen in your browser - HTML5 player(in browser, HTML5)
Listen right in your browser(in browser, requires Flash)
Click here to listen with your own player(launches your MP3 player)

YMIA 110000Z AUTO 10007KT 060V140 9999 // NCD 29/05 Q1015

YMIA Flight Activity (Flightaware)

Listeners: 1 out of 1200 total

Melbourne Center: 112.100
Melbourne Center: 132.600
Mildura CTAF: 118.800

YMML/YMMB/YMEN (Archives)
Mentone, Victoria, Australia

Feed Status: UP
Listen in your browser - HTML5 player(in browser, HTML5)
Listen right in your browser(in browser, requires Flash)
Click here to listen with your own player(launches your MP3 player)

YMML 110030Z 15006KT 120V230 CAVOK 20/09 Q1017 NOSIG

YMML Flight Activity (Flightaware)

Listeners: 4 out of 1200 total

Air Ambulance: 132.750
Air Ambulance: 122.075
DSE & Other Company: 119.100
Essendon Tower: 125.100
Inter-Pilot: 123.450
Jetstar Company: 130.925
Melbourne ACD: 127.200
Melbourne Approach: 132.000
Melbourne Centre: 125.200
Melbourne Centre: 125.800
Melbourne Centre: 130.300
Melbourne Centre: 128.500
Melbourne Centre: 125.700
Melbourne Centre: 122.400
Melbourne Centre: 126.800
Melbourne Centre: 123.750
Melbourne Departure: 129.400
Melbourne Departure: 118.900
Melbourne Radar: 135.700
Melbourne Tower: 120.500
Moorabbin Tower (East): 118.100
Moorabbin Tower (West): 123.000
Police Air Wing: 131.600
Qantas Company: 130.850
Qantas Company: 129.500
Rex Company: 126.450
Royal Victorian Aero Club Company: 128.700
Royal Victorian Aero Club Company: 133.400
Virgin Blue Company: 131.500
Yarra Bank Heliport CTAF: 132.100

YMML/YMMB/YMEN (Archives)
Melbourne, Victoria, Australia

Feed Status: UP
Listen in your browser - HTML5 player(in browser, HTML5)
Listen right in your browser(in browser, requires Flash)
Click here to listen with your own player(launches your MP3 player)

YMML 110030Z 15006KT 120V230 CAVOK 20/09 Q1017 NOSIG

YMML Flight Activity (Flightaware)

Listeners: 4 out of 1200 total

Air Ambulance: 132.750
Air Ambulance: 122.075
DSE & Other Company: 119.100
Essendon Tower: 125.100
Inter-Pilot: 123.450
Jetstar Company: 130.925
Melbourne ACD: 127.200
Melbourne Approach: 132.000
Melbourne Centre: 125.200
Melbourne Centre: 125.800
Melbourne Centre: 130.300
Melbourne Centre: 128.500
Melbourne Centre: 125.700
Melbourne Centre: 122.400
Melbourne Centre: 126.800
Melbourne Centre: 123.750
Melbourne Departure: 129.400
Melbourne Departure: 118.900
Melbourne Radar: 135.700
Melbourne Tower: 120.500
Moorabbin Tower (East): 118.100
Moorabbin Tower (West): 123.000
Police Air Wing: 131.600
Qantas Company: 130.850
Qantas Company: 129.500
Rex Company: 126.450
Royal Victorian Aero Club Company: 128.700
Royal Victorian Aero Club Company: 133.400
Virgin Blue Company: 131.500
Yarra Bank Heliport CTAF: 132.100

YPAD Del/Gnd/Twr/App (Archives)
Adelaide, South Australia, Australia

Feed Status: UP
Listen in your browser - HTML5 player(in browser, HTML5)
Listen right in your browser(in browser, requires Flash)
Click here to listen with your own player(launches your MP3 player)

YPAD 110030Z 25009KT CAVOK 24/10 Q1013 NOSIG

YPAD Flight Activity (Flightaware)

Listeners: 0 out of 1200 total

Adelaide Approach (East of Adelaide): 118.200
Adelaide Approach (East of Adelaide): 130.450
Adelaide Approach (Kangaroo Island): 123.050
Adelaide Approach (North of Adelaide): 128.600
Adelaide Approach (West of Adelaide): 124.200
Adelaide Clearance Delivery: 126.100
Adelaide Ground: 121.700
Adelaide Tower: 120.500

YPAD Gnd/Twr/App/Center (Archives)
Adelaide, South Australia, Australia

Feed Status: UP
Listen in your browser - HTML5 player(in browser, HTML5)
Listen right in your browser(in browser, requires Flash)
Click here to listen with your own player(launches your MP3 player)

YPAD 110030Z 25009KT CAVOK 24/10 Q1013 NOSIG

YPAD Flight Activity (Flightaware)

Listeners: 3 out of 1200 total

Adelaide Approach (East of Adelaide): 118.200
Adelaide Approach (East of Adelaide): 130.450
Adelaide Approach (Kangaroo Island): 123.050
Adelaide Approach (North of Adelaide): 128.600
Adelaide Approach (West of Adelaide): 124.200
Adelaide Clearance Delivery: 126.100
Adelaide Ground: 121.700
Adelaide Tower: 120.500
Flight Watch: 135.750
Melbourne Centre: 124.300
Melbourne Centre ( East of Adelaide): 125.300
Melbourne Centre ( Pt Augusta, Pt Pirie, Whyalla): 123.900
Melbourne Centre (Mildura): 122.100
Melbourne Centre (North of Adelaide): 122.400
Melbourne Centre (Pt Lincoln): 125.900
Melbourne Centre (West of Adelaide ): 127.050

YPDN Gnd/Twr/App/Dep
Darwin, Northern Territory, Australia

Feed Status: DOWN
Offline since: 2018-12-11 01:27:02 UTC

YPDN 110030Z 27014KT 9999 FEW032 33/24 Q1008 NOSIG

Darwin Approach: 134.100
Darwin Arrival: 125.200
Darwin Departure: 119.550
Darwin Ground: 121.800
Darwin Tower: 133.100

YPJT Gnd/Twr/Radar (Archives)
Perth, Western Australia, Australia

Feed Status: UP
Listen in your browser - HTML5 player(in browser, HTML5)
Listen right in your browser(in browser, requires Flash)
Click here to listen with your own player(launches your MP3 player)

YPJT 110030Z AUTO 17012KT 9999 // OVC024 18/13 Q1013 RF00.0/000.0

YPJT Flight Activity (Flightaware)

Listeners: 2 out of 1200 total

Jandakot Ground: 124.300
Jandakot Tower: 119.400
Jandakot Tower/CTAF: 118.100
Perth Radar: 135.250

Jandakot Airport web page

YPPF Ground (Archives)
Parafield, South Australia, Australia

Feed Status: UP
Listen in your browser - HTML5 player(in browser, HTML5)
Listen right in your browser(in browser, requires Flash)
Click here to listen with your own player(launches your MP3 player)

YPPF Flight Activity (Flightaware)

Listeners: 0 out of 1200 total

Parafield Ground: 119.900

YPPF Tower #1 (Archives)
Parafield, South Australia, Australia

Feed Status: UP
Listen in your browser - HTML5 player(in browser, HTML5)
Listen right in your browser(in browser, requires Flash)
Click here to listen with your own player(launches your MP3 player)

YPPF Flight Activity (Flightaware)

Listeners: 0 out of 1200 total

Parafield Tower: 118.700

YPPF Tower #2 (Archives)
Parafield, South Australia, Australia

Feed Status: UP
Listen in your browser - HTML5 player(in browser, HTML5)
Listen right in your browser(in browser, requires Flash)
Click here to listen with your own player(launches your MP3 player)

YPPF Flight Activity (Flightaware)

Listeners: 0 out of 1200 total

Parafield Tower: 124.600

YPPH Approach (Archives)
Perth, Western Australia, Australia

Feed Status: UP
Listen in your browser - HTML5 player(in browser, HTML5)
Listen right in your browser(in browser, requires Flash)
Click here to listen with your own player(launches your MP3 player)

YPPH 110030Z 20014KT 4000 FU NSC 19/11 Q1013

YPPH Flight Activity (Flightaware)

Listeners: 1 out of 1200 total

Perth Approach: 123.600

YPPH Departure (Archives)
Perth, Western Australia, Australia

Feed Status: UP
Listen in your browser - HTML5 player(in browser, HTML5)
Listen right in your browser(in browser, requires Flash)
Click here to listen with your own player(launches your MP3 player)

YPPH 110030Z 20014KT 4000 FU NSC 19/11 Q1013

YPPH Flight Activity (Flightaware)

Listeners: 1 out of 1200 total

Perth Departure: 118.700

YPPH Ground (Archives)
Perth, Western Australia, Australia

Feed Status: UP
Listen in your browser - HTML5 player(in browser, HTML5)
Listen right in your browser(in browser, requires Flash)
Click here to listen with your own player(launches your MP3 player)

YPPH 110030Z 20014KT 4000 FU NSC 19/11 Q1013

YPPH Flight Activity (Flightaware)

Listeners: 0 out of 1200 total

Perth Ground: 121.700

YPPH Tower (Archives)
Perth, Western Australia, Australia

Feed Status: UP
Listen in your browser - HTML5 player(in browser, HTML5)
Listen right in your browser(in browser, requires Flash)
Click here to listen with your own player(launches your MP3 player)

YPPH 110030Z 20014KT 4000 FU NSC 19/11 Q1013

YPPH Flight Activity (Flightaware)

Listeners: 0 out of 1200 total

Perth Tower: 120.500

YRYW 122.5 (Archives)
Raywood, Victoria, Australia

Feed Status: UP
Listen in your browser - HTML5 player(in browser, HTML5)
Listen right in your browser(in browser, requires Flash)
Click here to listen with your own player(launches your MP3 player)

METAR NOT AVAILABLE

YRYW Flight Activity (Flightaware)

Listeners: 0 out of 1200 total


YRYW 122.7 (Archives)
Raywood, Victoria, Australia

Feed Status: UP
Listen in your browser - HTML5 player(in browser, HTML5)
Listen right in your browser(in browser, requires Flash)
Click here to listen with your own player(launches your MP3 player)

METAR NOT AVAILABLE

YRYW Flight Activity (Flightaware)

Listeners: 0 out of 1200 total


YRYW 122.9 (Archives)
Raywood, Victoria, Australia

Feed Status: UP
Listen in your browser - HTML5 player(in browser, HTML5)
Listen right in your browser(in browser, requires Flash)
Click here to listen with your own player(launches your MP3 player)

METAR NOT AVAILABLE

YRYW Flight Activity (Flightaware)

Listeners: 0 out of 1200 total


YRYW CTAF (Archives)
Raywood, Victoria, Australia

Feed Status: UP
Listen in your browser - HTML5 player(in browser, HTML5)
Listen right in your browser(in browser, requires Flash)
Click here to listen with your own player(launches your MP3 player)

METAR NOT AVAILABLE

YRYW Flight Activity (Flightaware)

Listeners: 0 out of 1200 total

Raywood CTAF: 126.700

YSBK ATIS (Archives)
Bankstown, New South Wales, Australia

Feed Status: UP
Listen in your browser - HTML5 player(in browser, HTML5)
Listen right in your browser(in browser, requires Flash)
Click here to listen with your own player(launches your MP3 player)

YSBK Flight Activity (Flightaware)

Listeners: 1 out of 1200 total

Bankstown ATIS: 120.900

YSBK Tower (Archives)
Bankstown, New South Wales, Australia

Feed Status: UP
Listen in your browser - HTML5 player(in browser, HTML5)
Listen right in your browser(in browser, requires Flash)
Click here to listen with your own player(launches your MP3 player)

YSBK Flight Activity (Flightaware)

Listeners: 1 out of 1200 total

Bankstown Tower: 132.800

NOTE: Feed provided by Bryan Ford

YSCB App/Dep (Archives)
Canberra, Australian Capital Territory, Australia

Feed Status: UP
Listen in your browser - HTML5 player(in browser, HTML5)
Listen right in your browser(in browser, requires Flash)
Click here to listen with your own player(launches your MP3 player)

YSCB 110030Z 07011KT 9999 SCT020 BKN028 19/14 Q1020 FM0230 06013KT 9999 -SHRA SCT030 SCT050

YSCB Flight Activity (Flightaware)

Listeners: 0 out of 1200 total

Canberra Approach/Departure: 124.500

YSCB App/Dep/Center (Archives)
Canberra, Australian Capital Territory, Australia

Feed Status: UP
Listen in your browser - HTML5 player(in browser, HTML5)
Listen right in your browser(in browser, requires Flash)
Click here to listen with your own player(launches your MP3 player)

YSCB 110030Z 07011KT 9999 SCT020 BKN028 19/14 Q1020 FM0230 06013KT 9999 -SHRA SCT030 SCT050

YSCB Flight Activity (Flightaware)

Listeners: 0 out of 1200 total

Melbourne Center: 125.900

YSCB ATIS (Archives)
Canberra, Australian Capital Territory, Australia

Feed Status: UP
Listen in your browser - HTML5 player(in browser, HTML5)
Listen right in your browser(in browser, requires Flash)
Click here to listen with your own player(launches your MP3 player)

YSCB 110030Z 07011KT 9999 SCT020 BKN028 19/14 Q1020 FM0230 06013KT 9999 -SHRA SCT030 SCT050

YSCB Flight Activity (Flightaware)

Listeners: 0 out of 1200 total

Canberra ATIS: 127.450

YSCB Ground/Tower (Archives)
Canberra, Australian Capital Territory, Australia

Feed Status: UP
Listen in your browser - HTML5 player(in browser, HTML5)
Listen right in your browser(in browser, requires Flash)
Click here to listen with your own player(launches your MP3 player)

YSCB 110030Z 07011KT 9999 SCT020 BKN028 19/14 Q1020 FM0230 06013KT 9999 -SHRA SCT030 SCT050

YSCB Flight Activity (Flightaware)

Listeners: 0 out of 1200 total

Canberra Ground: 121.700
Canberra Tower: 118.700

YSCN Tower/CTAF (Archives)
Camden, New South Wales, Australia

Feed Status: UP
Listen in your browser - HTML5 player(in browser, HTML5)
Listen right in your browser(in browser, requires Flash)
Click here to listen with your own player(launches your MP3 player)

YSCN Flight Activity (Flightaware)

Listeners: 1 out of 1200 total

Camden Tower/CTAF: 120.100

YSNW Gnd/CTAF/App/Center (Archives)
Nowra, New South Wales, Australia

Feed Status: UP
Listen in your browser - HTML5 player(in browser, HTML5)
Listen right in your browser(in browser, requires Flash)
Click here to listen with your own player(launches your MP3 player)

YSNW 110000Z 15006KT 9999 FEW021 SCT026 BKN032 20/15 Q1019 NOSIG

YSNW Flight Activity (Flightaware)

Listeners: 0 out of 1200 total

Enroute: 132.300
Nowra Approach: 123.500
Nowra CTAF: 118.850
Nowra Ground: 135.850

Australia - ATC Satellite Feed (Archives)
Sydney, New South Wales, Australia

Feed Status: UP
Listen in your browser - HTML5 player(in browser, HTML5)
Listen right in your browser(in browser, requires Flash)
Click here to listen with your own player(launches your MP3 player)


Listeners: 2 out of 1200 total

Brisbane Center: 123.400
Brisbane Center: 128.600
Melbourne Center: 133.500
Melbourne Center: 118.500
Sydney Departures: 118.400

YSSY Approach/Departure (Archives)
Sydney, New South Wales, Australia

Feed Status: UP
Listen in your browser - HTML5 player(in browser, HTML5)
Listen right in your browser(in browser, requires Flash)
Click here to listen with your own player(launches your MP3 player)

YSSY 110030Z 18011KT 9999 SCT030 BKN100 21/15 Q1019 NOSIG

YSSY Flight Activity (Flightaware)

Listeners: 1 out of 1200 total

Sydney Approach: 135.100
Sydney Approach (North/East): 124.400
Sydney Approach (South/West): 128.300
Sydney Departure (Rte N and E): 123.000
Sydney Departure (Rte S, W and NW outside 15 NM SY): 118.400
Sydney Departure (Rte S, W and NW): 129.700

YSSY Director (Archives)
Sydney, New South Wales, Australia

Feed Status: UP
Listen in your browser - HTML5 player(in browser, HTML5)
Listen right in your browser(in browser, requires Flash)
Click here to listen with your own player(launches your MP3 player)

YSSY 110030Z 18011KT 9999 SCT030 BKN100 21/15 Q1019 NOSIG

YSSY Flight Activity (Flightaware)

Listeners: 1 out of 1200 total

Sydney Director (East): 125.300
Sydney Director (West): 126.100

Note: Director provides radar vectoring from late downwind until established on final approach.

YSSY Tower (Archives)
Sydney, New South Wales, Australia

Feed Status: UP
Listen in your browser - HTML5 player(in browser, HTML5)
Listen right in your browser(in browser, requires Flash)
Click here to listen with your own player(launches your MP3 player)

YSSY 110030Z 18011KT 9999 SCT030 BKN100 21/15 Q1019 NOSIG

YSSY Flight Activity (Flightaware)

Listeners: 1 out of 1200 total

Sydney Tower (Rwy 16L/34R): 124.700
Sydney Tower (Rwy 16R/34L, Rwy 07/25): 120.500

YSSY Tower/Approach (Archives)
Sydney, New South Wales, Australia

Feed Status: UP
Listen in your browser - HTML5 player(in browser, HTML5)
Listen right in your browser(in browser, requires Flash)
Click here to listen with your own player(launches your MP3 player)

YSSY 110030Z 18011KT 9999 SCT030 BKN100 21/15 Q1019 NOSIG

YSSY Flight Activity (Flightaware)

Listeners: 2 out of 1200 total

Sydney Approach: 135.100
Sydney Approach (North/East): 124.400
Sydney Approach (South/West): 128.300
Sydney Departure (Rte N and E): 123.000
Sydney Departure (Rte S, W and NW outside 15 NM SY): 118.400
Sydney Departure (Rte S, W and NW): 129.700
Sydney Tower (Rwy 16L/34R): 124.700
Sydney Tower (Rwy 16R/34L, Rwy 07/25): 120.500

ZBAA Approach
Beijing, China

Feed Status: DOWN
Offline since: 2018-11-20 01:46:03 UTC

ZBAA 110030Z 29010MPS CAVOK M05/M26 Q1038 NOSIG

Beijing Approach: 120.600

ZBAA Tower (Archives)
Beijing, China

Feed Status: UP
Listen in your browser - HTML5 player(in browser, HTML5)
Listen right in your browser(in browser, requires Flash)
Click here to listen with your own player(launches your MP3 player)

ZBAA 110030Z 29010MPS CAVOK M05/M26 Q1038 NOSIG


Listeners: 6 out of 1200 total

Beijing Tower (Rwy 01/19): 118.600

ZGKL App/Control (Archives)
Guilin, China

Feed Status: UP
Listen in your browser - HTML5 player(in browser, HTML5)
Listen right in your browser(in browser, requires Flash)
Click here to listen with your own player(launches your MP3 player)

ZGKL 110000Z 05003MPS 4000 BR FEW006 SCT023 OVC036 04/03 Q1030 NOSIG


Listeners: 0 out of 1200 total

Guilin Approach: 120.850
Guilin Control: 133.600

ZYCY Tower
Chaoyang, China

Feed Status: DOWN
Offline since: 2018-11-19 03:14:04 UTC

ZYCY 140700Z 25002MPS CAVOK 29/16 Q1006 NOSIG

Chaoyang Tower: 118.350